GFSWCAN_sfc_thetae_000.txt.gz
Theta_e
307 306 307 307 308 308 308 308 307 307 307 307 307 307 308 307 307 303 296 302 297 293 294 297 297 294 293 292 289 292 293 298 298 295 295 294 293 298 299 302 301 300 300 299 298 295 293 310 311 304 309 310 312 313
307 307 307 307 307 307 307 307 307 307 307 306 307 307 307 307 307 306 295 298 304 295 294 299 299 301 299 298 293 293 290 292 300 294 296 296 297 298 298 298 307 301 306 303 300 300 308 311 308 311 313 312 312 311
307 307 308 307 307 307 307 307 307 307 306 306 306 307 307 307 307 305 296 295 295 295 294 293 293 299 302 301 302 291 294 297 299 298 295 297 297 300 296 299 304 309 309 306 305 307 308 308 311 311 312 312 313 314
306 306 306 306 307 306 306 307 306 306 306 306 306 306 306 307 307 306 297 297 297 295 289 290 299 297 301 300 301 300 297 297 298 300 295 295 296 300 298 303 303 306 309 306 305 307 310 309 311 312 312 312 311 312
306 306 306 306 306 306 306 306 306 306 305 305 306 306 306 307 307 305 298 299 299 293 289 289 296 298 299 298 299 299 296 294 294 293 295 295 298 298 300 303 301 303 304 303 301 308 307 306 310 314 309 309 310 310
306 306 307 306 306 306 306 306 306 306 305 305 306 307 307 307 306 296 294 297 299 300 294 286 293 295 298 297 297 295 295 295 296 291 292 298 298 300 299 299 303 306 311 308 305 306 307 308 309 310 307 306 308 308
306 307 307 306 306 306 306 306 306 305 304 305 306 306 307 307 299 292 294 299 304 301 294 288 288 296 298 296 297 295 294 295 294 291 293 296 296 302 299 295 302 305 308 309 310 310 305 306 305 306 307 307 308 307
306 306 306 305 305 305 306 305 305 304 305 304 305 306 307 307 303 295 299 305 304 296 294 286 288 291 295 292 292 295 293 292 292 293 293 295 300 302 296 300 302 306 306 306 307 308 307 309 308 307 307 307 305 304
306 305 305 305 305 305 305 305 305 304 304 305 305 305 299 297 292 297 308 306 298 294 290 292 288 288 295 291 293 295 294 290 293 294 298 300 298 295 299 300 302 303 302 303 306 307 307 305 305 306 305 304 303 305
306 305 305 305 305 305 305 304 304 305 305 304 297 296 292 297 308 306 296 292 291 292 291 287 292 288 291 293 292 293 292 290 288 292 302 300 299 303 303 304 304 304 304 304 303 302 303 303 304 304 304 304 306 307
305 305 305 306 305 305 305 305 305 305 302 297 295 295 300 305 296 293 292 291 291 289 291 292 291 289 296 293 293 295 290 289 289 294 297 298 297 301 304 305 305 306 307 305 305 305 304 305 305 305 306 307 307 307
306 306 306 306 306 306 305 306 306 301 300 300 299 299 297 294 289 287 285 288 290 289 293 292 291 293 294 295 293 294 291 291 287 297 296 295 300 303 304 305 305 305 307 307 308 307 309 309 308 308 308 308 308 309
307 306 306 306 306 306 306 305 306 306 304 298 294 288 288 286 284 286 285 289 288 292 295 292 290 294 296 294 294 294 291 289 298 297 294 298 303 305 304 304 305 306 307 307 308 310 309 308 309 309 308 308 308 308
306 306 307 306 306 306 306 306 305 303 296 291 289 285 287 285 290 291 292 292 295 296 295 294 294 293 295 293 293 292 292 297 293 292 292 300 303 305 304 304 303 303 305 305 306 307 307 306 307 307 307 308 307 307
306 306 306 305 306 305 305 306 306 299 293 290 290 286 287 293 296 296 297 296 297 298 296 295 295 294 293 293 293 294 292 291 294 294 299 302 303 303 303 305 304 304 304 303 304 304 305 306 305 305 307 306 309 308
304 302 301 306 306 306 305 303 299 297 294 293 293 292 294 293 293 295 295 295 298 296 296 294 291 290 289 291 293 292 292 290 295 299 301 302 301 302 303 304 305 305 304 304 303 304 304 304 304 304 305 307 308 309
303 296 305 307 306 306 304 297 296 295 294 294 293 296 295 293 292 294 295 295 297 294 291 293 290 288 291 291 291 296 294 297 299 300 300 300 300 301 302 303 304 304 303 303 303 304 304 305 304 303 303 305 309 311
296 299 305 306 305 300 297 297 295 295 292 295 292 294 296 293 291 293 296 296 295 294 294 292 294 292 291 290 292 296 296 298 298 298 300 301 302 303 304 303 304 304 303 303 303 303 304 303 302 302 302 304 305 308
299 301 305 307 304 296 294 294 294 288 290 292 294 294 292 293 293 294 295 297 295 296 294 294 292 292 292 295 294 295 296 297 298 299 300 302 302 304 306 305 305 306 305 303 302 301 302 303 302 302 303 304 304 305
306 307 307 308 304 293 291 289 295 290 288 290 291 291 291 291 292 294 294 295 292 292 292 292 292 293 294 296 297 298 299 300 299 299 298 302 305 306 306 304 304 304 303 303 302 299 300 301 301 301 302 303 304 304
302 302 306 302 296 294 291 290 289 289 289 288 289 289 289 292 292 291 290 293 291 288 291 294 296 297 298 299 299 300 300 300 299 300 302 302 306 306 305 306 303 302 301 299 298 297 297 297 298 299 300 301 301 302
298 306 297 299 293 292 290 292 289 290 288 288 289 289 288 289 290 289 290 290 290 292 293 294 294 295 296 297 298 301 303 305 305 305 301 302 303 305 302 299 296 293 293 294 295 295 295 296 298 299 300 300 300 301
303 300 295 294 288 286 285 292 289 289 286 288 288 286 287 289 291 292 288 289 291 293 295 298 301 302 300 301 304 306 308 308 306 306 305 305 304 296 293 293 293 293 292 293 293 294 295 295 296 297 298 298 298 298
303 294 289 288 289 287 293 291 291 291 290 290 289 287 290 292 295 294 292 296 298 301 303 305 306 305 306 306 305 303 304 304 302 300 301 299 293 293 293 293 293 293 293 293 293 293 294 296 294 296 296 296 297 296
289 288 289 285 286 288 288 288 291 291 289 291 288 288 291 295 292 293 294 298 299 300 302 303 303 304 303 303 303 301 300 302 299 294 296 300 294 292 292 293 293 293 294 293 292 293 294 295 295 295 296 297 298 299
287 288 287 287 286 287 288 289 288 288 290 289 291 294 292 294 294 293 295 299 301 301 303 302 301 300 297 298 296 295 295 294 294 294 294 294 293 293 292 291 291 292 294 293 293 293 294 295 294 295 295 298 295 298
290 294 295 292 291 291 291 293 294 291 291 290 291 292 293 290 292 296 300 301 300 301 303 303 302 298 297 295 295 295 295 295 295 295 294 293 294 294 294 292 292 292 293 294 293 293 294 294 293 294 293 296 298 298
297 297 294 294 294 295 293 294 294 293 294 296 296 293 293 293 293 298 299 302 301 298 297 297 296 296 295 295 295 295 296 296 296 296 295 295 294 293 293 293 293 291 292 292 293 295 294 294 293 293 293 292 294 298
296 299 298 293 294 295 295 293 292 294 295 296 294 294 295 300 300 300 300 298 298 298 296 295 295 295 295 295 295 293 293 293 292 291 290 289 289 291 292 291 291 291 292 293 292 293 293 293 292 293 293 293 293 293
297 298 296 297 295 294 297 296 295 297 298 299 299 298 298 299 300 301 299 298 297 295 294 294 293 292 291 291 291 292 291 290 290 289 288 288 289 290 290 290 290 291 292 292 291 292 292 292 291 291 291 291 292 291
300 300 298 298 296 298 301 304 302 300 301 301 301 300 299 299 302 305 303 299 297 297 295 292 292 292 291 291 290 289 289 291 290 291 291 290 290 290 291 290 290 291 291 290 289 289 289 289 288 287 287 286 287 287
300 300 300 297 298 302 304 301 299 300 302 303 304 305 304 302 298 303 306 304 299 295 294 293 291 290 290 290 290 290 290 289 290 290 290 290 289 289 289 289 288 288 287 286 286 286 285 286 286 285 284 284 284 284
299 300 301 300 298 299 301 300 301 301 302 302 302 303 303 300 297 304 310 306 299 294 292 291 291 290 289 289 289 289 289 289 289 289 288 288 288 287 286 286 287 286 286 285 285 285 284 284 283 283 283 283 283 284

GFSWCAN_sfc_thetae_003.txt.gz
Theta_e
306 306 306 307 307 307 307 307 307 307 307 307 307 307 307 307 307 305 302 303 299 293 293 295 296 293 295 295 290 293 293 298 302 302 302 302 300 305 305 309 307 305 302 302 306 302 300 315 316 311 316 319 319 320
306 306 306 306 307 307 307 307 307 307 307 308 307 306 306 306 306 307 299 303 305 296 293 299 299 300 299 299 295 295 293 293 298 298 302 303 305 307 306 301 311 303 308 303 308 307 314 315 315 320 322 320 321 322
306 306 306 306 306 306 306 307 307 307 307 307 306 306 306 306 306 306 301 301 299 294 294 294 293 299 302 301 302 292 295 299 303 303 301 302 302 309 306 307 307 312 316 309 308 312 311 314 317 319 322 321 323 326
306 306 306 306 306 306 306 306 306 307 306 306 306 306 305 305 306 306 302 302 300 295 288 291 301 298 303 302 301 301 300 301 300 304 301 301 302 308 307 310 310 308 310 310 311 313 312 313 315 316 318 319 319 321
306 306 306 307 307 306 306 306 307 306 305 305 305 306 305 306 306 307 305 302 302 294 288 289 296 301 302 301 300 301 299 298 296 299 298 299 304 305 309 311 302 305 306 309 307 313 313 313 315 314 312 313 316 317
307 307 307 307 306 306 306 306 306 306 304 305 306 306 305 306 306 301 295 301 303 302 291 287 298 298 302 301 300 299 299 298 298 298 299 301 304 307 308 301 303 308 310 313 309 313 310 311 311 313 313 313 314 314
306 306 306 306 306 306 306 306 305 305 304 305 305 306 306 307 304 297 293 299 302 302 293 290 291 300 302 301 300 299 300 300 301 299 297 303 303 309 303 296 303 308 309 311 312 311 307 309 308 311 311 312 312 312
306 306 306 305 306 306 306 306 305 305 305 305 305 306 306 306 304 298 302 305 304 295 295 289 291 296 302 299 298 301 299 299 299 299 302 304 305 307 297 302 305 307 308 308 309 310 310 312 310 308 310 312 311 311
306 305 305 306 306 305 305 305 305 305 304 305 306 305 303 301 296 299 308 306 305 297 291 293 291 293 302 298 299 300 301 296 300 304 305 306 302 296 301 303 304 305 304 306 308 309 309 308 309 309 310 312 310 311
305 305 305 306 306 305 305 305 305 305 305 304 302 299 295 300 307 307 303 297 296 297 296 290 295 292 297 300 299 299 301 298 300 303 308 302 298 305 306 306 307 307 308 308 306 306 307 307 308 310 311 312 313 313
307 307 307 306 306 306 306 306 306 306 304 302 297 296 303 306 301 299 294 293 295 293 296 296 296 294 301 298 298 301 297 298 297 301 302 298 297 302 307 308 309 309 310 310 311 312 312 312 311 311 311 313 314 315
307 306 307 307 306 306 306 306 306 304 303 301 301 303 302 298 295 291 291 293 293 292 298 297 298 299 301 301 299 301 297 298 294 305 301 294 300 307 307 307 309 310 311 312 313 311 311 311 312 312 312 313 314 315
306 307 306 306 306 306 306 306 306 306 305 303 298 294 293 293 288 287 288 292 293 298 300 299 298 300 304 301 300 300 296 296 304 299 295 299 305 307 308 308 308 310 311 311 311 311 311 311 312 312 312 314 315 314
306 306 306 306 306 306 306 306 306 305 301 295 292 287 289 289 291 292 293 295 299 301 300 298 298 298 301 299 300 296 298 301 295 291 291 301 305 307 309 309 309 309 309 309 310 311 310 310 310 312 313 314 315 314
305 305 305 305 306 306 306 306 305 304 298 293 290 285 286 293 297 299 300 300 301 303 301 300 300 301 299 298 299 298 295 293 295 293 297 305 307 309 310 311 311 310 310 310 310 310 311 310 311 311 313 315 316 316
305 303 303 306 307 306 306 304 303 303 298 295 295 293 296 295 296 298 299 298 301 300 303 301 297 295 293 297 296 294 293 289 295 301 305 308 308 310 311 312 311 312 312 312 312 312 312 312 312 312 313 315 316 317
303 302 305 305 306 306 304 302 302 299 297 296 295 299 298 297 296 297 299 299 302 301 297 299 294 291 298 295 294 298 291 295 302 305 308 309 310 310 311 312 312 312 312 311 311 312 313 313 312 312 312 313 314 315
302 304 304 306 307 303 303 302 300 298 295 298 294 297 298 300 298 299 299 301 300 300 300 297 300 295 293 291 293 298 302 305 307 308 309 310 311 312 312 311 312 312 313 313 312 312 313 314 313 311 313 314 314 315
305 306 307 307 306 302 298 299 299 294 295 296 297 298 298 299 300 300 301 301 300 302 302 300 296 294 295 299 300 303 305 306 305 307 307 309 311 312 313 313 313 313 310 310 311 310 310 312 310 310 311 312 311 312
306 306 307 307 306 301 297 297 301 296 294 297 297 296 296 298 299 300 300 300 298 302 300 297 297 300 301 303 305 305 306 307 307 306 306 309 311 312 312 311 310 310 308 308 306 301 307 307 308 308 308 308 309 309
305 306 307 306 304 301 299 297 297 297 297 296 297 297 297 299 298 297 298 299 300 297 298 301 302 304 305 306 306 307 308 308 308 309 307 306 308 309 306 303 303 302 300 300 302 302 301 302 304 305 306 307 307 308
304 306 304 303 298 297 297 298 296 298 296 296 297 297 296 295 296 298 298 298 298 299 301 302 303 304 306 307 308 307 309 310 312 311 303 305 307 302 301 300 301 300 299 300 300 300 301 302 302 303 303 303 303 305
305 303 301 299 294 292 292 299 295 296 292 293 296 293 294 296 299 302 296 298 297 299 301 302 305 308 307 309 312 313 313 313 313 313 313 312 304 300 300 300 301 300 299 299 300 300 300 298 300 301 302 303 303 304
304 299 295 293 293 290 296 294 295 294 294 292 291 288 292 294 298 298 295 299 305 306 308 309 311 313 314 312 309 309 309 312 308 309 311 302 300 300 302 302 301 300 300 300 299 299 300 301 297 300 301 302 304 305
292 291 293 287 293 292 292 292 293 294 292 294 292 295 296 299 297 298 298 303 306 307 309 309 309 309 307 304 304 303 305 304 303 304 309 305 303 302 302 302 302 300 300 298 297 298 299 300 300 299 299 301 302 301
288 294 291 294 294 292 295 293 294 294 294 294 296 299 299 298 296 295 301 304 306 307 308 308 304 302 301 302 301 301 302 303 304 302 303 303 302 300 300 298 298 298 299 299 298 298 299 299 299 299 298 298 295 299
292 297 300 299 298 297 297 298 299 297 295 295 298 298 298 294 294 301 307 307 305 305 306 306 304 302 301 300 302 302 303 303 302 302 302 302 301 300 299 297 296 296 298 299 299 299 299 299 298 298 298 299 299 298
300 299 297 301 297 298 297 299 298 297 298 302 300 296 296 297 296 301 302 302 302 303 302 302 301 302 301 300 300 299 299 300 302 303 302 301 299 298 298 299 299 292 298 297 299 299 299 298 297 297 297 297 298 299
299 303 301 300 298 300 300 299 298 300 302 302 299 298 299 299 300 300 302 302 303 301 299 298 299 301 301 301 299 298 297 297 296 294 294 294 295 296 298 298 298 298 298 298 291 292 293 293 293 293 294 294 295 296
303 305 302 301 299 300 304 303 302 303 304 303 301 302 302 304 306 307 303 301 299 297 298 298 298 297 296 296 296 297 297 297 296 294 292 292 293 295 296 295 295 294 294 294 293 293 291 292 291 292 291 290 290 289
308 306 303 303 302 304 307 310 308 307 305 303 304 302 301 303 305 307 306 305 301 299 298 296 295 294 294 293 293 293 293 295 296 296 296 295 295 293 292 292 292 292 291 291 290 289 288 288 288 288 287 287 287 287
307 305 304 302 304 309 310 307 306 304 305 302 300 303 303 301 298 302 309 307 302 297 295 295 293 292 294 294 294 294 290 293 293 292 292 291 291 291 291 291 290 290 289 289 288 288 287 286 286 286 286 286 286 286
305 307 307 305 305 304 307 306 305 303 303 300 301 303 302 302 298 305 303 300 297 296 296 295 294 294 293 293 293 292 291 291 289 288 288 287 287 287 289 289 289 288 288 287 287 287 286 286 286 286 286 286 286 286

GFSWCAN_sfc_thetae_006.txt.gz
Theta_e
307 307 307 307 307 307 307 307 308 308 308 308 308 308 308 307 306 304 302 306 298 292 294 299 299 293 294 297 293 297 294 298 299 300 301 301 302 304 304 309 310 308 306 305 308 305 302 318 318 313 321 326 326 326
307 307 307 307 307 307 307 306 307 307 307 308 307 307 307 306 305 305 299 308 308 296 295 302 302 303 301 299 296 297 295 295 297 299 305 306 307 310 306 301 315 306 311 308 310 309 318 320 318 322 327 324 327 329
307 307 307 307 307 307 307 306 307 307 307 307 307 307 306 305 305 305 302 305 302 296 296 298 298 303 305 303 305 295 297 298 301 303 300 304 303 311 306 308 311 314 318 313 314 316 317 318 321 323 325 326 328 329
307 307 307 308 308 307 307 307 306 307 307 306 306 306 306 305 305 305 302 305 302 297 290 295 304 301 304 306 303 303 301 303 302 303 302 301 305 312 311 314 314 314 317 315 313 316 317 319 320 321 322 325 327 329
307 307 307 307 307 307 307 307 307 306 305 305 305 306 305 306 306 307 307 306 306 297 291 293 299 304 306 303 303 303 301 297 298 299 300 301 307 308 314 314 305 308 311 313 310 317 315 310 315 317 318 319 322 324
307 307 307 307 306 306 306 307 307 306 305 305 305 306 305 305 305 304 297 304 306 303 293 290 301 302 306 305 302 302 302 300 300 300 303 301 308 308 305 301 305 309 315 317 316 318 312 310 312 315 315 316 318 319
307 306 307 307 307 307 307 307 306 305 305 306 306 306 306 306 305 299 296 302 304 305 293 290 296 305 306 305 304 303 304 303 302 304 300 300 307 310 302 298 306 310 314 315 316 312 308 310 308 313 315 315 314 317
306 306 306 306 306 306 305 306 306 305 305 305 305 306 306 306 305 300 306 305 305 299 296 290 294 300 306 302 300 304 301 301 304 303 303 302 307 306 298 303 307 309 310 309 309 312 311 311 312 312 314 315 313 312
307 306 307 307 307 306 306 306 306 306 306 306 306 305 306 303 299 303 305 307 305 297 291 293 292 293 307 304 304 303 303 297 305 302 306 307 301 297 301 304 305 308 308 309 310 310 310 310 311 311 312 313 314 314
307 307 307 307 307 306 306 307 307 307 307 306 305 302 298 304 307 308 303 299 298 297 297 294 300 296 301 305 301 301 303 297 297 305 309 301 298 305 306 308 308 308 309 310 305 304 307 308 310 311 312 313 314 315
307 307 307 307 307 307 307 307 306 306 307 304 299 299 306 309 306 303 296 294 297 294 299 299 300 298 306 301 303 307 302 302 295 302 301 297 294 302 307 308 310 311 311 312 312 312 313 312 312 312 312 315 316 317
307 307 307 307 307 307 307 307 306 306 304 303 302 304 306 303 300 294 294 296 293 294 301 300 300 301 302 306 303 306 301 302 296 307 301 292 297 304 306 309 310 312 311 313 312 311 312 313 313 313 313 313 315 317
306 306 306 307 307 307 307 307 306 306 306 308 302 298 298 299 289 290 289 293 295 300 303 303 300 303 306 306 304 304 298 299 306 300 296 298 304 306 308 309 310 312 312 311 310 311 312 313 314 314 314 316 315 315
306 306 306 306 306 307 307 307 307 306 305 298 294 287 288 288 292 294 295 298 303 304 304 305 303 302 306 302 303 298 303 306 297 293 293 301 306 308 309 310 310 309 310 310 311 311 311 313 313 316 317 317 318 318
306 306 306 306 306 307 307 306 305 309 303 293 291 285 289 294 298 301 303 304 306 307 306 305 304 303 302 301 302 301 298 294 294 292 300 309 310 311 311 311 311 312 312 311 312 313 313 313 313 314 318 320 320 320
306 305 307 305 306 307 307 307 310 310 303 300 297 294 299 297 299 301 302 303 307 306 308 306 300 298 299 301 297 296 294 290 295 299 306 312 313 313 314 314 315 315 314 314 314 314 314 314 315 315 317 317 319 321
306 306 307 307 307 308 306 309 309 303 302 299 298 303 302 301 300 300 302 303 308 306 301 302 297 296 303 296 293 294 289 291 303 307 311 313 313 314 316 316 316 316 316 316 316 316 317 317 316 315 315 317 317 319
307 308 308 307 308 310 311 309 306 302 297 300 297 299 302 303 302 302 304 305 305 305 304 300 303 296 294 291 293 299 302 306 310 313 314 314 316 317 317 317 317 318 317 317 317 317 317 316 313 312 315 317 315 315
307 308 307 307 308 307 304 305 306 298 299 301 301 302 303 303 305 306 306 306 307 309 307 302 298 296 297 302 302 306 307 310 310 311 313 316 318 317 318 318 318 316 315 314 312 312 313 315 313 312 312 313 312 313
307 307 308 308 308 307 300 303 308 300 297 300 302 301 303 303 305 305 306 306 306 304 301 298 299 302 303 305 307 308 310 312 314 311 312 316 314 315 314 313 311 311 310 311 309 303 309 309 310 310 311 311 311 311
308 310 308 309 309 307 304 302 302 303 302 300 302 303 302 305 303 303 303 306 303 301 299 303 304 306 311 311 311 311 313 314 313 313 312 307 307 308 308 308 308 307 307 306 306 306 304 305 306 307 308 308 308 309
310 307 308 309 304 303 304 304 301 303 302 302 302 303 301 300 302 303 306 303 303 304 306 307 310 311 312 313 314 315 316 316 316 315 305 308 307 307 307 306 306 305 304 304 304 303 304 304 304 304 305 305 304 307
307 307 307 304 299 296 297 305 300 300 296 299 302 299 297 298 301 306 298 302 303 310 308 312 313 315 316 316 316 316 315 315 315 316 317 315 307 306 306 306 305 304 303 303 305 304 303 299 302 303 304 304 305 306
305 303 300 299 299 297 304 301 305 303 303 300 294 293 296 301 305 300 298 302 309 314 314 313 316 313 312 312 306 306 307 308 307 309 310 308 307 307 307 306 307 305 305 305 304 304 303 303 299 302 302 302 304 304
296 294 298 292 302 300 299 300 300 302 298 300 298 300 302 305 299 299 299 305 311 312 313 311 307 306 304 305 305 305 308 306 304 304 307 307 307 307 307 308 307 305 304 302 301 301 301 302 302 302 302 301 301 301
291 300 296 302 303 301 301 300 301 300 301 300 301 306 307 304 297 297 302 306 308 307 306 305 304 303 302 303 302 301 302 304 304 303 304 305 305 304 303 302 302 302 302 302 301 300 300 301 301 301 301 300 296 300
297 303 307 308 304 303 304 306 306 303 300 300 303 303 302 295 296 301 304 304 303 304 306 306 305 303 302 301 302 302 303 303 304 304 305 304 303 302 301 299 298 299 302 302 301 301 300 300 300 300 300 300 301 300
307 306 303 307 305 306 302 303 301 299 301 307 304 299 297 298 296 302 302 305 306 306 305 305 305 304 303 302 301 301 300 301 302 302 303 304 303 302 301 301 302 294 301 300 299 299 298 297 297 297 297 296 297 297
307 311 308 305 305 305 306 304 302 304 306 306 303 300 298 301 303 301 302 304 305 304 302 301 301 303 302 301 301 301 300 299 297 295 294 295 296 297 299 299 298 298 298 297 290 292 293 293 294 293 294 294 294 295
308 312 306 305 303 303 308 310 306 307 306 306 305 302 302 303 305 308 306 305 305 304 302 300 300 299 298 297 296 297 299 298 298 295 294 293 294 296 296 295 295 295 295 294 294 294 291 292 292 293 292 292 292 291
313 311 308 307 306 309 311 310 310 309 308 304 304 301 300 303 305 309 308 306 303 302 301 300 299 298 296 295 294 294 293 296 296 296 294 295 294 294 294 294 294 294 293 293 292 291 291 290 290 290 290 289 289 288
311 308 307 303 306 313 314 311 309 303 303 300 301 307 306 305 302 307 304 304 302 300 297 298 296 295 296 296 296 296 291 294 293 292 291 291 291 291 292 292 292 292 292 291 291 290 290 289 289 288 287 287 288 288
309 308 307 305 304 304 309 310 307 305 304 303 306 307 307 304 300 306 305 303 300 299 298 298 297 296 296 295 295 295 293 295 290 287 287 286 286 287 290 290 290 291 290 290 290 290 289 288 288 287 287 288 288 288

GFSWCAN_sfc_thetae_009.txt.gz
Theta_e
308 308 308 308 308 308 308 308 308 307 308 309 308 308 308 308 307 307 306 310 299 293 294 299 299 297 294 297 291 297 298 297 297 294 295 296 296 299 300 305 305 303 304 304 307 303 301 322 321 314 323 328 329 329
308 308 308 308 309 309 308 308 308 307 308 308 308 308 308 307 307 307 302 307 305 296 296 304 304 304 303 302 299 299 297 296 300 299 302 301 301 305 304 299 311 304 309 307 309 310 325 326 323 327 328 328 329 330
308 308 308 308 309 309 308 308 308 308 308 308 307 307 307 307 307 307 302 306 303 296 298 299 299 306 307 305 305 295 299 301 301 304 299 300 300 308 304 304 309 312 317 314 316 320 322 324 327 327 329 329 329 331
308 308 308 308 308 308 308 307 308 308 308 307 306 306 306 306 306 306 304 306 302 298 292 296 306 303 306 307 305 304 303 306 305 304 299 301 300 308 305 307 315 310 311 316 318 321 322 323 325 327 328 330 330 334
308 308 307 308 308 308 308 308 308 307 306 306 306 306 307 306 306 306 306 308 307 297 292 295 302 306 306 304 305 304 303 302 300 298 298 301 306 305 310 312 302 308 307 312 312 322 321 319 322 325 324 324 327 329
308 308 308 308 308 308 307 307 307 307 306 306 307 307 307 307 307 306 299 307 308 308 297 291 304 304 308 305 305 304 304 303 302 297 299 306 309 307 303 302 308 312 315 321 316 322 317 317 318 318 319 321 321 323
308 308 308 308 308 308 307 307 307 306 306 306 306 306 307 307 305 302 298 302 304 306 294 291 296 304 309 306 305 305 307 303 303 299 301 305 304 304 303 299 308 312 316 317 321 319 315 315 311 316 317 316 315 317
308 308 308 308 308 307 308 307 308 307 307 307 307 307 307 307 306 301 306 306 304 300 297 290 294 303 309 303 302 307 302 301 303 300 306 301 303 306 298 304 308 310 312 313 314 318 316 317 315 312 313 314 313 314
308 308 308 308 308 307 307 308 308 308 308 308 308 307 307 305 300 307 306 305 304 298 291 292 290 291 308 303 304 303 304 298 304 301 304 304 299 296 301 303 306 309 307 309 313 313 313 310 308 309 312 311 313 315
308 308 307 308 308 308 308 308 308 307 307 309 307 302 302 305 306 310 306 299 298 299 296 293 301 296 304 303 300 301 303 298 297 301 305 299 297 303 306 307 309 309 308 309 307 307 308 307 308 311 308 310 314 314
307 307 307 308 308 308 308 308 308 307 309 306 302 302 308 311 308 304 297 296 297 294 299 302 303 302 307 301 299 305 301 301 294 296 299 294 294 301 306 307 310 311 312 310 310 311 312 313 312 309 312 314 315 316
307 307 307 307 307 308 307 308 308 308 307 304 303 306 308 304 300 296 295 298 296 292 301 299 303 304 304 308 305 305 300 300 294 304 296 291 297 305 307 306 309 312 312 311 312 313 314 314 315 315 315 315 316 317
307 307 307 307 307 307 307 308 308 308 307 308 304 300 298 301 290 290 289 293 295 302 304 304 302 306 308 307 302 302 298 298 305 298 292 295 302 306 308 310 311 312 311 311 310 312 313 313 316 317 316 318 318 319
307 307 307 307 307 307 308 308 307 308 307 301 297 289 290 291 294 297 297 299 306 306 306 307 305 305 306 303 305 297 302 302 295 291 293 299 304 306 311 311 310 310 312 312 311 311 312 314 314 317 318 319 318 319
307 307 307 308 308 308 308 308 307 312 305 295 294 286 293 298 301 303 304 306 306 308 308 304 306 305 303 302 303 301 297 292 292 294 299 304 309 309 310 311 311 312 312 312 312 311 312 313 314 316 318 318 320 321
307 307 310 308 308 307 307 310 314 313 309 302 299 296 302 300 300 301 304 304 309 309 309 306 303 301 300 300 296 293 293 289 292 301 306 309 310 311 312 313 314 314 314 313 313 314 314 314 315 315 316 316 317 319
306 310 308 308 307 307 310 312 314 306 305 300 299 303 301 301 302 305 307 307 311 308 303 304 298 297 302 296 293 293 290 294 301 305 311 310 312 314 314 315 316 315 316 315 315 316 316 316 316 315 314 316 316 318
308 311 308 308 308 311 316 313 308 304 298 301 299 301 304 305 305 307 308 310 309 308 307 303 305 299 297 293 294 301 303 307 309 311 314 316 317 316 318 317 317 317 317 316 316 316 317 315 313 311 314 316 316 315
308 309 308 308 309 309 307 307 309 300 301 303 304 305 304 305 308 309 309 311 311 311 308 306 300 298 300 304 305 308 311 313 312 315 317 318 318 318 317 317 317 315 314 314 314 312 312 314 313 312 312 313 312 312
307 308 308 309 310 310 303 306 311 303 300 303 305 304 305 305 307 308 308 308 308 306 303 299 300 303 304 309 312 313 316 317 316 313 311 314 313 314 314 313 312 314 312 313 311 304 311 310 310 310 310 310 310 310
310 312 310 312 314 311 308 306 305 305 305 303 306 305 303 307 306 306 307 310 306 304 302 307 309 312 315 316 317 316 316 316 314 313 311 306 309 311 311 311 311 310 309 308 307 307 305 306 307 307 307 308 307 308
313 309 313 315 310 309 309 309 306 307 303 304 306 306 301 301 303 305 309 305 303 306 309 311 314 315 314 314 316 316 318 317 318 316 308 311 310 309 308 308 308 308 307 306 306 305 305 306 306 305 306 305 305 308
309 311 313 311 305 302 303 313 304 305 301 303 306 302 301 303 304 308 300 304 306 309 315 315 314 316 314 312 313 311 314 314 309 310 311 311 310 310 309 309 308 306 305 306 307 306 305 301 303 304 305 305 305 306
305 308 305 305 307 301 310 307 311 308 307 305 303 299 303 306 312 304 300 304 309 316 313 314 310 309 309 313 306 306 306 307 307 308 309 307 307 308 310 309 308 307 306 306 306 305 304 304 300 304 305 304 304 303
301 300 306 296 310 305 302 302 303 305 300 303 301 302 305 310 301 300 299 304 309 307 307 309 308 307 305 305 305 305 307 305 304 304 306 307 306 306 307 307 306 305 306 304 303 303 303 303 303 303 303 303 302 302
295 306 300 306 307 304 304 300 301 302 303 301 302 308 310 306 299 297 298 303 303 305 305 305 305 304 304 304 302 301 302 304 305 303 304 305 304 303 302 302 302 302 304 304 302 301 301 301 301 301 301 301 297 300
299 305 313 316 310 309 307 310 310 306 300 300 304 303 301 297 295 297 302 304 303 305 306 306 305 304 303 303 304 303 303 303 303 303 305 306 305 303 302 300 299 299 302 301 300 299 298 297 297 297 298 298 299 298
310 310 306 310 310 313 305 304 302 301 303 307 304 300 297 296 294 299 302 306 308 307 306 307 306 304 304 303 303 302 302 302 303 303 303 304 304 302 302 301 300 294 299 298 297 297 296 295 294 294 295 295 296 297
310 313 312 308 307 306 306 304 303 307 309 307 304 298 297 302 303 302 304 306 308 306 304 302 302 304 303 302 302 301 301 299 297 295 295 295 296 296 298 298 298 297 297 297 291 293 294 293 294 294 294 295 295 295
308 314 308 307 306 305 308 309 308 310 309 308 305 301 300 302 306 311 312 311 307 304 304 304 303 301 298 297 297 298 299 298 297 294 291 292 293 295 296 296 296 296 296 296 295 295 292 294 294 295 293 293 292 291
311 309 307 307 307 310 310 311 312 311 309 306 306 302 301 306 309 311 308 307 306 305 303 300 299 299 297 296 296 294 294 296 295 294 293 293 293 293 294 295 295 295 295 294 294 293 293 292 292 291 291 290 290 290
310 306 306 302 306 312 313 310 310 307 308 306 305 307 304 304 301 304 306 305 303 301 298 299 297 296 298 298 298 297 291 297 295 294 292 291 291 292 293 293 294 294 293 293 293 293 292 291 291 290 290 289 289 288
309 308 308 306 306 303 310 311 308 305 305 305 306 310 306 304 300 305 308 306 303 301 300 299 299 299 299 297 297 296 295 296 290 287 287 286 285 287 291 293 293 293 293 293 293 292 291 290 289 289 289 288 288 288

GFSWCAN_sfc_thetae_012.txt.gz
Theta_e
309 309 309 309 310 310 310 309 309 309 308 308 309 309 309 309 309 308 305 311 300 293 294 298 299 296 295 294 290 295 292 300 296 291 290 291 291 296 298 304 303 301 300 302 307 303 300 320 318 311 323 327 326 326
309 309 309 309 309 309 309 309 308 308 308 308 308 309 308 308 307 307 302 310 308 298 296 301 303 305 302 300 297 297 295 295 300 295 298 298 295 299 299 295 306 300 305 302 307 308 322 328 326 328 329 327 328 328
309 309 309 309 309 309 309 309 309 308 308 308 308 307 307 307 307 307 305 308 303 296 297 299 299 305 307 306 305 295 297 300 300 306 300 300 298 304 298 301 306 309 311 307 308 317 322 324 325 328 329 329 331 336
309 308 308 309 309 309 309 309 309 309 308 308 307 307 307 307 307 307 305 307 303 297 291 294 305 303 307 307 305 304 301 303 305 304 298 298 299 305 299 301 304 310 312 312 312 323 324 326 328 329 330 333 334 334
309 309 309 309 309 309 308 308 308 308 307 307 307 307 308 307 308 306 308 307 306 296 291 294 301 305 307 306 304 305 302 300 299 296 299 298 305 303 306 305 301 309 309 307 313 315 323 322 326 328 326 327 329 328
309 309 309 309 309 309 308 308 308 308 307 307 307 307 307 308 309 305 298 309 311 305 295 290 301 302 307 305 302 303 302 301 299 299 299 300 308 303 299 300 309 312 318 320 310 313 314 318 318 324 323 323 324 324
308 308 309 309 309 309 308 309 309 308 308 308 308 308 307 308 306 302 298 303 305 306 296 291 295 305 306 304 304 303 304 302 303 301 298 298 304 304 302 297 307 311 313 315 316 314 309 312 313 317 318 319 318 320
308 308 308 308 309 308 308 308 308 309 309 309 309 309 309 308 306 302 307 307 305 300 297 290 292 296 308 301 300 306 301 302 302 301 300 303 305 304 299 304 309 309 313 314 315 315 314 314 315 315 316 318 316 316
308 308 308 308 308 308 308 308 309 309 309 309 309 310 308 305 301 308 307 307 307 299 291 293 289 293 304 303 304 303 303 295 305 298 301 303 296 295 301 305 306 308 309 310 312 313 313 311 310 312 313 314 314 312
308 308 308 308 308 308 308 308 308 308 308 309 309 305 302 308 310 310 304 300 297 298 296 292 298 294 301 301 300 300 302 298 295 299 304 297 295 303 306 306 307 308 309 312 307 305 306 305 308 312 310 313 311 314
308 308 307 307 308 308 308 307 308 308 309 308 303 302 307 314 308 302 297 295 296 293 297 299 302 300 308 300 301 305 300 302 293 295 297 293 292 300 306 308 309 309 309 310 312 313 312 310 308 307 308 311 313 316
308 308 308 308 308 308 307 307 308 309 307 304 303 307 308 305 301 294 292 293 292 288 296 300 303 304 304 308 301 302 298 300 290 302 295 288 296 304 306 307 309 312 312 312 314 313 314 315 314 312 311 313 315 317
307 307 307 308 308 308 308 308 309 308 308 310 306 303 301 302 291 292 290 294 295 299 305 306 302 303 306 307 302 300 295 295 303 295 291 293 299 305 309 309 309 310 311 312 311 312 315 315 316 317 314 315 318 317
307 307 307 308 308 309 308 308 309 310 308 302 298 291 293 292 293 296 298 301 305 303 303 305 307 300 303 301 303 295 299 302 295 291 291 299 304 308 311 311 310 310 312 311 311 313 314 316 315 316 317 319 319 318
307 307 307 309 309 308 308 308 309 313 308 301 301 292 297 302 304 305 306 304 307 309 308 306 306 305 303 301 303 299 296 291 292 294 298 304 308 311 311 311 312 311 311 312 312 312 313 314 313 315 316 318 319 321
307 307 311 308 308 308 307 312 314 316 312 308 304 299 302 301 301 304 305 304 310 308 309 308 302 299 297 299 294 291 291 288 292 300 305 309 311 311 312 313 314 314 314 313 314 316 315 316 315 316 316 317 318 320
306 311 308 308 308 307 310 312 314 306 304 301 299 304 303 303 302 304 307 308 311 309 303 303 297 296 300 293 290 293 291 296 301 304 307 308 309 311 313 312 314 314 314 315 316 316 314 318 318 317 318 317 318 321
310 312 310 308 308 312 315 312 309 304 299 303 301 303 305 307 306 307 308 309 308 307 307 302 304 297 294 292 293 299 303 307 308 309 311 314 315 316 317 315 319 318 316 313 313 317 315 314 311 310 315 317 316 314
308 309 307 308 309 309 308 307 309 300 302 304 305 307 307 308 310 311 311 311 313 312 308 305 299 298 299 304 305 307 309 311 311 313 314 315 318 314 317 318 318 316 315 315 313 311 312 315 312 310 310 311 309 311
307 308 309 309 309 311 305 307 311 304 301 304 306 305 307 307 310 310 309 311 309 308 305 302 303 307 307 311 314 314 314 315 313 311 312 317 312 316 316 315 313 319 312 315 310 304 309 308 307 307 307 308 308 307
311 315 312 314 315 313 309 306 306 306 306 304 308 308 307 308 307 307 309 310 306 305 304 309 311 314 314 317 315 317 317 315 315 315 312 308 311 311 310 311 312 310 308 307 305 305 304 304 305 305 306 305 306 307
316 311 316 317 312 311 309 312 308 309 306 307 307 307 303 302 303 303 308 303 302 307 309 310 313 309 309 310 310 313 316 319 317 310 308 310 309 308 308 308 307 306 306 306 306 305 305 304 304 305 305 305 304 307
312 312 315 314 308 304 303 315 307 307 302 304 307 304 304 304 306 309 300 305 307 314 313 314 317 317 314 314 312 310 311 311 309 309 308 307 309 310 309 309 308 306 305 305 306 305 304 301 303 304 305 305 305 305
307 312 308 309 309 303 312 307 309 307 307 305 305 301 304 307 312 305 301 303 310 313 309 312 310 308 308 310 305 305 306 307 306 307 306 305 305 306 307 307 307 306 305 306 305 304 304 303 301 304 304 304 304 303
303 302 306 294 312 305 302 304 304 303 301 303 301 302 306 310 302 299 298 302 303 305 306 307 307 307 303 304 304 304 307 303 302 303 305 305 304 304 304 304 304 303 303 302 301 300 301 301 301 301 301 301 300 300
295 308 299 306 306 304 304 301 302 302 303 301 303 306 305 304 299 296 298 302 304 305 305 305 305 304 303 303 302 301 302 304 303 301 303 305 303 301 300 299 298 298 301 301 299 297 297 297 296 296 296 297 295 297
299 305 312 317 312 310 308 308 308 304 302 301 304 304 302 296 293 296 302 305 305 307 308 308 305 303 302 301 302 302 303 303 303 301 303 305 302 302 300 297 295 296 299 298 297 296 295 294 294 294 295 296 296 296
312 313 302 303 308 307 301 304 303 302 303 307 306 300 297 296 294 301 302 307 308 308 308 307 307 305 302 301 301 301 301 301 300 301 301 302 301 299 299 299 298 294 298 297 296 296 295 294 294 294 294 294 295 295
310 312 311 306 308 307 307 304 304 306 308 307 305 300 299 304 307 306 308 309 309 308 304 302 302 303 301 300 301 300 299 297 294 292 291 292 293 294 296 297 297 297 297 296 292 294 294 294 294 294 294 293 294 293
308 313 309 304 305 305 306 309 307 309 309 307 306 304 305 306 309 312 310 308 305 303 303 302 301 299 297 297 296 297 298 297 295 292 289 289 291 294 295 295 295 295 295 295 295 295 293 294 294 294 293 292 292 291
311 310 307 307 305 309 310 312 311 310 309 307 308 304 303 305 309 308 307 306 304 303 301 299 299 299 297 296 295 294 293 297 296 294 292 292 293 293 294 294 295 295 295 295 295 294 293 292 292 291 291 290 290 290
311 307 305 303 307 312 314 311 309 307 306 306 305 305 307 307 303 305 307 305 303 300 298 299 298 297 298 298 298 297 294 296 294 293 292 291 292 293 293 294 294 294 294 294 293 293 292 291 290 290 290 289 290 290
309 308 308 306 307 307 311 311 309 307 306 304 305 308 307 303 299 302 308 307 302 300 299 299 299 300 299 298 297 297 297 295 291 288 287 286 285 288 291 293 293 293 293 292 292 292 290 290 290 290 290 290 290 289

GFSWCAN_sfc_thetae_015.txt.gz
Theta_e
310 310 310 310 310 310 310 310 310 309 309 309 309 309 309 309 309 308 304 308 300 292 293 295 296 293 293 293 289 294 292 292 292 289 288 289 288 293 293 296 296 296 297 296 299 295 294 318 316 308 314 320 319 319
310 310 310 310 310 310 310 310 310 310 310 309 309 308 308 308 308 308 299 309 308 298 295 300 300 301 299 298 295 295 294 293 294 294 294 295 291 295 295 292 303 296 301 301 301 304 317 316 312 313 319 320 323 325
310 310 309 309 309 310 310 310 310 310 310 309 308 308 308 308 308 307 302 305 304 296 294 295 295 301 303 302 303 293 295 297 296 303 298 297 293 299 293 296 301 305 309 307 308 307 315 318 316 322 331 327 330 331
309 310 310 310 309 310 310 309 309 309 309 309 308 308 308 309 308 307 302 307 302 296 289 291 302 299 304 304 303 301 298 299 301 300 296 296 294 302 299 300 300 307 307 306 307 309 313 322 325 326 329 329 326 327
309 309 309 309 309 309 309 309 309 309 309 309 309 308 308 308 309 307 304 306 305 295 289 291 298 302 304 303 302 302 300 298 296 294 296 295 300 300 303 304 301 308 307 305 304 309 310 309 316 325 322 322 323 321
308 308 308 308 309 309 309 309 309 309 309 309 309 309 309 309 308 302 298 305 308 304 294 289 299 300 305 307 302 301 301 298 297 296 297 300 303 301 298 294 305 310 314 317 310 314 311 312 313 318 316 317 320 319
308 308 308 308 309 309 309 309 309 309 309 310 310 310 310 309 305 298 297 303 306 304 295 290 291 302 305 304 299 300 301 299 300 301 298 299 300 303 300 294 303 311 314 315 315 314 310 311 308 313 314 315 315 317
308 308 308 308 308 309 308 308 308 308 309 309 310 309 310 310 307 301 304 306 305 299 298 289 290 296 304 299 297 302 298 301 301 300 300 297 300 301 298 304 308 310 312 313 313 313 312 312 313 313 314 314 311 310
308 308 308 308 308 308 308 308 308 308 308 309 309 309 307 303 300 305 308 307 306 300 291 292 288 288 304 300 303 302 301 294 302 297 296 300 296 295 300 303 306 309 308 309 311 311 311 309 310 311 312 312 310 309
308 308 308 308 308 308 308 309 309 308 309 309 308 304 302 306 311 310 304 299 297 297 295 290 295 291 299 299 299 299 300 296 293 297 302 295 295 302 304 306 308 310 310 311 306 305 307 306 309 309 309 313 314 311
308 308 308 308 308 308 308 309 309 308 308 309 303 301 305 312 306 300 294 293 295 291 295 296 299 296 305 296 298 302 298 299 289 294 295 290 292 298 306 306 308 309 310 311 310 310 309 309 309 309 310 313 314 315
308 307 307 307 308 308 308 309 308 307 306 303 302 306 307 305 301 294 292 291 288 289 297 297 299 303 304 306 299 300 297 296 289 301 293 288 296 302 304 307 309 310 311 311 313 312 311 309 309 309 309 314 315 317
307 307 307 307 308 308 309 309 308 309 308 310 304 303 300 299 289 290 286 291 289 297 302 302 299 301 303 304 300 296 293 294 302 293 287 292 299 302 305 308 309 310 310 311 311 313 315 315 316 315 315 315 315 317
307 307 307 307 307 309 309 308 309 310 308 303 300 289 296 294 294 295 296 297 301 303 302 302 302 300 301 300 300 295 300 301 293 288 289 298 302 306 308 309 310 309 310 310 313 313 313 314 314 315 316 317 316 316
307 307 307 308 309 309 309 308 309 311 309 304 302 288 297 302 303 303 305 304 306 308 307 305 304 304 301 300 299 298 294 290 291 291 297 302 306 307 309 310 310 309 308 310 311 311 312 314 314 314 315 317 318 317
307 307 310 309 309 308 308 310 314 314 313 307 305 300 303 301 301 303 304 303 308 307 308 306 301 298 295 294 292 290 290 288 292 299 303 306 306 307 308 310 312 313 312 310 310 314 314 313 313 313 315 315 314 317
307 305 310 309 308 308 311 312 316 310 305 302 301 306 304 303 303 305 306 306 310 305 299 301 295 294 298 292 291 295 293 297 301 303 305 306 307 307 309 310 312 313 311 312 311 311 314 310 314 314 310 311 312 317
306 311 310 308 307 310 317 312 311 305 301 303 302 304 306 307 305 306 307 310 307 305 303 300 303 296 294 293 294 299 301 304 306 306 308 310 311 312 313 312 314 312 312 311 313 309 308 306 304 305 305 309 308 308
306 307 307 307 308 307 309 310 312 302 303 305 305 308 308 308 309 310 310 311 310 309 305 303 299 297 298 301 301 303 304 305 305 307 308 310 310 313 312 315 314 313 309 307 305 306 305 304 303 304 304 304 303 305
307 308 309 310 310 310 307 310 317 306 301 304 306 307 307 306 308 307 307 308 307 304 300 299 299 302 302 305 307 307 308 309 307 305 306 308 312 312 312 311 309 309 307 306 304 302 303 302 302 303 303 302 302 303
312 314 313 315 315 313 310 308 307 305 308 306 309 308 308 307 304 303 303 307 303 302 300 304 304 306 306 305 306 306 308 312 310 309 308 306 310 311 310 310 308 306 304 304 303 301 301 300 301 302 302 302 303 304
316 312 315 320 314 313 311 315 309 313 309 310 308 308 304 302 302 302 307 303 303 305 307 308 308 306 303 303 303 303 304 309 308 305 303 306 306 305 305 306 305 304 303 303 303 302 301 301 300 302 303 302 302 302
312 312 314 315 309 302 302 317 308 309 305 305 309 303 305 305 306 309 302 306 307 312 311 311 312 311 309 310 305 303 304 303 305 303 303 304 306 306 304 303 302 300 301 301 302 301 301 299 300 301 302 302 302 302
308 311 309 309 310 301 314 307 310 309 309 306 305 302 304 306 312 303 298 301 305 306 306 307 307 305 305 306 302 301 302 302 301 304 304 303 302 302 302 300 299 299 300 300 299 298 299 298 296 296 297 297 297 296
301 302 305 293 312 309 304 304 306 305 302 305 302 300 299 304 299 296 296 298 302 305 305 306 304 304 302 300 300 301 303 301 299 299 302 303 302 301 300 299 296 296 298 297 295 295 295 295 294 294 294 295 295 295
293 309 300 305 302 304 306 301 303 303 303 302 303 305 305 303 296 294 297 301 304 304 304 304 303 301 299 299 298 299 299 301 299 297 300 300 298 297 295 293 292 293 297 296 294 294 293 293 292 293 293 294 293 294
300 303 305 310 306 305 305 307 309 304 301 300 303 303 302 294 292 297 303 306 305 307 308 307 304 300 298 298 300 300 299 298 297 296 300 298 297 297 295 293 292 294 297 296 295 294 292 292 292 293 293 293 293 293
305 304 302 307 307 308 305 305 302 300 301 305 305 298 296 294 295 302 304 308 308 309 308 307 303 301 299 299 299 298 297 296 296 295 296 296 296 295 296 296 296 294 296 295 295 294 293 293 292 292 292 291 291 292
308 309 309 306 307 306 305 303 302 303 305 304 301 298 298 303 305 306 308 309 308 306 301 300 299 300 299 299 299 298 296 294 291 288 287 288 289 291 294 294 294 294 295 295 293 293 294 293 293 292 292 291 291 291
309 312 308 307 304 302 305 307 305 307 307 305 304 304 304 305 307 310 307 304 303 300 300 299 299 297 296 295 294 295 295 294 292 289 286 286 288 292 293 293 293 294 294 294 294 293 293 293 292 292 291 290 290 289
311 309 308 308 306 308 309 310 310 309 308 306 307 304 303 305 308 308 307 306 303 301 299 297 297 297 296 294 293 292 291 293 292 292 291 291 291 292 292 293 293 293 293 293 293 292 291 290 290 290 289 289 289 289
311 308 306 304 307 311 313 310 308 307 307 306 305 306 305 306 303 305 308 306 301 299 297 297 296 295 297 296 296 296 294 293 292 292 291 291 291 292 292 292 293 292 292 292 292 291 290 290 289 289 289 289 289 289
308 308 309 306 307 308 311 310 308 306 305 304 306 306 304 302 299 304 308 305 301 299 297 297 298 298 299 297 296 296 294 294 291 289 288 288 288 288 290 292 292 292 291 291 291 291 290 290 289 289 289 289 289 289

GFSWCAN_sfc_thetae_018.txt.gz
Theta_e
310 310 310 310 310 310 310 310 310 310 309 309 309 309 309 309 309 301 297 302 298 292 293 295 294 290 291 289 286 288 290 289 288 286 288 285 284 290 290 296 295 294 294 295 297 292 291 313 312 302 306 316 316 316
310 310 310 310 310 310 310 310 310 310 310 309 309 309 309 308 308 307 294 299 303 296 292 298 298 298 297 295 290 289 291 292 293 288 290 292 288 292 289 289 301 295 300 297 301 299 309 314 309 318 323 323 324 324
309 310 310 310 310 310 310 310 310 310 310 309 309 309 309 309 309 307 297 298 298 295 294 292 292 298 300 299 300 291 293 296 295 298 292 290 289 295 286 294 298 304 307 303 303 308 310 312 320 325 324 322 322 323
309 309 309 309 309 309 310 310 310 310 310 309 309 309 309 309 309 308 298 300 300 296 288 289 298 294 300 299 299 300 297 297 298 298 292 290 290 297 294 298 298 304 306 305 305 307 310 311 315 320 322 322 320 322
308 309 309 309 309 309 310 309 310 310 310 309 309 310 310 310 309 305 302 300 302 295 288 288 295 297 298 300 299 299 297 295 292 290 290 290 297 296 300 300 299 305 304 303 302 308 305 308 314 320 318 317 317 319
308 308 309 309 309 309 309 309 309 309 309 309 310 309 310 310 310 298 293 299 302 302 293 285 292 295 298 303 301 296 297 296 294 289 291 297 302 297 293 294 301 306 313 313 308 313 310 312 312 313 311 314 317 317
308 308 308 309 309 309 309 309 309 309 310 310 310 310 309 309 305 295 293 300 306 302 293 289 287 296 304 301 295 293 294 293 293 295 294 296 298 300 297 293 301 308 312 312 314 314 310 311 309 312 312 313 314 315
308 308 308 308 308 309 309 309 309 310 310 310 310 310 310 309 308 302 304 306 305 297 297 288 288 293 303 297 296 300 293 298 298 298 298 296 298 300 296 301 305 308 312 310 310 312 311 313 313 312 313 312 310 309
308 308 308 308 308 308 308 309 309 310 310 310 310 310 306 302 298 301 309 308 303 297 290 291 288 287 302 298 300 299 301 293 301 295 295 297 295 294 298 303 306 307 308 307 309 310 310 309 308 311 312 311 308 307
308 308 308 308 308 308 308 308 309 309 309 309 306 301 297 303 310 310 302 298 296 296 295 289 294 289 297 299 297 297 299 293 290 295 301 293 294 300 305 306 309 307 308 309 305 304 305 306 308 309 312 314 313 308
308 308 308 308 308 308 308 308 309 309 308 301 296 296 301 312 305 300 293 291 293 290 293 293 294 292 301 295 295 300 296 295 287 293 292 290 291 298 305 307 308 309 310 309 309 309 309 309 309 310 311 313 314 315
307 307 307 308 308 308 308 308 309 303 300 300 301 303 301 300 298 293 288 289 287 287 296 295 298 300 302 304 297 298 293 293 289 300 292 287 292 300 304 307 308 310 311 311 312 309 309 310 311 310 310 313 314 315
307 307 307 307 307 308 308 309 309 308 307 303 299 298 295 294 291 285 285 289 290 294 297 300 299 300 302 302 297 295 294 293 301 289 285 289 297 303 306 308 309 310 310 311 313 313 314 313 315 314 312 314 316 316
307 307 307 307 307 308 309 309 309 307 302 297 294 288 293 291 295 296 297 298 302 300 300 300 301 299 300 299 300 296 298 297 290 286 287 298 302 304 306 308 308 309 311 311 312 311 311 312 312 313 313 313 313 313
307 307 307 307 309 309 309 308 309 304 302 297 296 290 294 298 300 303 304 303 304 303 301 299 299 300 297 295 295 296 292 287 289 290 297 302 305 306 307 308 308 307 307 308 310 311 311 312 312 311 312 313 315 313
308 306 306 309 309 308 307 308 307 306 304 302 301 298 301 299 300 303 303 302 306 304 302 300 298 295 294 294 292 290 289 287 293 299 303 304 305 306 306 308 308 308 308 306 304 304 305 305 305 306 306 308 310 311
307 301 308 308 308 307 309 305 307 306 300 299 298 301 301 300 300 302 303 303 307 303 298 299 295 292 297 292 291 294 293 297 301 303 305 306 306 306 307 308 308 309 307 303 302 300 301 302 303 303 302 303 305 306
302 305 308 308 307 306 307 307 303 301 298 299 297 300 301 302 301 302 303 304 303 301 301 299 302 295 291 291 293 298 301 303 304 304 305 305 307 307 309 309 308 303 304 302 301 299 299 299 299 298 299 302 302 302
303 305 307 308 306 302 304 304 303 299 299 299 300 301 300 301 303 305 305 305 304 303 301 300 296 293 295 300 300 302 303 303 303 304 306 307 308 308 306 306 302 299 298 298 298 297 297 296 297 297 297 298 299 300
308 309 310 310 309 303 303 300 306 300 298 301 302 300 299 299 301 303 303 303 302 299 295 294 294 297 296 297 301 303 304 306 304 300 302 304 305 304 303 302 300 298 298 296 297 297 296 297 298 298 297 299 299 297
309 310 312 310 307 305 303 300 300 301 301 299 301 300 299 300 300 300 300 301 299 298 296 297 294 296 298 297 298 298 298 300 298 296 296 299 299 298 301 301 300 299 298 296 296 296 296 295 297 299 298 297 297 299
308 312 308 313 307 307 303 305 301 303 300 300 299 299 296 295 296 296 299 298 297 300 301 299 299 298 296 295 295 296 297 298 298 299 299 299 297 296 296 297 298 295 295 295 295 294 293 293 294 295 295 295 297 298
309 309 308 309 304 296 297 307 301 301 299 301 303 299 298 297 299 301 295 297 299 300 299 299 299 299 298 298 297 296 296 296 295 296 296 298 296 295 294 294 296 295 293 293 295 293 292 292 292 292 292 292 292 293
310 305 303 302 301 295 305 301 303 303 304 301 299 295 297 299 301 295 294 295 299 301 299 300 299 298 296 294 293 295 294 295 295 296 296 295 293 292 291 291 291 292 292 293 293 291 290 290 290 290 290 291 291 291
297 297 301 291 303 301 302 300 299 299 297 298 297 296 294 301 294 291 294 296 299 298 298 299 298 296 291 291 291 292 293 292 291 291 293 293 291 291 289 289 288 289 290 289 288 288 287 288 288 289 290 290 290 290
293 302 296 300 298 299 299 297 298 300 300 298 298 299 300 297 292 290 292 295 296 297 298 298 296 291 290 290 289 289 288 290 291 290 290 290 290 288 286 286 286 287 289 288 288 288 288 288 289 289 289 289 289 289
295 299 301 304 302 301 299 301 302 297 296 296 300 297 296 291 289 292 296 299 298 303 303 300 294 291 289 289 289 289 289 290 287 286 288 288 289 289 288 286 285 287 289 290 289 289 288 288 288 288 288 287 287 288
301 301 298 302 301 304 300 297 297 295 296 298 298 294 292 291 290 295 298 301 302 302 300 294 293 292 291 290 289 288 288 288 288 287 287 287 287 288 288 288 288 292 289 289 289 288 288 288 288 288 288 286 286 287
303 304 304 300 302 302 300 298 296 297 298 297 295 293 293 297 299 299 300 300 295 293 291 290 290 291 290 291 290 289 287 286 284 283 282 281 282 284 287 288 288 288 288 289 291 291 291 288 288 287 287 286 286 286
304 307 303 303 300 298 300 301 299 300 299 299 299 298 298 299 301 303 298 296 293 291 290 291 290 289 287 287 286 286 286 286 285 283 281 281 282 285 286 287 287 287 287 288 287 287 290 288 288 286 286 285 284 284
309 307 304 303 301 302 303 304 303 303 301 299 300 298 297 299 301 301 298 295 292 291 290 289 289 289 288 287 286 285 283 285 286 286 285 285 285 286 286 286 286 286 287 287 286 286 285 285 285 285 285 285 285 285
305 302 301 301 301 305 305 303 303 303 301 300 299 300 300 300 297 299 299 296 292 290 293 291 289 288 288 288 289 288 289 286 286 286 285 285 285 286 286 286 286 287 287 287 287 286 286 285 285 285 285 285 285 285
303 303 304 304 302 303 305 305 304 301 300 299 301 302 301 298 294 296 297 296 293 291 290 291 291 291 290 290 290 289 290 287 288 289 288 288 288 286 284 285 286 287 287 286 287 287 286 286 285 285 285 286 285 286

GFSWCAN_sfc_thetae_021.txt.gz
Theta_e
310 310 309 310 310 310 310 310 310 310 309 309 310 310 310 309 309 302 297 299 295 292 292 294 293 290 290 289 285 286 287 288 286 284 284 283 282 285 285 289 289 291 290 289 289 288 286 312 313 305 308 316 315 315
309 309 310 310 310 310 310 310 310 310 310 309 310 310 309 309 309 307 298 300 301 296 294 297 297 297 295 294 291 291 288 287 292 287 287 287 287 287 285 283 294 289 296 293 296 295 310 313 312 319 320 317 318 320
309 309 309 309 309 310 310 310 310 310 310 310 309 310 310 310 309 307 298 297 297 294 292 292 291 297 299 298 299 290 293 295 293 297 291 289 284 291 287 287 291 298 304 298 302 307 311 314 315 319 320 318 320 321
308 308 309 309 309 309 310 310 310 310 310 311 310 310 310 310 310 309 300 297 297 295 288 288 297 293 298 298 297 297 295 296 297 297 292 289 287 293 287 292 294 298 302 301 303 307 313 315 314 315 316 318 318 319
308 309 309 309 309 309 310 309 310 310 310 311 311 310 310 310 310 306 301 300 301 294 288 289 295 295 296 297 297 296 295 293 293 291 290 288 293 291 292 295 295 303 299 299 301 308 308 309 312 313 314 314 315 316
308 308 308 309 309 309 309 309 309 310 310 311 311 311 310 310 310 299 291 297 302 302 293 287 291 293 295 298 299 296 294 293 293 290 289 292 297 294 286 289 301 302 306 309 308 310 310 311 313 314 312 313 316 316
308 308 308 308 309 309 309 309 309 309 310 310 311 311 311 310 306 297 293 299 305 303 293 287 288 295 301 299 292 291 294 292 291 290 289 293 296 297 291 291 301 302 306 311 312 311 308 311 309 311 312 314 315 317
308 308 308 308 309 309 309 309 309 309 310 310 310 311 310 310 308 302 306 307 305 298 295 288 287 292 302 296 292 297 290 291 295 294 297 295 296 297 291 300 302 308 311 310 310 311 310 312 313 312 312 312 310 312
308 308 308 308 308 308 308 309 309 309 310 310 310 310 306 302 299 300 309 308 304 298 289 290 287 287 300 297 299 298 298 291 298 294 295 295 291 290 297 300 303 307 308 308 309 309 310 309 310 311 310 308 308 309
308 308 308 308 308 308 308 308 309 309 309 309 303 300 296 301 309 309 303 298 296 296 294 287 293 289 295 297 295 294 297 292 287 292 298 291 291 299 305 306 307 307 309 310 306 305 307 307 308 308 310 311 310 308
307 307 307 308 308 308 308 308 309 309 306 299 295 295 299 308 305 300 293 289 291 287 290 291 292 290 300 293 295 299 294 293 287 294 292 289 289 297 304 307 309 309 309 309 308 309 309 309 309 308 310 311 312 312
307 307 307 308 308 308 308 308 309 304 299 300 302 304 299 299 297 291 289 289 286 286 292 293 296 299 300 302 297 296 291 293 287 298 291 286 292 301 305 307 309 309 310 311 310 309 311 312 312 312 312 314 315 315
307 307 307 307 308 308 308 309 309 309 306 302 297 297 296 296 292 286 285 291 293 294 296 297 298 300 302 301 297 295 294 293 299 289 284 288 296 304 306 308 309 311 311 312 312 313 314 311 313 314 313 314 314 313
307 308 308 308 307 308 309 309 309 306 302 297 294 290 293 292 295 296 297 298 302 301 301 299 301 299 301 297 299 295 296 295 289 286 287 298 303 305 307 308 307 307 309 310 310 311 311 311 310 311 313 313 311 311
308 308 307 307 309 309 309 308 309 304 301 297 299 289 294 300 301 301 302 301 303 302 302 300 299 298 294 294 296 294 291 287 289 290 297 302 304 306 305 306 303 301 301 301 302 302 303 304 304 305 308 308 307 307
308 307 305 308 308 308 308 307 307 305 301 301 299 297 299 298 298 299 299 299 304 304 301 299 295 293 294 294 292 290 288 287 293 299 302 304 304 305 305 305 302 300 299 298 299 300 300 300 301 301 302 303 305 306
307 300 307 308 308 307 307 305 305 302 302 301 299 300 299 298 297 298 299 299 304 302 297 297 292 293 297 293 292 296 293 297 300 302 303 305 303 304 306 305 303 300 298 298 298 298 299 300 300 299 298 300 302 304
300 302 307 307 307 304 305 305 303 303 300 299 295 297 297 299 298 300 300 301 298 296 299 297 299 293 292 292 293 298 300 302 303 303 304 305 304 302 303 300 299 297 296 296 296 297 297 297 296 295 296 300 302 302
303 305 307 308 307 302 304 303 303 299 300 298 299 298 298 299 301 302 302 302 301 298 295 293 291 290 291 295 296 298 299 300 301 303 300 299 303 302 299 297 296 295 295 294 294 295 295 296 295 296 298 299 297 298
308 309 310 310 308 302 300 299 303 299 296 298 299 297 297 296 298 300 300 301 297 295 292 290 293 295 295 296 294 296 297 299 299 297 294 295 297 296 295 295 294 294 294 293 293 294 293 294 295 296 297 296 295 295
307 310 311 308 306 304 301 298 298 298 298 298 300 298 296 297 296 296 297 298 296 294 293 295 296 295 295 295 296 294 294 294 292 293 295 293 294 296 294 293 293 293 292 291 289 289 290 289 290 292 294 296 296 295
304 310 306 309 305 303 301 302 300 301 300 300 299 298 295 294 294 295 295 294 293 297 298 295 294 294 292 292 291 291 291 294 294 295 294 293 291 292 292 292 291 290 290 289 289 288 287 287 289 290 290 291 295 293
307 307 306 307 302 296 298 304 300 303 300 300 300 296 296 295 296 296 292 296 297 298 297 298 296 294 292 292 292 292 291 292 292 292 291 289 289 288 290 291 292 291 289 289 288 287 287 289 289 289 289 291 292 291
308 303 302 300 299 295 303 299 300 300 299 295 293 290 295 300 299 292 290 294 296 297 296 295 293 290 289 289 287 287 288 288 289 289 289 288 287 286 286 286 287 287 287 287 286 286 286 287 289 289 290 289 288 287
296 297 298 290 298 297 298 298 297 297 295 295 293 294 293 297 291 289 288 292 294 295 296 295 290 289 287 286 285 286 287 287 286 285 286 286 285 285 285 285 285 285 286 286 285 286 285 286 287 288 288 287 287 286
292 299 294 296 296 296 296 295 296 296 296 296 297 296 298 292 290 287 290 293 295 295 299 294 289 287 286 285 284 284 284 285 285 285 284 285 285 284 283 283 283 285 286 285 285 286 286 287 287 286 286 287 288 287
291 296 298 301 299 298 296 297 297 294 293 294 297 294 292 288 286 290 294 296 299 302 292 290 289 287 286 284 285 285 284 284 285 285 284 284 284 284 285 283 283 285 286 287 287 286 286 286 286 285 285 285 285 286
299 299 297 298 298 300 297 294 294 292 293 294 295 291 290 290 288 293 296 298 297 296 289 288 288 288 286 286 285 285 284 284 284 284 284 284 284 284 285 285 286 290 287 287 287 287 287 286 286 286 285 284 284 285
300 300 301 298 300 299 298 295 294 295 295 295 293 291 292 295 297 297 297 296 289 290 289 287 286 287 286 285 285 284 283 283 282 281 280 279 281 283 284 285 285 285 285 286 289 289 288 287 286 286 285 284 284 284
303 303 300 301 298 296 298 298 297 297 296 297 296 295 295 296 299 299 295 290 289 291 289 287 286 286 284 283 282 282 283 282 282 281 280 280 281 282 283 284 284 284 284 285 285 285 289 286 286 285 285 284 283 283
304 303 301 300 299 301 302 303 304 303 300 297 297 296 295 296 298 296 291 289 288 288 288 287 286 285 285 284 283 282 281 283 283 284 283 282 282 283 284 284 284 284 284 285 284 284 284 284 284 284 284 284 284 285
301 301 300 298 299 301 301 299 299 299 298 296 296 299 297 297 295 296 293 290 289 288 290 288 286 286 286 286 286 285 288 284 284 285 284 284 284 284 283 283 284 285 285 285 285 285 285 285 284 284 284 284 284 285
299 300 301 301 300 299 301 300 300 300 297 297 297 299 299 297 294 294 293 291 290 289 288 288 288 287 287 287 287 286 287 285 286 288 288 288 288 286 283 283 284 286 285 285 286 286 286 286 285 285 284 284 284 284

GFSWCAN_sfc_thetae_024.txt.gz
Theta_e
309 309 309 310 310 310 310 310 310 311 310 310 310 310 310 310 310 303 299 300 297 292 292 293 294 290 289 289 284 289 286 288 289 285 283 284 279 283 281 284 284 282 283 282 284 284 283 309 311 308 310 316 318 319
309 309 309 309 310 310 310 310 310 310 311 311 310 310 311 311 310 308 298 298 302 295 293 297 296 297 295 294 291 291 289 288 287 286 285 285 282 285 284 280 290 284 289 287 287 288 299 311 312 315 318 315 317 317
309 309 309 309 309 310 310 310 310 310 311 311 311 311 311 311 310 309 300 301 298 294 291 290 290 296 298 298 298 289 292 293 293 295 290 288 284 287 283 287 288 292 295 292 293 299 302 312 314 316 316 316 319 320
308 309 309 309 309 309 309 310 310 310 310 311 311 311 311 312 311 310 302 301 299 295 286 287 297 294 298 298 297 297 294 294 296 296 290 287 287 292 288 289 288 290 291 292 294 298 309 312 311 312 315 318 318 319
308 308 308 309 309 309 310 310 310 310 310 311 311 311 311 311 311 309 304 301 303 293 286 288 295 294 295 295 296 296 294 292 292 291 290 289 292 291 291 290 287 292 291 290 294 301 305 307 310 314 313 314 317 317
308 308 308 308 309 309 309 309 310 310 310 310 311 311 311 311 311 302 293 299 303 301 292 287 293 293 296 295 294 293 294 293 292 291 290 292 297 291 285 286 294 302 303 304 301 306 308 310 313 313 313 315 318 318
308 308 308 308 309 309 309 309 309 309 310 310 311 311 311 311 305 297 295 300 303 303 293 287 289 295 298 298 292 294 295 293 293 292 290 291 293 293 289 285 293 298 302 304 306 310 308 310 309 312 313 314 317 319
308 308 308 308 309 309 309 309 309 309 310 310 310 311 311 310 307 302 305 306 305 298 295 286 288 291 296 292 291 293 290 291 291 291 295 293 295 295 285 291 294 298 301 304 310 312 311 313 311 311 311 312 312 313
308 308 308 308 308 308 308 309 309 309 310 310 310 310 306 303 300 301 309 309 305 297 288 288 286 286 298 297 296 295 296 291 298 293 293 293 287 285 291 295 302 305 304 308 309 311 311 309 309 311 311 310 311 312
307 307 308 308 308 308 308 308 309 309 309 309 301 297 295 300 309 309 302 297 295 295 294 288 292 288 294 296 295 294 296 292 288 290 297 287 287 294 301 306 307 307 308 310 307 306 308 307 308 310 310 311 311 312
307 307 308 308 308 308 308 308 309 309 306 298 294 293 300 306 305 300 292 289 289 287 288 289 290 289 298 292 294 296 292 292 286 292 290 288 288 297 305 307 309 310 310 310 310 310 310 310 310 310 311 312 313 314
307 307 307 308 308 308 308 308 309 306 299 302 302 305 301 299 297 292 291 289 286 287 292 291 295 294 298 300 296 296 291 292 286 296 289 285 295 303 305 306 308 311 312 312 312 311 311 312 314 313 313 313 313 315
306 306 307 308 308 308 309 309 309 309 306 302 297 295 298 298 291 289 287 293 295 296 297 297 296 300 301 301 297 296 293 291 297 288 284 292 301 302 301 302 302 304 306 308 309 310 311 311 312 311 311 312 315 315
306 307 308 308 308 309 309 309 309 306 301 296 294 290 294 292 294 296 295 296 301 300 299 299 299 297 298 295 297 294 295 294 288 285 288 297 299 300 301 301 300 301 301 302 303 304 304 304 304 306 306 308 312 311
307 308 308 307 308 309 309 308 309 303 301 296 297 290 294 299 299 300 301 299 301 302 300 297 297 297 295 295 296 294 291 286 287 290 295 299 301 300 299 299 298 299 299 299 301 301 301 303 302 302 305 305 304 303
308 307 304 308 308 308 308 307 306 303 301 300 298 295 297 296 295 296 296 295 299 303 301 299 296 294 294 295 292 290 287 287 294 298 301 303 302 302 301 298 297 297 297 298 299 299 300 300 301 301 303 302 302 301
307 301 307 307 308 308 308 304 303 302 300 299 296 296 295 295 294 295 296 295 298 299 296 297 293 292 297 292 292 295 293 296 299 299 301 302 299 298 297 296 295 295 295 296 296 297 298 300 300 300 299 300 300 300
300 302 307 308 307 304 306 302 302 301 297 296 293 296 296 296 296 297 298 299 294 291 295 294 296 290 289 288 289 293 296 299 300 296 297 299 297 295 295 293 294 294 294 294 295 295 296 296 296 296 298 298 298 298
302 305 307 308 308 302 302 302 302 297 297 296 297 296 295 296 298 298 299 299 299 294 292 292 289 288 289 293 293 293 295 296 295 295 294 295 295 295 294 293 292 291 291 290 291 292 294 294 295 296 296 297 295 295
307 308 309 310 307 301 299 299 301 298 295 296 296 295 294 294 296 297 298 297 296 293 290 288 289 292 293 294 295 294 294 295 297 293 292 294 295 294 292 292 291 291 290 290 291 292 291 292 293 295 295 294 293 292
306 308 310 308 306 302 299 297 297 297 296 295 297 296 294 296 295 294 294 295 293 291 290 293 293 291 291 292 291 289 291 291 289 289 289 291 293 293 292 292 292 292 290 290 288 288 289 288 289 291 294 292 291 291
303 309 305 308 304 302 300 300 299 299 298 297 301 300 294 292 292 293 294 292 291 292 293 292 291 291 290 289 289 288 290 292 290 289 290 289 289 289 288 289 289 288 288 287 287 287 287 288 290 292 293 291 291 290
307 306 305 305 300 294 295 301 298 298 294 295 295 293 294 293 294 294 291 292 292 295 293 292 292 290 288 289 289 289 289 289 288 288 287 286 286 286 287 288 288 287 286 286 286 286 287 289 291 291 290 290 289 288
307 302 300 298 298 293 301 297 299 297 296 293 292 290 293 296 294 291 288 291 294 294 293 291 290 287 287 287 285 285 286 286 286 286 286 286 286 285 286 286 287 287 286 286 287 287 288 289 289 289 289 288 287 287
296 297 296 288 296 296 296 296 295 295 293 293 292 292 292 293 289 288 288 291 293 294 294 290 288 287 285 285 285 285 285 285 284 284 284 285 285 286 286 286 286 286 287 287 286 287 287 288 288 289 288 287 287 286
291 297 293 294 294 294 294 293 294 294 295 294 294 294 294 291 288 286 289 292 293 295 295 294 288 285 285 284 284 284 285 284 285 284 284 284 285 285 284 284 284 286 287 287 287 288 288 288 288 288 287 288 288 287
290 295 297 298 297 297 294 295 295 293 292 292 294 293 291 286 285 288 292 294 295 298 294 292 289 287 285 284 284 285 284 284 285 285 285 284 285 285 285 284 284 285 287 288 288 289 288 287 287 287 286 287 287 287
298 298 296 297 297 298 296 293 292 291 292 293 293 291 289 288 287 291 294 297 295 293 288 287 287 287 285 285 285 285 285 284 285 284 284 285 285 285 285 286 286 288 288 289 289 289 289 288 287 287 287 286 286 287
299 299 299 296 299 298 298 294 293 294 294 295 293 290 292 294 295 296 297 295 289 290 289 287 286 286 285 284 284 284 284 283 284 282 282 281 282 284 285 286 286 286 286 287 289 290 289 288 288 287 287 286 286 287
302 301 298 299 297 296 298 297 295 296 296 297 296 296 296 297 298 299 295 289 289 292 291 288 286 286 285 284 284 285 285 284 284 283 282 282 283 284 285 285 286 286 286 287 287 287 289 288 288 288 287 287 287 288
302 301 300 299 298 299 300 301 301 303 301 298 298 296 295 298 299 296 292 289 289 288 287 286 286 286 285 285 284 284 283 285 285 286 286 285 284 285 286 286 286 287 287 287 287 287 287 286 286 286 287 286 287 287
301 300 299 297 298 300 300 298 298 299 299 297 297 299 298 297 296 298 293 290 289 288 290 288 287 286 287 287 287 286 288 286 286 287 288 286 286 286 286 285 286 287 288 288 288 287 287 287 286 287 286 286 287 287
299 298 299 300 298 297 299 299 297 297 296 295 296 298 300 299 296 298 295 293 292 291 289 289 289 289 289 290 289 288 288 287 288 288 288 288 288 287 286 286 287 288 288 288 288 288 287 287 287 287 287 286 286 287

GFSWCAN_sfc_thetae_027.txt.gz
Theta_e
309 309 309 310 310 310 310 310 311 311 311 310 310 311 311 311 311 307 302 304 300 293 293 295 295 291 291 290 285 290 289 291 290 286 285 285 285 287 286 288 287 287 286 284 287 284 282 301 306 299 312 321 322 324
309 308 309 309 310 310 310 310 310 310 311 311 311 311 311 311 311 311 300 303 304 296 295 300 299 300 298 296 291 291 290 291 292 287 288 287 286 288 287 283 293 286 290 290 291 290 300 305 307 318 323 322 323 323
309 309 309 309 309 309 310 310 310 310 311 311 310 311 311 312 312 311 302 300 299 295 293 294 293 299 302 301 301 289 293 294 293 297 291 289 284 290 285 288 290 295 299 293 292 295 299 302 307 309 320 322 325 324
308 308 309 309 309 309 310 310 310 310 310 311 310 311 312 312 312 311 304 302 300 295 288 291 300 298 302 302 300 299 296 298 297 297 289 288 287 294 289 291 291 294 296 294 294 298 300 304 307 308 314 323 323 323
308 308 308 309 309 309 310 310 310 310 310 311 310 311 311 312 312 311 307 304 303 296 289 290 298 300 300 300 298 299 297 294 292 291 290 288 292 291 292 291 288 295 292 290 290 299 301 305 308 314 317 321 323 322
308 308 309 309 309 309 309 309 310 310 310 310 310 311 311 311 310 305 297 303 305 302 292 288 298 298 300 299 298 296 296 294 293 290 289 292 296 292 287 287 294 298 299 301 295 302 304 309 311 318 319 322 323 324
308 308 308 309 309 309 309 309 309 310 310 309 310 311 310 310 307 300 296 302 305 304 292 288 289 299 300 301 297 295 295 293 292 291 289 290 292 292 287 285 292 296 298 299 302 304 302 307 310 316 318 321 319 325
308 308 308 308 308 309 309 309 309 309 309 310 310 311 311 310 307 303 305 305 305 299 295 288 288 294 301 297 297 298 293 293 293 292 292 290 292 291 285 291 294 297 298 298 299 304 308 312 315 314 317 319 320 319
308 308 308 308 307 307 307 308 309 309 310 310 309 310 308 306 301 302 309 307 305 298 289 289 287 288 300 297 299 298 295 290 296 289 291 292 286 284 289 293 296 306 299 300 302 304 308 311 311 313 316 317 317 318
307 307 307 307 307 307 307 308 309 309 309 307 307 302 299 303 310 308 302 296 296 296 294 288 292 288 293 296 296 294 296 291 287 290 295 286 286 295 301 305 308 307 306 308 306 305 309 309 311 314 314 318 319 319
307 306 306 307 307 307 308 309 309 309 308 306 301 299 305 307 305 301 292 290 289 287 289 290 290 289 297 291 293 296 292 290 286 291 290 286 288 296 301 302 303 310 312 312 312 312 313 314 312 313 313 315 318 320
306 306 306 307 307 308 309 309 309 308 306 304 303 305 305 302 299 295 293 290 287 289 293 292 295 294 296 300 296 298 292 293 287 297 289 285 293 297 300 302 303 304 305 305 305 307 311 312 314 314 314 315 317 318
306 306 307 308 308 309 309 309 309 309 307 306 302 302 300 299 290 289 287 291 294 300 300 300 299 303 304 304 298 298 293 291 299 290 284 290 296 298 299 302 301 302 302 304 305 304 306 307 307 309 310 311 312 311
306 306 308 308 309 309 309 309 309 308 307 302 299 290 293 291 292 294 294 295 300 303 302 303 302 300 302 299 300 293 295 296 290 285 286 294 299 300 300 301 300 300 301 303 302 303 303 303 302 303 304 305 304 304
307 308 308 308 308 309 309 309 309 312 309 301 299 290 295 300 301 300 301 299 301 303 303 302 302 301 299 297 297 293 292 287 287 287 294 300 301 299 298 298 298 300 300 300 302 301 303 303 300 300 302 303 304 304
308 308 309 308 308 309 308 310 313 313 310 305 302 297 300 297 296 298 298 298 301 302 307 304 299 296 295 295 293 290 288 287 292 297 301 302 299 297 297 298 298 299 300 300 301 302 303 303 301 301 302 302 302 303
307 309 308 308 308 308 308 313 313 307 304 302 299 303 300 300 297 298 299 299 302 302 298 299 292 292 297 290 287 289 288 294 296 297 299 299 298 297 298 296 296 297 298 299 300 301 302 302 302 302 301 302 302 302
306 308 308 308 309 309 313 311 309 306 300 302 299 300 301 302 299 299 301 302 300 299 298 295 298 291 289 287 289 293 296 298 300 297 297 298 298 298 297 296 297 297 297 298 299 299 300 301 300 299 300 300 300 300
307 308 308 308 310 310 308 308 309 301 303 304 305 304 303 303 304 304 303 304 302 301 300 297 292 290 291 295 294 296 297 299 298 297 297 298 297 297 297 297 297 297 296 296 297 298 299 299 299 299 299 298 297 298
308 308 309 310 310 309 306 306 309 305 301 303 305 303 303 302 303 303 302 302 300 297 294 292 292 295 295 296 297 297 297 298 300 296 296 296 296 297 296 296 295 296 296 297 296 294 299 299 299 298 297 296 296 295
309 312 311 313 313 310 307 305 305 305 305 304 304 302 304 305 302 300 299 302 297 296 293 297 296 297 298 298 297 298 297 297 295 295 295 294 296 296 295 295 296 294 293 293 293 294 294 295 296 296 295 295 295 295
311 310 314 314 310 308 308 308 307 307 306 306 306 305 302 301 301 301 302 298 298 300 301 299 299 297 297 297 296 296 297 297 297 295 294 294 293 294 294 294 293 292 293 293 293 293 295 296 296 295 295 294 294 293
309 311 312 311 307 301 302 310 306 306 301 303 304 301 301 302 303 303 299 301 302 304 303 301 299 297 296 296 297 297 296 296 294 294 294 294 294 294 294 293 293 292 292 293 295 295 295 292 294 295 294 294 294 293
308 309 306 304 304 298 307 304 307 305 304 301 300 298 301 303 303 300 296 299 303 303 301 300 298 296 296 297 294 293 293 294 294 294 293 293 293 293 294 294 294 293 293 295 295 294 295 294 292 294 293 293 292 291
301 300 302 292 304 303 301 301 301 301 299 300 299 299 301 303 297 295 295 298 302 303 303 299 297 296 294 294 294 294 293 293 292 291 291 292 293 294 294 294 294 294 294 294 293 293 294 294 293 293 292 291 291 290
295 303 299 301 301 301 301 298 299 299 300 299 300 302 302 298 291 290 296 301 302 303 303 301 299 296 294 294 293 293 292 293 292 291 291 291 291 291 290 290 290 292 294 294 293 294 293 293 292 291 291 290 288 290
296 301 305 307 306 305 302 303 303 299 298 297 301 299 297 290 290 296 301 303 303 305 303 299 299 297 296 293 293 293 293 293 292 291 292 292 292 292 291 290 289 291 293 294 294 295 293 292 291 291 290 291 291 290
306 305 303 305 306 306 302 300 297 296 298 301 301 296 293 293 293 300 303 305 304 302 296 296 297 296 294 294 294 294 293 292 292 291 292 293 293 293 293 293 293 289 293 294 294 295 294 293 292 291 291 290 291 292
305 307 306 303 304 304 305 302 299 301 303 302 300 296 298 302 304 303 305 304 299 297 295 294 293 294 293 293 293 293 293 292 291 288 287 287 289 290 292 292 293 293 293 294 289 291 293 293 293 292 291 292 293 294
308 307 305 303 303 302 306 307 304 304 304 306 304 303 303 304 306 307 302 297 296 296 297 295 295 294 294 293 293 292 293 293 292 290 288 288 289 291 292 292 292 293 293 293 294 292 289 293 291 293 292 292 292 292
309 308 306 305 305 308 308 307 307 307 306 304 304 302 303 304 306 305 302 302 298 297 295 295 294 295 294 294 293 292 292 293 293 292 293 293 293 292 292 292 292 293 293 293 293 292 292 292 291 291 291 290 290 290
308 307 306 304 305 307 307 305 305 305 305 302 302 303 303 303 302 307 301 296 295 295 295 295 296 295 296 296 296 295 289 295 294 294 293 293 293 293 293 293 293 293 293 292 292 292 291 290 291 290 290 290 290 290
306 305 306 305 305 303 305 305 303 303 302 301 302 303 303 303 301 305 301 298 298 298 298 297 297 296 296 296 295 295 291 295 292 288 288 288 287 289 292 293 293 294 293 292 292 291 291 290 290 290 290 290 290 291

GFSWCAN_sfc_thetae_030.txt.gz
Theta_e
310 310 310 310 310 310 310 310 311 311 311 311 311 311 312 312 312 309 304 306 300 293 295 298 298 294 293 291 287 291 291 294 290 287 288 288 287 290 289 291 290 291 289 289 290 288 287 303 303 299 312 318 320 322
309 309 309 310 310 310 310 310 311 311 311 311 311 311 312 312 312 312 303 305 305 297 296 303 303 304 300 298 293 293 291 292 296 292 292 292 290 292 291 286 296 288 293 292 293 293 302 305 304 309 312 311 314 321
309 308 309 309 309 310 310 310 310 311 311 310 311 311 312 312 312 311 305 302 301 296 295 297 299 304 306 304 304 291 294 295 294 298 295 293 288 292 288 290 292 295 300 295 295 297 301 304 307 308 309 309 313 315
308 309 309 309 310 310 310 310 310 310 311 310 310 311 311 312 312 312 306 302 302 297 290 296 304 301 306 305 303 303 299 300 298 299 292 290 289 296 292 294 292 297 297 296 296 301 302 302 304 306 308 310 310 312
308 309 309 309 309 309 310 310 310 310 309 310 310 311 312 312 312 312 311 305 306 297 291 294 301 304 304 303 302 302 299 296 294 292 290 288 292 292 295 294 293 298 296 294 293 301 302 303 306 308 307 310 312 316
309 309 309 309 309 309 309 310 309 309 309 310 311 311 311 311 311 310 302 306 307 303 293 290 302 300 302 302 300 299 299 296 295 291 290 291 296 291 287 289 297 300 301 302 300 304 304 306 308 309 311 313 316 319
308 308 308 309 308 308 309 309 309 309 310 310 311 311 312 310 311 303 301 305 306 306 294 290 293 302 302 301 299 297 298 296 294 290 288 289 291 292 287 284 292 296 299 300 303 303 300 305 301 310 312 316 318 323
308 308 308 308 308 309 308 308 309 309 310 310 311 311 310 309 307 304 308 306 307 300 296 289 291 296 302 297 296 300 293 292 292 289 290 289 289 289 285 291 294 295 296 296 298 301 301 303 308 311 316 317 320 321
307 308 307 307 307 308 307 309 309 310 310 310 311 311 312 308 303 305 309 307 308 299 290 289 288 288 299 296 299 296 295 288 294 288 287 289 287 285 286 294 300 307 306 297 299 299 302 304 305 309 315 319 316 318
307 307 307 307 307 307 308 309 310 310 310 310 310 308 304 306 311 308 302 297 298 297 295 288 291 288 294 295 295 295 296 290 288 291 296 286 286 294 296 301 303 305 305 306 302 303 305 304 308 312 314 316 319 319
307 307 307 307 307 308 309 310 310 310 308 313 311 307 310 310 305 302 294 292 291 289 292 292 292 291 298 292 293 298 292 292 290 295 293 289 287 294 298 300 303 304 305 306 312 311 311 308 314 313 313 319 318 318
307 307 307 307 308 309 310 309 309 315 313 309 309 309 311 307 306 299 295 295 292 292 301 295 299 297 298 300 296 300 296 298 291 302 294 286 293 298 298 299 301 304 305 304 305 305 305 306 307 307 308 309 313 313
307 307 307 308 309 309 310 310 309 309 309 310 308 306 304 302 291 289 286 292 294 302 305 304 302 306 307 307 305 303 297 294 303 293 286 294 300 300 300 301 302 303 306 306 304 304 304 304 305 306 306 308 309 309
307 307 308 308 309 309 310 310 310 310 315 306 302 292 298 293 293 295 297 298 303 305 305 307 305 303 305 301 300 295 298 300 292 286 287 297 300 301 302 303 304 302 305 305 304 303 304 304 303 304 305 306 306 308
308 308 308 310 309 310 310 309 310 320 313 305 303 294 298 301 303 303 304 305 307 308 309 307 307 305 302 299 299 296 294 290 290 290 296 301 302 302 301 301 303 303 304 304 305 306 305 305 304 304 307 307 306 306
308 309 314 309 309 309 309 315 319 318 312 306 304 300 303 301 301 302 303 303 307 309 312 309 303 299 297 297 291 288 289 286 292 297 299 302 302 303 303 303 303 303 304 304 305 305 305 305 305 305 305 304 303 305
307 317 309 309 309 309 311 319 316 309 306 303 302 305 303 303 301 302 303 303 309 305 302 302 294 293 300 294 290 291 289 291 296 299 300 302 300 302 303 303 304 305 305 306 306 307 307 307 307 306 305 305 304 304
316 317 311 309 310 317 321 317 311 306 301 305 302 303 304 304 302 303 304 304 305 303 302 297 300 294 291 289 291 297 299 301 304 300 299 301 302 304 304 303 302 302 303 303 305 305 306 305 304 304 305 306 305 303
313 312 309 309 311 316 313 313 313 304 305 308 310 308 306 304 305 305 305 305 305 305 304 299 295 292 293 296 296 298 300 301 301 301 299 302 303 303 304 302 302 301 301 301 300 302 303 304 302 303 304 303 301 301
308 308 309 311 312 317 309 312 317 308 306 307 310 308 307 305 304 304 304 303 302 301 298 295 295 296 296 298 299 299 300 302 301 298 299 299 301 302 301 301 299 300 299 299 299 296 300 301 302 301 300 300 300 298
312 317 314 317 322 319 315 314 311 311 311 308 312 311 308 310 304 302 302 304 300 298 296 299 299 300 303 302 301 301 300 300 298 298 297 297 300 300 299 300 300 298 297 297 297 297 298 299 300 300 300 300 300 299
319 311 321 322 317 315 316 317 313 315 312 310 311 311 307 304 303 302 305 301 299 301 302 301 301 300 300 301 301 301 301 301 301 298 297 297 297 297 297 297 297 296 296 297 298 298 298 299 300 299 299 299 298 297
313 316 320 318 311 306 306 318 311 311 305 307 310 305 306 307 306 308 301 303 302 305 306 305 305 304 301 302 302 301 300 299 297 297 297 297 299 299 297 297 297 295 295 296 298 298 298 294 297 297 298 297 297 296
309 316 311 310 310 303 314 310 314 312 311 308 306 301 304 306 309 303 298 301 303 308 306 306 304 301 301 301 298 298 298 298 297 297 297 296 295 296 297 297 297 297 297 298 297 297 297 297 294 296 296 295 295 294
304 303 307 294 311 306 303 304 305 305 302 304 302 302 306 308 301 298 296 301 303 303 305 306 305 302 298 298 300 298 299 297 295 295 296 296 295 296 296 296 297 297 297 296 296 296 296 296 296 296 295 294 293 293
296 307 301 306 308 304 305 298 299 300 302 301 304 309 309 303 294 292 299 303 304 305 304 303 301 299 299 299 297 297 296 298 297 295 295 295 295 294 293 293 293 295 297 297 296 295 295 295 295 294 294 292 290 292
299 304 312 316 314 312 308 308 308 303 299 299 304 303 301 293 293 299 304 306 305 307 308 306 304 301 299 299 300 300 299 298 296 295 296 296 296 296 294 292 292 294 297 297 297 296 295 295 294 293 294 295 294 294
311 311 306 310 311 312 305 305 300 298 300 307 305 298 296 296 299 304 307 308 309 309 305 303 303 302 301 300 301 300 300 300 297 298 296 297 299 297 296 296 296 290 295 296 295 296 296 295 294 294 294 293 294 295
311 314 312 308 309 309 309 306 305 307 309 306 303 302 302 308 310 309 309 309 310 306 301 299 299 300 300 300 301 300 299 297 294 292 290 292 293 293 296 296 296 296 297 297 287 290 294 293 294 294 294 294 295 294
312 314 310 308 306 306 311 313 311 312 312 310 310 309 308 310 312 314 310 306 304 303 305 302 300 299 301 300 299 298 299 299 297 294 292 291 292 295 296 295 295 296 296 296 296 295 289 293 293 294 293 293 294 293
318 314 310 310 308 312 315 317 315 313 311 309 310 307 308 312 313 314 312 310 308 307 302 300 300 303 302 300 297 295 296 297 297 297 296 297 297 296 296 296 296 296 296 295 294 293 293 292 292 291 291 291 291 291
314 311 311 307 309 316 315 312 312 311 312 310 309 311 311 310 307 311 307 305 305 303 297 302 303 299 300 299 299 299 287 298 298 299 296 297 296 297 296 296 296 295 295 293 293 293 292 291 291 290 290 290 291 291
311 311 311 309 310 308 312 310 309 308 309 309 310 311 311 308 305 308 305 304 303 304 303 303 302 301 300 299 298 298 292 300 294 288 290 288 286 289 294 296 296 295 294 293 293 292 292 291 290 290 290 290 290 290

GFSWCAN_sfc_thetae_033.txt.gz
Theta_e
310 310 310 310 310 310 311 311 311 311 312 311 311 312 312 312 313 310 307 308 300 294 295 299 299 296 296 295 291 295 294 296 293 290 290 290 290 291 291 294 293 293 292 292 294 292 291 308 307 304 312 319 318 320
309 310 310 310 310 310 310 311 311 311 311 310 311 312 312 312 313 312 305 308 307 298 297 305 305 305 303 302 297 295 295 294 299 293 295 294 291 293 292 288 298 290 296 295 296 296 306 309 308 311 311 311 313 314
309 309 309 310 310 310 310 310 311 310 310 311 311 312 312 312 312 311 308 305 302 296 296 297 300 306 307 306 306 293 296 297 295 299 295 294 290 295 289 291 294 298 302 296 297 301 303 305 308 309 310 310 312 313
309 309 310 310 310 310 310 310 310 310 311 311 311 311 312 312 312 312 304 305 304 298 290 296 306 302 306 307 305 303 300 300 299 298 295 293 290 298 293 294 294 298 299 297 298 301 304 305 307 308 308 310 310 311
309 309 309 309 309 309 310 310 310 311 310 310 311 312 312 312 312 314 311 306 308 300 293 296 302 305 306 305 304 303 301 300 297 293 291 289 293 292 295 296 294 299 297 295 294 303 303 305 308 310 308 307 309 310
309 309 309 309 309 309 310 310 310 310 310 311 311 312 312 311 310 313 303 309 311 306 295 291 304 301 303 303 302 301 301 299 296 291 290 292 296 292 287 288 297 299 301 301 300 305 305 306 308 310 309 309 311 312
308 308 308 309 309 309 309 309 309 309 310 311 311 312 311 312 313 305 303 307 308 307 296 291 295 303 303 302 300 299 299 297 294 289 287 289 291 292 288 286 294 295 297 299 302 302 301 304 304 309 310 311 311 312
308 308 308 308 308 309 308 308 309 310 310 311 311 311 310 308 307 307 310 308 309 302 298 290 292 296 302 296 295 299 293 293 291 290 289 288 290 289 285 292 292 296 303 302 297 299 302 306 305 308 310 310 309 312
308 308 308 307 308 308 309 309 310 311 311 310 311 311 314 312 306 307 308 308 308 301 291 290 288 289 300 297 300 296 293 289 294 288 288 288 287 285 286 294 299 304 305 303 304 300 300 301 304 307 306 307 310 314
308 307 308 308 308 308 309 309 311 311 310 311 312 309 305 309 311 308 304 301 299 298 296 290 294 291 296 297 296 296 296 293 288 295 296 289 285 296 298 300 302 304 310 307 300 298 300 300 303 305 307 310 311 316
308 308 308 308 308 309 310 310 310 310 310 314 312 309 313 311 307 307 305 297 297 296 303 299 294 294 301 294 295 300 297 295 292 296 294 291 289 295 300 301 303 305 305 305 306 308 310 309 309 308 309 313 316 320
308 308 308 308 309 310 310 310 310 313 317 311 314 316 315 308 307 303 299 300 298 298 307 305 305 300 304 303 299 306 301 301 293 300 295 287 294 300 301 303 303 305 306 305 306 306 306 307 309 308 308 309 310 310
308 308 308 309 309 310 310 310 310 309 310 317 314 310 307 305 297 293 288 294 296 302 305 305 308 310 311 307 308 305 298 297 302 295 286 293 300 302 304 305 304 306 306 306 306 307 307 307 307 306 307 307 307 307
308 308 309 309 310 310 310 310 311 311 316 310 305 294 301 299 301 300 300 301 307 307 307 308 309 309 308 305 304 297 302 300 293 287 288 299 302 303 305 306 305 304 306 305 305 306 306 306 305 305 306 308 307 306
308 308 309 311 310 310 310 310 311 318 315 307 307 297 301 305 306 306 308 307 310 311 310 308 307 307 304 300 301 297 295 290 292 290 295 299 304 304 304 305 304 305 306 306 306 305 307 306 304 303 306 306 305 304
309 308 317 310 310 310 310 317 319 320 314 310 306 302 304 303 302 304 305 304 309 310 312 309 304 302 299 299 294 290 289 287 290 296 299 302 304 306 306 305 305 305 306 307 307 307 306 307 307 306 306 306 304 304
307 322 310 310 309 310 312 322 319 311 309 305 305 307 304 303 303 304 305 305 310 307 303 304 296 295 300 294 292 297 294 297 299 301 301 304 306 306 307 305 305 305 304 304 306 307 307 307 307 306 305 306 304 305
321 321 312 310 311 320 323 320 314 311 304 309 305 306 307 306 304 304 306 307 306 306 304 300 303 296 292 289 292 296 298 301 305 303 303 305 307 307 305 305 304 304 303 304 303 306 306 305 305 303 305 305 304 304
316 314 310 309 312 317 317 315 316 307 308 312 312 310 309 307 308 308 307 307 308 308 306 303 297 295 295 298 297 299 300 300 301 301 302 306 306 305 305 304 304 303 302 302 301 301 303 305 303 303 304 304 302 302
308 309 310 311 312 320 311 314 319 311 307 309 313 309 308 308 308 307 307 306 305 303 300 298 297 298 298 300 300 300 300 301 300 299 300 302 304 305 304 302 300 302 300 302 302 298 302 302 303 303 302 302 301 300
311 319 316 320 327 322 317 315 314 312 313 311 313 309 307 312 306 304 305 307 303 301 299 301 301 302 305 304 303 302 301 301 300 299 298 297 300 302 301 301 301 300 299 300 300 300 299 300 301 302 301 300 300 300
323 312 325 324 320 319 319 321 314 317 313 312 311 310 308 306 305 304 307 305 302 302 303 302 302 302 302 303 303 303 303 303 303 300 299 299 299 299 299 300 299 298 299 299 300 299 299 299 299 301 300 299 300 299
314 319 324 321 314 309 308 322 311 312 307 307 310 306 307 307 308 310 305 306 306 307 308 306 306 307 304 304 304 304 303 301 299 299 299 299 299 302 300 300 300 298 297 298 300 299 299 295 298 299 299 299 298 298
308 320 315 312 312 305 316 311 315 311 312 308 307 302 304 306 311 305 301 305 306 310 307 308 306 303 304 305 301 301 301 300 299 299 300 298 297 298 300 300 300 300 299 299 299 299 299 299 296 299 298 297 297 297
307 306 309 296 313 307 303 304 305 306 301 304 302 304 306 311 303 301 300 304 307 307 308 309 305 304 302 302 300 301 303 300 298 297 299 298 297 298 298 299 299 299 299 298 297 298 298 298 298 297 297 296 295 296
295 309 303 307 309 306 306 300 301 301 303 302 304 309 311 305 298 296 303 306 308 308 307 305 303 302 302 302 300 299 299 300 299 297 298 298 297 296 295 295 295 297 299 299 298 297 297 297 297 296 296 294 290 295
299 305 313 319 314 313 310 310 311 306 301 301 304 303 302 297 297 302 307 310 308 310 309 309 305 304 303 303 304 303 301 301 299 298 299 299 298 299 297 295 294 296 298 299 298 298 296 296 296 296 295 296 296 296
312 313 307 311 312 313 307 308 304 302 304 309 306 300 299 299 300 308 310 311 311 311 310 309 309 306 304 303 303 301 301 301 301 300 300 299 300 300 299 299 299 291 297 298 297 297 297 296 296 295 295 295 296 297
313 314 312 308 309 309 309 306 307 308 312 308 303 302 305 310 312 312 313 316 314 312 309 306 306 307 303 304 303 303 300 299 296 294 294 295 295 296 299 299 298 299 299 297 290 293 295 294 295 295 295 296 296 296
311 317 310 308 306 306 310 312 310 312 313 313 312 311 311 312 315 317 316 314 311 309 307 307 307 305 302 302 300 300 302 302 300 297 294 294 295 298 298 298 297 297 297 297 297 296 291 295 294 296 296 295 295 294
316 315 310 310 307 310 313 314 315 316 315 313 313 311 309 313 315 314 314 314 314 313 308 306 306 307 303 301 299 297 296 300 300 299 298 298 299 298 298 298 297 298 297 296 295 295 294 294 294 293 293 293 293 292
312 310 309 306 308 314 316 313 310 309 310 311 310 313 314 313 309 315 311 311 311 309 298 302 304 302 303 302 301 300 290 300 302 301 299 299 298 298 299 298 298 297 297 296 295 295 295 293 292 292 292 292 293 293
312 311 310 309 308 308 312 311 309 308 309 308 309 311 310 309 306 310 310 308 307 306 306 305 304 303 302 301 300 301 294 301 294 289 290 289 287 290 295 297 297 297 296 296 296 295 294 294 293 292 292 292 292 292

GFSWCAN_sfc_thetae_036.txt.gz
Theta_e
310 310 310 310 311 311 311 311 311 311 311 311 312 312 312 313 313 311 308 308 300 294 295 299 299 295 297 296 291 296 294 295 295 291 288 289 290 291 292 294 292 293 291 291 294 293 292 309 309 305 313 316 315 316
310 310 310 310 310 311 311 311 311 311 311 311 312 312 312 312 313 312 305 309 306 298 297 303 302 304 303 302 298 297 295 295 296 292 294 292 290 292 292 288 297 290 295 294 296 297 311 311 308 311 311 310 313 312
310 310 310 310 310 310 310 311 310 311 311 311 312 312 312 312 313 312 309 307 304 297 297 298 299 305 306 306 307 295 297 298 297 300 294 294 291 294 289 292 294 298 301 296 297 300 303 305 308 309 310 309 311 312
309 310 310 310 310 310 310 311 311 311 311 311 311 312 313 313 313 312 306 306 305 299 291 298 308 304 308 307 306 304 302 301 300 299 294 292 290 297 292 294 293 296 298 297 297 301 305 305 306 308 308 310 309 310
309 309 309 309 309 310 310 310 310 310 310 311 312 312 312 312 312 314 314 310 309 300 294 296 303 306 307 305 304 304 302 300 298 293 291 290 294 293 294 295 293 298 296 294 294 302 303 306 308 310 308 308 310 310
309 309 309 308 309 310 310 309 309 310 310 311 312 312 312 312 310 315 304 310 311 307 296 292 302 302 304 304 302 301 300 299 297 291 289 291 295 291 288 287 295 298 299 299 297 303 303 305 308 309 308 309 311 311
308 309 309 309 309 309 309 309 309 310 310 311 312 312 311 312 313 306 302 307 310 308 297 292 296 303 304 303 301 300 300 297 293 289 287 288 289 291 287 285 291 294 295 295 297 298 298 301 302 307 309 310 311 311
308 308 309 309 309 309 309 309 310 311 311 311 311 312 311 309 308 308 309 309 310 302 299 293 295 300 304 299 297 299 294 293 292 290 290 288 289 288 284 291 297 303 304 305 303 303 299 303 305 307 309 310 309 308
308 309 309 309 309 309 309 310 310 311 311 310 311 311 314 310 308 308 309 308 310 304 295 295 291 294 303 300 300 297 295 291 294 289 288 288 285 285 289 296 297 300 303 306 304 303 306 300 303 305 307 308 307 308
308 309 309 309 309 309 309 310 311 311 310 311 312 311 305 311 310 310 305 301 302 303 302 299 299 295 300 299 297 297 296 296 293 298 295 290 289 297 300 301 301 301 304 305 303 300 298 299 301 304 305 307 308 308
308 309 309 309 310 310 310 311 311 310 310 314 311 311 314 311 310 307 305 303 306 303 305 307 304 301 305 298 299 303 300 299 295 296 295 291 289 296 302 302 303 302 304 303 305 307 306 306 305 305 306 309 310 312
308 309 309 309 310 310 310 310 310 311 318 313 316 318 316 311 309 304 301 304 303 299 308 307 309 306 308 306 300 305 302 301 292 301 292 285 295 302 303 303 304 305 303 304 304 303 305 305 306 306 308 308 308 307
308 309 309 309 310 310 311 311 311 311 309 320 315 311 310 308 296 295 292 299 300 305 307 308 305 308 312 311 308 305 298 297 302 294 287 294 302 304 303 303 304 306 306 304 304 303 304 305 305 304 304 306 306 307
308 309 309 309 310 311 311 311 311 313 313 312 306 293 303 300 302 302 302 303 307 307 308 309 308 310 308 304 304 298 301 300 292 287 289 297 302 304 305 305 303 302 304 304 305 305 303 302 302 302 303 304 305 304
309 309 309 311 311 311 311 311 311 317 317 308 308 296 302 305 305 305 306 306 307 310 310 308 309 307 303 300 300 298 295 289 290 290 297 300 304 305 304 303 304 303 302 304 305 304 305 304 303 301 302 302 302 303
309 309 319 310 310 310 310 315 317 321 314 310 307 302 304 303 303 304 304 304 308 309 311 309 303 299 298 298 295 294 291 288 293 298 302 303 305 305 305 305 304 304 304 302 305 304 306 305 303 302 303 302 301 301
307 324 310 310 310 310 312 321 320 311 311 307 306 308 306 304 303 304 305 305 309 307 302 303 297 295 300 295 293 297 294 298 302 303 305 307 305 304 306 306 304 303 304 303 303 305 305 306 308 304 300 301 301 303
319 322 313 310 311 320 324 320 315 312 305 309 306 307 308 307 306 306 306 307 306 305 304 300 302 296 293 290 292 296 299 300 303 304 304 306 307 307 306 304 304 304 303 303 304 305 304 304 304 303 304 305 304 304
315 313 310 309 311 316 316 315 317 308 309 311 310 311 310 309 310 310 308 309 309 308 305 302 297 295 295 298 297 298 299 299 298 301 304 307 309 308 308 304 303 302 302 303 302 302 302 305 302 301 301 302 299 299
308 309 310 311 313 322 312 315 320 311 308 309 312 310 309 310 309 308 309 308 306 304 300 298 298 299 299 300 301 300 301 301 300 299 299 300 301 304 305 302 300 303 301 303 302 299 302 301 302 301 300 299 298 297
317 321 316 321 327 323 315 313 314 313 311 309 312 313 309 311 308 306 306 309 304 301 300 302 301 302 306 305 304 304 302 301 300 300 298 297 300 302 301 301 301 300 300 299 300 299 298 298 299 300 299 299 299 298
325 314 324 325 320 318 316 317 313 316 312 311 310 310 307 306 306 306 308 306 304 303 304 304 304 303 303 304 304 305 304 304 304 302 300 299 298 299 300 300 300 299 299 299 299 299 298 298 298 300 299 299 299 298
317 320 324 321 314 309 305 319 312 312 306 307 309 305 305 307 309 312 304 306 306 308 308 307 308 310 308 308 307 307 305 303 300 300 300 300 299 300 300 300 300 299 298 299 300 300 299 296 298 299 299 298 299 298
310 321 316 313 311 304 315 311 313 310 310 306 305 302 305 307 310 306 301 305 306 309 309 310 307 305 307 309 303 302 303 302 300 300 301 299 297 298 300 300 300 300 299 299 299 299 299 299 297 298 298 296 297 297
307 305 308 295 311 308 306 304 304 306 302 305 303 303 306 310 302 301 300 304 306 306 306 307 306 305 302 302 302 302 304 300 298 298 300 299 298 298 298 299 299 300 300 298 298 298 298 299 298 297 297 296 295 296
295 309 300 307 308 306 306 302 303 304 304 302 304 307 309 306 301 298 303 306 307 307 307 306 305 303 303 304 302 301 300 301 300 297 298 299 298 296 296 295 295 296 299 299 298 297 297 297 297 297 296 296 293 296
297 307 312 315 311 310 309 309 310 306 303 302 304 305 303 294 297 304 309 310 310 310 311 310 307 305 304 304 304 303 303 303 300 300 301 301 300 299 298 296 295 296 298 298 298 297 296 297 297 296 296 297 297 296
312 312 306 311 312 311 308 305 302 303 303 306 306 301 301 301 302 309 310 313 313 312 309 309 309 307 305 305 304 302 301 301 302 302 301 301 302 300 300 300 299 292 298 298 297 298 296 296 296 295 296 296 295 296
311 313 313 309 309 310 308 304 302 310 312 309 305 304 304 308 308 311 313 313 314 312 309 309 308 307 306 306 305 304 303 301 298 295 295 295 296 297 300 299 299 299 299 298 290 293 295 295 296 296 296 296 297 297
312 317 312 309 307 307 309 314 313 313 313 311 311 311 312 313 315 316 315 314 312 310 310 309 308 306 303 302 301 301 301 301 300 297 295 294 295 298 299 298 298 298 298 298 297 296 292 295 294 296 296 295 295 295
317 314 310 310 308 312 314 314 315 313 314 313 310 305 308 311 313 315 314 313 311 310 309 306 305 306 303 300 299 298 296 300 301 300 299 299 299 299 298 299 298 298 298 297 297 296 296 295 294 294 294 294 293 293
313 311 309 306 307 312 316 313 312 309 310 309 310 312 312 312 310 312 311 310 308 306 301 304 303 302 303 302 301 300 292 300 299 299 299 298 297 298 298 298 298 298 298 297 297 296 295 294 294 293 293 292 293 293
313 312 312 310 310 307 310 310 308 308 310 309 306 308 310 309 306 309 311 310 307 305 304 304 304 303 303 302 301 301 296 297 293 290 290 290 289 291 295 296 296 296 296 295 296 295 295 294 294 294 293 293 293 294

GFSWCAN_sfc_thetae_039.txt.gz
Theta_e
311 311 311 311 311 311 311 311 311 311 311 311 312 312 312 313 313 311 307 308 300 293 295 298 299 295 294 294 290 294 292 293 292 287 287 287 287 289 288 291 291 289 289 289 289 290 289 302 304 298 307 309 308 307
310 311 310 311 311 311 311 311 311 311 311 312 312 312 312 313 313 312 305 309 307 298 297 302 302 303 301 300 296 297 293 293 294 290 290 289 286 290 288 285 294 288 292 290 292 292 300 302 301 305 306 304 305 305
310 310 310 310 310 310 310 310 310 311 311 311 312 312 312 313 313 312 308 307 303 297 297 298 300 305 306 304 305 294 296 298 295 297 292 291 288 291 286 288 289 293 297 290 292 296 297 302 304 306 306 305 305 305
309 310 310 310 310 309 310 310 310 310 310 311 312 313 313 313 313 313 307 306 305 299 292 296 306 303 308 307 306 305 302 302 300 299 292 291 288 293 288 289 288 292 294 291 292 295 298 302 301 304 304 306 307 307
309 309 309 309 309 310 310 310 310 310 311 311 312 313 313 312 312 312 311 308 309 301 294 295 302 305 306 304 303 302 301 299 296 292 290 288 291 290 291 290 289 295 291 288 287 294 294 296 300 302 301 303 306 307
309 309 309 309 309 310 309 310 310 310 311 312 312 313 313 312 311 312 302 307 309 307 297 291 303 303 305 305 302 300 300 298 296 291 289 291 295 291 285 285 293 295 295 295 292 296 296 298 300 301 300 302 306 307
308 309 309 309 310 310 310 310 310 311 311 312 312 312 313 312 311 305 301 307 310 308 298 293 297 304 304 304 301 300 299 295 293 289 287 288 288 291 286 284 291 295 299 302 303 298 295 297 296 302 304 305 308 307
308 309 309 310 310 310 310 310 310 311 312 312 312 312 310 309 307 307 307 309 310 302 299 295 297 300 304 300 298 299 294 294 292 290 290 288 289 287 284 291 296 297 299 301 304 304 299 301 302 302 304 303 302 305
308 309 309 309 309 310 310 310 311 312 311 311 312 312 312 309 308 307 310 308 311 303 297 299 294 294 303 301 301 298 296 292 293 290 289 288 285 285 290 294 296 297 297 298 304 304 301 300 303 303 302 304 302 304
308 309 309 309 310 310 310 311 311 311 311 311 310 311 306 309 311 311 306 302 301 302 302 299 300 297 300 300 299 298 297 295 292 295 294 289 288 298 300 301 300 300 300 300 297 298 302 299 300 301 302 303 304 305
308 309 309 309 310 310 310 311 311 310 310 310 311 311 311 311 309 305 305 303 304 301 305 304 304 301 306 298 298 301 299 298 291 293 294 289 289 297 301 301 303 303 302 300 300 301 302 301 302 304 306 306 306 307
308 309 309 309 310 310 311 311 311 310 317 310 310 319 313 308 306 304 301 304 303 297 307 304 304 306 306 307 299 303 298 299 291 299 291 285 294 300 301 301 302 304 304 302 301 300 301 301 301 302 305 305 305 305
308 308 309 309 310 310 311 311 311 311 312 319 314 312 310 307 297 293 288 300 301 307 307 306 305 309 310 308 304 302 297 294 301 292 287 293 298 299 301 301 301 301 305 303 301 301 301 302 302 301 300 304 304 304
308 309 309 309 310 311 312 312 313 312 312 311 309 293 302 302 302 301 299 300 304 304 305 310 308 306 308 304 302 296 299 297 290 285 288 296 299 301 302 302 300 299 299 303 303 302 301 300 300 301 301 301 301 300
308 309 309 311 311 311 311 312 312 314 314 311 309 294 302 304 304 304 305 304 305 307 307 307 307 307 302 299 300 296 293 288 290 290 295 299 301 302 301 301 300 299 299 298 303 303 301 300 299 299 301 301 300 301
309 309 317 311 311 310 310 314 313 318 319 312 310 303 305 302 302 303 303 302 306 307 307 308 302 299 297 298 294 292 289 287 292 298 301 302 302 302 302 303 302 301 300 300 301 304 302 301 301 299 300 301 300 300
308 320 311 311 310 310 312 322 324 316 311 309 307 309 308 305 303 304 305 304 309 305 301 302 297 295 299 293 292 296 292 296 301 302 304 304 303 303 303 304 303 302 302 301 301 302 303 302 301 299 298 300 301 301
314 322 313 310 310 317 330 322 317 312 306 310 307 309 312 309 307 308 309 309 307 303 303 301 301 295 293 290 291 295 297 299 299 300 303 305 306 305 305 304 303 303 303 301 302 303 301 300 300 299 299 298 296 297
311 311 310 309 310 312 319 318 320 308 309 312 314 312 311 312 313 314 311 312 313 310 306 302 297 294 294 297 296 297 298 297 296 299 302 305 306 304 305 304 301 301 303 301 300 300 301 300 298 298 297 296 294 295
308 309 310 310 312 320 318 318 325 315 309 312 316 313 313 312 313 312 311 309 309 305 301 298 297 299 299 301 303 301 300 300 299 297 298 299 300 301 304 302 300 301 299 302 298 297 297 297 298 298 297 295 294 294
317 322 316 316 324 319 319 315 315 316 314 311 313 315 312 314 312 308 308 313 306 303 300 302 302 304 307 306 307 306 305 302 300 299 298 297 299 300 302 301 300 299 298 297 298 296 296 295 296 297 297 295 295 295
324 317 324 327 320 321 318 321 315 318 315 314 313 313 311 309 309 308 312 308 305 305 307 306 307 307 307 306 305 306 306 305 305 303 300 299 297 297 298 299 299 297 297 297 297 296 296 296 296 297 296 296 296 295
318 320 324 323 314 305 303 323 314 315 308 310 311 307 308 307 311 314 306 308 308 312 310 310 311 311 309 311 311 309 307 305 301 301 300 299 299 300 298 299 299 297 296 297 298 298 297 296 297 296 296 295 296 296
313 320 317 314 311 302 316 313 315 312 312 309 307 303 306 307 310 305 303 306 307 309 310 313 312 309 310 310 307 304 304 302 299 299 299 297 296 297 298 298 298 298 297 298 297 298 298 298 296 296 295 294 296 296
305 304 306 292 311 309 305 306 307 306 303 306 305 306 308 305 298 300 300 304 306 307 309 310 309 306 303 303 303 302 303 299 297 297 298 298 297 296 296 297 296 296 297 296 296 297 297 297 297 296 295 294 295 295
294 309 301 308 310 307 306 303 302 300 302 300 305 308 307 302 298 298 300 305 308 307 307 307 305 304 304 306 303 301 301 301 301 297 298 299 297 295 295 294 293 293 296 297 296 295 296 296 296 296 296 295 294 295
296 307 313 318 314 311 306 308 307 305 300 301 303 304 303 298 297 298 304 308 308 310 311 310 309 306 305 306 305 303 302 303 302 301 301 301 300 299 298 295 293 295 298 297 296 295 294 294 295 295 295 295 295 295
312 315 308 312 312 311 306 302 303 303 305 308 306 302 300 301 300 305 309 311 311 313 311 311 311 308 307 305 304 304 304 303 302 303 301 301 301 300 300 299 298 294 295 295 295 296 295 295 294 295 295 295 294 295
311 314 312 309 311 308 308 306 306 309 312 310 305 304 303 305 309 309 314 315 314 312 309 308 309 309 307 308 305 305 303 301 298 296 295 294 295 296 298 298 298 298 298 296 292 293 294 294 294 294 295 296 296 296
311 316 311 310 309 307 312 313 312 314 314 314 312 311 312 312 315 316 315 311 310 309 310 308 307 306 303 300 299 299 300 300 299 296 294 293 294 297 298 298 297 297 297 297 296 297 294 295 294 295 295 294 293 293
314 313 310 310 309 311 313 315 317 316 311 310 311 308 309 310 313 316 311 311 310 309 307 303 302 302 300 298 297 296 296 299 299 298 297 297 297 297 297 298 298 298 298 297 296 295 295 294 294 293 293 293 293 292
314 312 308 307 310 315 317 312 312 310 310 310 307 310 312 309 308 309 310 309 306 304 301 302 300 298 300 300 300 299 297 296 296 295 295 294 294 295 296 296 296 296 296 296 296 295 295 294 293 293 293 293 293 293
314 312 314 311 310 310 311 311 310 309 309 308 308 310 310 307 302 307 314 311 306 303 303 302 302 302 303 302 298 297 296 295 292 290 290 290 289 292 294 294 294 296 296 296 296 295 294 293 293 294 294 294 293 293

GFSWCAN_sfc_thetae_045.txt.gz
Theta_e
310 310 311 311 311 310 310 310 310 310 311 311 312 312 312 313 313 309 305 306 301 294 295 297 298 295 295 293 287 293 289 289 288 284 284 283 283 286 285 287 287 286 285 285 287 287 287 298 300 293 294 300 299 299
310 310 310 310 311 310 310 310 310 311 311 311 312 312 313 313 312 311 302 308 307 299 298 299 302 303 301 300 296 296 292 292 290 286 286 287 286 287 286 282 292 286 288 286 287 289 297 298 300 301 300 298 298 298
310 310 310 310 310 310 309 310 310 311 311 311 312 313 313 313 313 311 306 305 303 297 295 295 297 305 307 304 305 294 296 298 295 295 289 288 286 288 283 284 288 291 294 288 288 291 293 297 300 300 301 300 301 301
309 310 310 310 310 310 310 310 311 311 311 312 312 313 313 313 313 310 302 305 301 295 287 292 303 299 303 305 304 304 301 301 298 290 286 288 287 290 287 288 289 291 292 289 289 292 295 298 299 301 302 302 302 303
309 309 309 310 310 310 310 311 311 311 312 312 312 312 312 312 313 309 303 302 299 295 288 290 295 299 301 302 301 300 299 297 295 291 289 287 291 289 289 288 289 294 291 289 287 295 295 295 299 302 300 301 302 301
309 309 309 309 309 310 310 311 311 311 312 312 313 313 313 313 312 309 298 302 303 300 291 289 297 298 300 300 298 297 297 295 293 290 289 290 293 290 285 286 293 296 297 297 295 299 301 302 304 304 301 302 303 303
309 309 309 310 309 309 309 310 311 311 312 312 312 312 312 311 304 300 296 301 306 301 295 291 292 298 300 297 296 296 295 292 293 290 288 289 290 291 285 285 294 296 297 297 299 299 297 301 299 302 303 304 305 305
308 309 309 310 309 309 309 310 310 311 311 311 311 310 310 309 306 300 301 307 303 297 294 294 295 294 296 292 291 293 290 291 293 291 291 289 290 288 285 293 297 297 297 297 298 299 298 300 301 302 304 303 301 301
308 309 309 309 310 309 309 310 311 311 311 311 311 311 306 302 299 301 309 307 301 297 290 292 293 293 298 293 293 292 290 289 293 291 290 289 286 286 289 292 296 297 296 294 297 298 298 297 298 302 303 302 301 301
308 309 309 309 309 310 310 311 311 310 310 310 306 303 299 301 311 308 300 299 299 295 292 292 294 295 297 297 297 295 295 293 290 292 294 288 286 292 295 295 296 300 299 297 294 294 295 295 296 297 299 303 304 304
308 308 309 309 309 309 310 310 310 309 308 302 301 300 301 310 301 302 299 293 293 292 292 293 293 295 302 296 296 298 294 292 282 290 290 288 287 290 295 295 296 297 297 296 297 298 296 297 296 297 297 299 300 302
308 308 308 309 309 310 310 310 310 303 304 304 303 305 301 300 298 295 291 292 290 290 295 295 297 301 299 301 294 295 292 291 283 290 287 285 289 293 293 295 295 297 298 298 298 296 297 297 298 297 297 297 298 299
308 308 308 309 309 310 310 310 310 308 307 304 303 299 300 297 287 287 282 288 288 292 296 297 298 299 299 297 298 296 291 286 290 287 285 287 291 293 292 294 295 294 298 297 297 297 297 297 297 297 296 297 297 297
307 308 308 309 309 310 310 310 311 309 303 301 301 287 292 289 291 290 290 290 294 294 294 293 297 295 296 295 291 289 289 289 284 283 282 287 291 293 293 294 293 293 297 297 295 296 296 296 296 297 298 297 297 296
308 308 308 309 311 311 310 310 311 305 305 302 298 286 291 295 294 295 294 293 295 295 293 297 295 293 291 291 289 288 286 280 284 284 287 291 293 293 293 293 292 293 293 298 297 296 295 296 296 297 298 298 297 296
308 308 310 310 310 309 309 310 307 307 307 304 300 293 294 293 293 294 294 293 294 295 294 294 291 289 289 288 287 285 283 279 285 290 291 292 293 293 293 294 293 294 292 294 297 297 296 296 295 296 299 298 298 296
307 306 311 309 308 308 309 308 310 309 306 300 299 296 295 294 294 294 294 294 294 293 290 290 289 287 288 286 284 286 283 285 288 289 289 291 293 293 294 294 294 292 292 292 294 296 296 296 296 296 294 296 297 297
303 308 309 308 307 306 311 308 310 306 300 300 298 297 297 296 295 295 296 296 294 292 291 290 290 287 285 284 283 286 288 288 288 287 289 291 291 293 294 294 294 291 291 292 292 292 294 294 293 291 288 290 292 295
304 305 308 308 307 303 308 311 308 301 302 299 301 298 299 298 298 297 297 297 295 294 293 290 288 286 286 287 287 288 288 287 287 289 290 291 290 289 290 293 290 291 290 289 287 287 287 288 288 287 287 288 288 290
308 309 310 310 308 307 310 310 308 303 301 299 299 299 299 298 299 298 298 296 294 293 291 289 289 290 289 290 290 290 290 290 289 288 288 291 291 289 290 290 290 290 288 287 287 290 288 288 287 287 288 288 287 287
308 313 311 308 306 307 308 306 301 303 302 299 300 301 301 301 301 301 297 299 295 292 290 291 293 294 294 293 293 293 291 291 291 290 289 289 291 288 288 289 289 288 287 287 287 287 288 287 287 287 288 287 287 288
306 313 311 310 311 312 308 308 302 302 301 301 301 302 300 299 300 300 303 299 296 293 295 295 295 296 294 294 294 294 296 294 292 290 292 290 287 287 287 288 288 288 288 288 287 287 287 287 287 287 288 288 289 289
310 311 312 314 310 299 299 305 301 302 300 301 303 302 299 299 302 306 300 297 300 302 301 299 301 300 298 297 296 296 297 294 291 287 287 286 287 287 287 287 288 289 288 288 289 287 287 289 290 289 289 289 288 288
311 311 308 306 303 296 303 302 305 304 303 300 298 297 298 299 304 300 298 298 301 303 302 303 304 299 298 297 296 298 294 290 290 287 286 287 286 285 286 285 286 287 287 288 289 289 288 288 289 289 289 289 289 288
299 298 298 290 300 300 300 301 301 300 297 298 297 299 299 300 295 296 295 299 300 301 302 304 298 298 293 293 290 292 293 292 288 287 287 287 286 285 286 285 286 286 287 288 287 289 289 289 290 290 289 289 289 289
294 303 296 301 301 300 300 298 300 298 298 297 298 302 303 297 295 293 297 298 299 301 300 298 297 295 293 291 289 288 290 291 289 286 287 287 287 287 285 284 284 287 287 286 288 289 290 291 291 291 290 290 290 289
294 300 303 305 303 303 301 302 302 299 298 297 298 297 297 291 291 293 299 299 300 303 302 301 299 295 294 290 291 294 293 290 290 289 289 288 287 289 288 287 286 286 287 289 289 289 290 290 289 290 289 289 290 290
306 305 301 303 302 304 301 299 298 297 299 302 298 294 294 294 293 296 300 302 304 303 301 301 298 298 293 292 291 293 292 292 293 293 291 290 292 291 291 291 289 290 290 290 290 290 290 290 290 290 290 289 288 289
305 305 304 301 303 303 301 300 300 301 303 301 298 297 297 299 301 302 303 304 304 301 299 298 292 293 292 293 292 292 290 290 291 289 288 287 288 289 290 289 290 291 290 291 291 290 290 290 290 291 291 291 291 290
303 306 303 303 302 301 304 305 304 305 305 304 304 300 299 301 304 305 301 295 292 290 291 292 292 293 290 289 287 287 288 288 287 287 285 284 285 288 290 291 291 290 291 293 290 289 292 291 290 289 289 288 287 287
306 306 303 302 301 303 306 305 305 304 305 304 303 299 299 300 301 301 294 292 291 290 290 289 288 289 288 287 285 284 283 285 287 288 287 286 286 287 287 287 290 293 294 293 291 290 288 287 287 287 287 287 288 288
305 304 302 300 301 304 304 302 302 301 302 301 300 302 300 300 298 296 297 292 290 289 291 289 288 287 287 287 287 286 288 285 286 286 286 285 285 285 286 289 290 291 292 293 292 290 289 288 287 287 287 287 287 287
305 304 304 302 301 300 302 303 301 300 300 300 300 302 303 299 294 296 296 294 291 290 289 289 289 288 288 288 288 287 287 286 288 289 289 289 289 287 285 287 290 291 290 289 289 288 288 288 287 288 287 287 286 287

GFSWCAN_sfc_thetae_048.txt.gz
Theta_e
310 310 311 311 310 310 310 310 310 311 312 312 312 312 312 313 312 308 302 305 301 295 296 298 298 295 296 293 287 293 289 287 288 284 284 283 282 285 284 287 285 284 282 282 284 284 286 295 298 292 294 297 298 297
310 310 310 310 310 309 310 310 311 311 311 312 312 313 313 313 312 310 298 308 307 299 297 301 302 303 302 301 296 295 292 292 292 287 287 286 284 285 285 282 290 285 287 285 287 287 294 296 297 298 299 297 298 299
310 310 310 310 310 309 310 311 311 311 311 312 313 313 313 313 313 308 303 305 303 296 292 292 294 302 305 305 306 293 296 297 295 295 290 288 285 286 283 285 288 291 293 288 287 291 294 297 300 300 301 300 302 303
309 310 310 310 309 309 310 311 311 311 312 312 312 313 313 313 313 308 300 300 297 291 286 291 300 298 304 302 302 303 301 300 296 292 290 288 286 290 286 287 288 291 292 289 288 293 296 299 300 301 302 303 303 304
309 309 310 310 309 309 310 311 311 312 312 312 312 312 312 312 313 306 300 302 299 295 289 289 294 297 300 301 300 300 297 294 293 290 288 286 290 288 290 289 288 293 291 289 288 295 295 297 301 304 302 301 303 303
309 309 309 310 309 309 310 311 311 311 312 312 313 312 313 312 312 309 296 300 302 298 294 289 294 295 297 301 298 295 296 294 291 290 288 290 293 290 285 285 293 295 297 297 294 298 299 300 301 302 301 303 303 303
309 309 309 310 309 309 310 311 311 311 311 312 312 312 312 311 303 299 295 299 304 299 292 294 293 298 299 296 294 293 292 291 292 291 289 289 289 290 286 285 294 296 296 296 298 298 296 298 297 302 303 304 305 305
308 309 309 309 309 309 309 310 310 311 311 311 311 310 310 309 305 300 300 306 302 295 292 291 295 297 301 294 292 292 289 290 291 291 292 289 290 289 285 291 296 297 298 296 296 298 297 299 299 299 301 304 303 302
308 309 309 309 309 309 309 309 310 311 311 311 311 311 305 301 297 300 308 306 302 296 289 293 290 293 300 297 295 291 290 290 292 290 290 290 286 285 289 292 294 297 295 295 297 297 298 296 297 297 298 299 300 301
308 308 308 309 309 308 309 310 311 311 310 310 304 302 298 299 309 307 301 299 299 298 294 292 294 295 299 297 297 294 293 292 288 292 295 288 285 292 294 295 295 298 298 297 293 292 294 295 295 296 296 297 297 299
308 308 308 309 309 308 309 310 310 309 307 301 300 299 300 309 302 302 298 295 292 294 293 292 294 292 298 296 296 298 292 292 286 289 290 287 283 289 294 294 296 299 299 297 296 296 297 296 296 295 295 296 296 296
308 308 308 308 309 308 310 310 310 303 302 303 302 303 300 300 299 294 289 289 288 289 293 293 296 299 297 300 294 295 294 292 283 289 288 279 287 292 293 293 295 296 298 297 297 295 295 296 296 296 296 296 296 297
308 308 308 308 309 310 310 310 309 308 306 303 301 297 299 295 285 285 281 287 287 290 293 294 294 298 297 296 297 297 291 285 289 287 284 284 289 293 293 293 294 295 298 297 297 297 296 296 296 296 295 296 297 296
308 308 308 308 308 310 310 310 310 309 301 299 299 288 291 288 290 290 290 290 292 292 292 291 295 293 294 294 289 287 288 287 283 282 280 286 290 292 293 294 292 293 296 297 297 297 296 296 295 296 296 296 295 295
308 308 308 308 310 310 310 310 310 305 303 300 297 286 291 294 293 294 293 292 293 293 291 295 292 292 290 289 288 286 285 280 280 281 286 290 292 292 293 293 292 293 293 296 297 296 296 296 295 295 296 296 296 295
308 307 309 309 309 309 309 310 306 305 304 302 299 294 293 291 292 292 292 292 293 292 292 292 289 288 287 286 286 285 283 277 283 288 290 290 291 293 293 293 293 293 292 292 297 297 296 295 295 295 296 297 297 296
307 304 309 308 308 308 309 306 306 305 304 300 297 295 294 293 294 293 293 294 292 291 289 289 288 286 287 285 285 285 283 286 287 288 288 288 290 292 294 294 294 293 293 293 295 296 296 297 296 295 293 295 295 298
301 304 308 308 307 306 306 305 307 306 300 299 296 300 297 296 294 294 295 295 293 290 291 289 290 287 285 284 284 287 288 288 288 287 288 289 290 290 290 289 294 292 293 293 293 294 294 295 294 292 288 289 292 292
304 305 307 308 306 303 306 308 307 299 300 299 298 297 297 298 300 301 299 296 294 294 292 290 288 286 287 287 288 289 289 288 288 289 289 290 290 290 290 291 292 292 290 289 289 288 289 291 289 288 289 289 289 289
307 309 310 309 308 306 307 307 306 301 299 299 298 298 297 298 300 301 301 299 296 297 294 292 290 290 291 292 292 291 290 289 289 288 289 290 291 289 289 288 290 290 288 288 289 290 289 289 289 289 289 289 289 289
307 310 308 307 305 306 306 305 301 301 301 299 298 300 299 303 302 300 297 297 298 296 294 294 294 294 298 296 294 293 292 291 290 290 290 289 291 287 288 289 288 289 289 288 288 289 289 289 289 289 289 289 290 291
306 311 308 309 309 309 306 308 303 300 300 301 302 301 299 298 298 299 301 300 298 296 296 297 297 302 301 298 296 294 294 293 293 290 291 289 287 287 287 287 289 289 291 291 289 289 289 289 289 289 290 290 291 292
310 309 310 312 307 298 299 304 299 301 299 300 300 298 297 299 299 303 297 298 300 303 302 302 303 304 301 298 298 298 297 295 289 287 287 287 287 287 287 287 288 290 290 290 290 289 289 290 291 290 291 291 291 291
309 309 306 305 302 296 303 300 303 302 300 297 296 295 297 297 299 295 294 296 301 301 300 303 304 296 295 296 296 298 297 291 289 288 287 287 287 286 286 286 287 288 288 289 290 290 291 291 291 291 292 291 291 291
298 297 297 288 298 299 298 299 299 298 296 297 297 295 295 297 292 292 292 295 297 298 302 300 298 296 294 293 291 291 291 292 291 288 288 288 288 286 286 287 287 287 288 290 289 290 290 291 292 292 293 292 291 290
292 301 295 299 299 298 298 296 297 297 297 296 297 298 298 294 292 291 294 296 297 299 300 299 297 296 294 292 290 289 291 293 289 290 288 288 289 288 286 288 288 288 289 289 291 292 292 292 292 292 292 291 290 292
293 299 300 301 301 301 299 301 301 297 296 297 298 296 296 290 290 293 297 298 299 301 301 300 298 295 292 290 291 293 293 290 291 291 290 290 290 289 289 291 290 289 290 292 292 292 292 291 291 291 291 291 292 292
303 303 300 301 301 302 299 299 298 296 299 300 297 294 294 293 292 296 298 301 302 302 299 296 291 292 292 292 291 289 289 290 290 290 292 290 291 292 294 291 292 291 292 292 292 292 292 292 292 292 291 291 291 291
302 306 304 301 301 301 300 299 299 300 302 299 297 296 296 298 300 300 302 301 300 300 293 291 290 290 290 288 289 288 288 289 290 289 288 287 288 289 291 292 293 294 292 292 291 291 293 293 293 293 293 292 292 291
300 304 301 302 301 300 302 303 302 303 303 303 301 299 299 300 302 301 294 292 293 294 291 290 289 288 286 286 285 286 287 287 287 288 286 286 286 288 291 294 295 293 294 294 292 292 291 292 291 292 291 290 290 291
304 303 302 302 300 302 304 304 304 304 304 302 300 298 298 299 299 295 293 290 289 290 290 288 287 287 286 286 285 285 285 286 287 287 287 286 287 288 289 291 293 295 295 294 292 291 290 289 289 289 290 290 290 290
304 303 302 300 300 303 303 301 301 300 301 300 299 300 300 300 296 296 295 291 290 289 290 289 288 288 288 287 286 287 287 287 287 287 288 287 288 289 291 292 293 293 293 292 292 292 291 290 290 289 289 290 290 290
303 303 302 300 299 299 301 301 300 299 300 299 300 301 300 300 296 295 294 293 291 290 289 289 288 288 288 288 288 288 288 288 289 289 289 289 288 288 290 291 292 292 292 291 290 291 290 290 290 289 289 289 289 289

GFSWCAN_sfc_thetae_051.txt.gz
Theta_e
311 311 311 311 310 310 310 311 311 312 312 312 312 313 313 313 313 311 308 308 303 297 299 299 299 296 296 294 289 292 293 292 291 286 286 285 283 286 285 288 285 284 284 284 285 282 282 294 296 296 298 302 301 300
310 310 311 310 310 309 310 311 311 312 312 312 313 313 313 313 313 310 306 309 308 300 300 304 304 304 302 301 297 296 293 293 292 287 288 288 285 287 287 282 290 284 288 287 289 288 295 298 297 301 305 304 303 301
310 310 310 310 309 309 310 311 312 312 312 312 313 313 313 313 313 310 308 308 305 301 300 301 302 306 308 306 307 295 297 299 296 296 290 289 285 287 283 285 287 289 294 290 289 293 295 297 300 303 304 305 305 305
310 310 310 310 309 309 310 311 312 312 312 312 312 313 313 313 313 310 308 308 305 300 296 299 304 304 307 306 305 305 303 303 300 296 292 289 287 290 286 287 287 291 292 289 290 293 297 299 300 302 303 306 305 305
309 309 310 310 309 309 310 311 311 312 312 312 312 312 312 313 312 310 309 309 307 302 296 299 303 305 304 304 302 302 300 299 296 293 291 287 290 288 291 291 287 292 290 287 288 293 295 296 300 302 303 304 306 304
309 309 309 310 309 309 310 310 310 311 312 312 313 313 313 312 312 310 305 307 308 307 300 296 300 302 302 304 302 300 300 298 296 292 291 293 294 291 288 286 293 296 296 295 293 297 298 299 301 301 302 305 307 306
309 309 309 310 309 309 309 310 310 311 312 312 312 312 312 311 312 306 302 306 307 307 300 298 297 301 302 303 302 301 299 298 298 295 293 292 292 293 290 285 295 297 298 296 298 298 295 297 296 300 301 303 306 306
308 309 309 309 309 309 309 309 309 310 311 311 311 311 311 310 308 306 309 308 307 303 300 297 298 298 303 298 297 300 298 299 297 296 297 292 295 292 287 295 298 298 298 297 296 298 297 299 299 298 300 300 300 300
308 309 309 309 309 309 309 309 310 311 311 311 311 311 310 308 307 307 308 309 307 303 299 296 295 297 302 299 297 297 299 295 298 296 296 295 287 286 293 296 297 298 297 295 297 297 297 297 296 297 297 297 296 297
308 308 309 309 309 309 308 308 310 311 310 310 309 308 306 308 309 309 304 301 302 300 298 294 299 299 303 300 298 296 297 294 291 295 298 291 290 298 299 299 300 301 300 298 294 293 294 294 294 295 296 297 297 297
308 308 308 309 309 309 308 308 310 309 308 308 308 308 308 309 307 304 300 298 300 297 298 297 300 300 306 300 300 300 294 294 288 292 292 291 291 296 300 300 301 302 301 300 299 298 297 297 296 295 295 296 297 298
308 308 308 308 309 309 309 309 310 309 309 309 309 308 308 306 303 299 296 297 297 297 302 302 304 302 304 306 301 301 296 294 288 297 290 286 295 300 300 300 300 302 301 300 300 298 298 298 298 298 297 296 296 297
308 308 308 308 309 309 310 310 309 308 308 311 308 306 305 303 293 293 290 296 297 301 301 303 299 305 303 305 302 300 294 292 297 291 288 294 299 301 301 301 300 301 303 301 300 300 299 299 300 299 298 299 299 298
308 308 308 308 308 309 310 310 310 309 309 306 305 293 298 296 297 298 299 299 302 300 301 300 301 304 304 300 299 294 295 295 288 285 288 297 300 301 302 302 300 299 301 303 301 301 300 300 300 301 301 300 299 298
308 308 308 308 309 309 309 310 310 311 309 305 305 295 298 303 301 302 302 300 303 302 301 303 301 301 299 296 297 294 290 287 289 289 296 301 301 302 302 302 300 301 300 302 303 302 301 301 301 302 303 303 301 300
308 308 310 308 308 309 309 310 311 311 310 307 306 303 303 299 302 301 302 302 303 302 301 301 298 295 294 295 292 290 288 287 292 298 300 299 299 301 303 303 302 303 301 301 303 304 303 302 301 302 303 303 302 302
307 310 308 308 308 308 309 311 310 309 308 306 305 308 305 301 302 304 304 304 303 301 299 299 294 292 294 292 290 293 292 295 297 298 297 298 299 300 300 300 301 302 301 302 303 304 304 304 304 301 298 299 300 301
306 309 307 307 307 309 311 310 312 311 307 310 305 308 304 304 303 304 304 304 302 300 299 297 298 293 290 289 291 296 297 297 297 297 298 298 300 300 299 298 300 301 302 302 302 302 303 303 299 297 298 298 298 298
307 307 308 308 307 308 310 312 312 307 308 309 307 306 306 306 307 308 307 305 301 302 300 297 292 290 292 293 293 295 295 296 295 297 298 300 300 300 298 299 301 300 301 300 299 299 300 298 297 298 297 297 296 297
308 309 310 309 309 310 310 314 314 308 306 309 307 307 306 307 309 309 306 304 302 302 299 295 292 295 295 298 298 297 297 297 296 296 298 300 300 298 298 298 298 300 299 298 298 295 298 297 298 297 297 297 297 297
309 313 309 312 310 310 312 312 311 310 310 308 307 309 308 312 309 307 306 305 301 300 297 298 297 300 305 305 303 298 297 298 299 300 299 297 298 297 298 297 298 298 296 296 297 296 295 298 297 297 298 298 298 298
312 311 315 312 314 315 314 316 312 311 308 308 310 310 307 306 305 306 308 305 302 299 300 301 303 306 306 305 306 305 303 303 302 300 295 296 297 297 296 296 298 297 298 298 298 298 297 297 297 298 298 298 298 298
311 313 316 316 313 304 304 311 307 308 306 308 308 305 305 305 306 309 305 306 305 307 306 305 307 309 307 308 306 304 303 303 301 297 297 297 296 296 296 296 297 297 296 297 298 298 296 293 294 297 297 298 298 297
310 315 312 311 309 303 311 307 309 308 307 305 303 301 303 304 306 303 301 304 306 308 304 306 307 305 305 306 305 305 305 301 300 296 297 296 295 294 294 295 296 297 297 298 298 297 298 297 295 297 297 296 296 296
301 302 303 292 304 305 302 304 304 304 301 303 301 301 303 305 300 299 300 303 305 307 308 310 308 306 302 302 302 300 299 299 300 300 297 296 295 295 294 296 295 295 296 297 296 297 297 297 297 298 297 296 295 295
290 304 299 304 305 304 304 301 301 302 302 301 302 306 306 302 297 295 302 305 306 308 309 308 306 304 300 301 299 298 299 300 298 297 297 296 296 295 293 295 294 294 296 296 297 297 297 297 297 297 296 295 292 296
295 304 309 310 307 308 306 307 307 304 302 300 304 302 302 295 295 300 306 308 309 311 310 309 306 300 298 299 301 299 299 299 298 297 297 297 296 298 299 296 295 295 297 297 298 297 297 296 296 296 296 296 297 297
308 309 305 307 307 310 305 304 303 302 304 307 305 299 298 297 298 306 307 310 311 308 300 299 298 297 296 295 296 296 297 297 297 297 296 296 297 297 298 298 298 292 297 296 297 299 298 297 296 296 296 295 296 297
307 313 311 308 307 307 307 307 306 308 310 308 304 302 303 307 309 309 309 308 308 300 298 296 295 296 296 295 295 295 296 297 296 294 293 293 293 294 299 299 299 300 298 297 291 295 298 297 297 297 296 297 297 298
307 311 308 307 306 306 310 311 311 311 312 311 309 307 308 309 309 305 303 303 302 298 297 297 296 296 294 294 293 292 294 294 294 293 291 291 292 294 297 300 299 298 299 298 297 296 292 296 294 296 296 296 297 297
311 311 309 308 308 309 311 311 312 312 311 310 308 307 305 306 304 301 299 299 298 297 297 295 295 295 294 294 293 292 290 293 294 295 295 296 296 297 298 298 299 301 301 299 297 296 296 295 295 294 294 294 294 294
310 310 309 306 307 310 310 309 308 308 308 307 307 307 306 306 302 301 300 299 298 297 294 296 294 293 294 294 294 293 291 293 294 295 296 297 297 298 299 299 299 299 298 297 297 296 295 295 295 294 294 294 294 294
310 310 308 307 306 305 307 307 306 305 306 305 306 306 305 304 302 301 300 301 300 298 297 297 296 295 296 295 294 293 293 294 292 288 289 289 288 292 297 298 298 297 296 296 296 296 295 294 294 294 294 293 293 293

GFSWCAN_sfc_thetae_057.txt.gz
Theta_e
312 311 312 312 311 311 311 312 313 313 312 313 313 313 313 313 312 314 315 319 312 308 308 308 306 304 302 303 297 301 299 299 294 289 289 289 288 288 287 293 290 290 288 287 290 286 284 302 300 293 297 297 297 306
311 311 311 311 311 311 311 312 313 313 312 313 314 314 314 313 313 313 315 319 318 310 310 314 312 311 308 306 304 302 299 298 298 290 290 290 287 290 287 287 297 290 294 292 292 292 301 301 300 305 302 297 298 306
311 310 311 311 311 310 311 312 312 312 312 313 313 313 314 314 314 312 316 319 315 310 308 306 308 313 315 312 312 300 305 304 300 302 294 291 286 289 286 287 290 295 297 292 293 297 296 298 301 301 300 298 302 307
310 310 311 311 310 310 310 311 311 312 312 312 312 313 313 314 314 313 317 318 314 311 305 303 314 311 314 315 312 311 308 309 306 303 296 292 289 293 289 290 289 291 293 290 290 294 294 297 299 299 300 303 307 309
309 310 310 311 310 310 310 311 311 312 312 313 313 313 313 314 314 315 318 319 321 310 305 304 312 313 312 313 310 311 309 307 306 301 297 293 294 292 294 292 290 294 290 288 287 293 293 294 298 300 300 304 305 306
309 309 310 310 310 310 310 310 310 311 312 313 314 314 313 314 313 314 310 319 320 315 305 301 315 311 313 313 312 312 311 307 306 303 301 300 300 296 289 287 294 298 297 296 292 296 297 298 300 300 300 304 305 304
309 309 310 310 310 310 310 310 310 311 311 313 312 313 314 313 316 311 310 312 311 316 304 303 307 313 313 313 312 311 310 306 305 303 304 303 299 300 294 287 296 297 299 298 297 296 294 297 295 299 301 303 303 303
308 309 309 310 310 310 310 309 310 310 311 312 312 312 313 313 312 312 317 310 312 310 309 304 307 309 314 310 308 311 306 308 305 304 305 302 302 300 288 297 299 298 299 299 299 299 297 300 299 299 300 301 300 299
308 309 309 310 310 310 309 309 309 310 311 312 312 312 315 313 311 313 312 311 317 310 303 309 302 300 314 310 310 308 306 301 305 306 303 303 295 287 297 299 300 300 298 298 300 299 299 297 297 297 298 298 297 298
308 309 309 309 310 310 309 309 309 311 312 312 313 313 311 314 313 313 312 307 306 306 308 306 309 303 310 310 305 306 307 301 298 300 304 300 296 302 301 301 303 303 302 301 298 297 297 297 297 298 297 298 298 298
308 309 309 309 309 310 309 309 309 311 310 315 316 313 318 312 314 309 307 307 310 305 310 309 308 306 313 307 305 308 303 304 295 296 298 296 296 299 301 301 304 305 303 302 301 301 301 301 300 299 300 299 298 299
308 308 309 309 309 309 309 309 309 314 321 315 316 317 322 312 310 308 305 307 306 302 308 307 307 309 311 315 307 308 302 301 294 305 298 292 298 303 302 302 303 303 304 303 303 302 302 301 301 301 302 301 298 299
308 308 309 309 309 309 310 310 309 311 312 321 317 313 312 313 299 301 298 302 301 306 308 308 305 309 312 310 305 305 299 295 302 294 293 297 303 304 303 304 303 304 304 304 303 303 303 302 303 302 302 302 302 303
308 308 309 309 310 310 311 312 311 311 314 315 312 297 307 303 304 305 305 305 309 310 309 308 305 305 311 304 305 297 300 299 293 290 291 300 306 305 304 305 304 303 304 303 304 304 302 303 302 304 303 303 302 301
308 308 309 309 310 310 311 311 310 316 318 312 312 299 305 309 309 310 311 311 312 313 309 308 306 305 305 300 300 298 294 290 292 292 297 301 305 306 305 303 304 304 304 304 304 304 302 302 303 302 303 303 303 303
308 307 314 309 310 311 310 311 313 321 319 315 312 308 309 306 308 310 312 309 313 312 312 309 302 297 294 296 295 292 291 289 293 296 300 305 305 306 306 305 305 306 305 305 305 305 304 303 302 303 303 303 303 304
306 321 309 309 310 311 311 318 321 316 314 312 310 312 311 310 309 310 311 313 317 311 305 303 296 294 302 295 291 299 292 298 299 300 301 305 304 305 306 305 305 306 305 305 304 306 305 305 304 303 302 304 303 304
316 316 309 308 310 311 320 318 317 315 311 313 308 310 314 314 313 313 315 313 310 309 309 302 303 296 294 292 297 301 302 303 303 304 305 305 306 307 306 305 305 306 305 306 307 305 305 304 303 301 304 303 304 303
312 311 309 308 311 318 318 319 320 311 311 313 314 316 315 316 319 317 313 314 314 313 308 304 297 299 297 302 302 304 303 301 300 302 303 307 308 306 306 306 306 305 306 306 305 303 304 304 302 302 302 302 300 301
307 308 309 310 310 320 314 317 326 316 311 314 316 313 314 316 317 314 311 311 310 310 304 302 304 304 301 305 306 304 304 305 303 303 302 305 306 305 305 304 303 304 304 305 305 296 305 302 302 302 302 301 301 300
307 316 311 316 318 320 317 316 316 318 316 313 317 316 314 316 312 311 310 311 306 305 302 306 308 310 310 312 313 313 313 310 307 306 305 304 303 303 303 303 304 303 302 303 302 301 299 302 303 302 302 301 301 301
323 312 325 320 320 321 320 321 317 319 317 315 316 316 312 310 309 309 312 306 305 307 308 308 311 312 313 313 312 313 313 313 313 309 300 300 302 301 301 302 302 301 301 301 301 303 304 302 302 304 302 303 301 301
311 319 324 322 316 313 310 324 314 316 311 311 314 309 310 310 311 317 309 308 309 314 313 314 314 315 313 313 313 311 312 311 311 309 305 306 304 304 302 302 302 300 301 301 302 301 302 296 300 303 302 302 302 300
311 320 315 315 315 308 319 314 317 314 316 311 309 306 308 309 314 307 304 308 309 311 310 313 312 309 309 311 306 307 306 306 305 305 307 303 301 302 304 301 301 301 300 301 302 301 303 302 299 300 302 300 302 299
307 305 309 297 316 311 309 309 309 309 306 309 306 306 308 314 305 303 301 304 307 308 310 312 310 308 305 304 304 304 307 305 303 303 306 306 302 302 301 301 302 301 302 301 300 300 301 301 301 302 300 300 299 299
296 310 302 308 310 309 310 305 306 307 308 306 308 313 315 308 300 298 304 306 307 308 309 309 305 303 302 302 300 300 302 304 304 302 304 302 302 302 301 302 301 301 303 301 301 301 298 300 301 300 299 297 293 298
300 308 314 318 316 316 313 316 317 312 306 305 310 309 307 299 299 305 311 311 309 309 309 306 304 302 301 300 302 303 304 304 304 303 304 304 302 303 301 300 298 299 303 301 300 301 300 299 299 299 299 300 300 299
310 312 309 314 313 317 310 312 308 307 309 314 312 304 303 302 303 311 312 313 311 309 306 305 305 304 302 301 301 302 303 304 304 304 303 302 302 301 302 301 302 295 300 301 302 303 301 300 300 299 299 299 298 299
311 314 314 311 313 314 314 311 310 315 318 315 309 308 309 314 313 312 313 312 312 310 305 305 305 307 303 302 301 300 301 301 301 299 297 296 297 298 302 302 304 302 301 300 291 296 299 299 300 299 299 300 301 300
312 317 313 311 310 309 313 317 316 321 323 320 318 316 315 313 314 315 313 311 310 308 306 305 304 303 301 300 298 298 300 300 300 300 298 297 298 301 302 301 301 301 300 300 299 299 294 298 296 300 300 300 299 300
318 315 312 312 310 314 318 322 324 323 321 319 321 316 314 312 310 311 312 313 311 309 306 304 302 302 301 300 299 298 297 300 301 302 301 301 302 302 302 303 304 304 303 301 300 299 300 299 299 298 297 297 296 297
315 313 312 310 312 320 323 318 318 317 317 316 315 317 313 309 306 307 311 311 308 307 299 305 302 300 301 300 300 300 295 301 302 303 302 302 302 302 304 304 304 303 302 301 302 299 299 298 298 297 297 296 296 296
314 314 315 313 314 313 317 316 315 314 315 314 315 315 314 311 308 311 311 312 310 309 306 305 303 303 303 301 300 299 298 300 294 290 291 290 289 293 300 303 303 304 301 302 301 300 299 297 298 297 297 296 296 296

GFSWCAN_sfc_thetae_060.txt.gz
Theta_e
313 313 312 312 312 312 312 312 313 313 313 313 313 314 314 315 315 314 316 320 314 309 308 310 308 305 304 302 297 302 301 301 297 291 290 289 289 290 287 292 291 291 289 289 290 286 283 302 301 294 300 304 304 303
313 312 311 311 311 311 311 312 313 313 312 314 314 314 314 314 315 313 315 320 319 311 309 314 314 312 310 308 305 305 301 300 300 294 292 291 288 290 288 285 295 290 291 291 290 291 302 303 301 304 304 303 303 303
312 311 311 311 311 311 311 312 312 313 312 313 314 314 314 314 315 313 315 319 316 311 310 308 307 313 315 313 313 304 305 305 303 304 298 293 287 289 286 287 289 293 296 292 291 298 295 299 303 303 302 302 304 305
311 311 311 311 311 311 311 311 312 312 313 313 314 314 314 314 315 314 315 319 315 311 304 308 316 312 316 315 312 311 308 307 307 303 300 294 290 294 290 291 290 293 294 290 290 294 294 298 298 298 300 301 302 303
310 310 310 310 310 311 311 311 312 312 313 314 314 314 314 314 315 315 319 320 320 310 304 306 313 315 316 314 312 311 308 307 308 303 299 295 297 294 294 291 290 296 291 287 287 293 292 293 298 299 297 298 300 304
309 310 310 310 311 311 310 310 311 312 313 314 315 315 314 314 313 316 312 318 319 316 306 301 313 313 314 314 312 310 308 308 306 303 300 301 302 298 292 288 296 298 300 297 291 295 296 298 298 299 297 300 303 303
309 309 309 310 311 310 310 310 310 311 312 313 314 314 314 314 314 312 310 314 312 315 306 303 307 313 315 313 310 309 311 308 306 303 305 302 301 299 297 287 297 298 300 300 299 297 294 297 295 299 299 300 303 302
309 309 309 310 310 310 310 310 310 310 311 312 314 313 313 314 312 312 318 311 313 311 309 303 304 311 315 310 308 312 307 310 307 306 304 302 301 300 289 298 299 299 300 299 299 300 298 299 299 298 299 299 299 298
309 309 309 310 310 310 310 310 309 310 310 312 313 313 314 311 311 314 314 313 315 311 304 306 301 301 315 310 310 307 309 303 309 304 304 304 296 286 296 299 300 300 299 298 300 300 299 298 298 298 297 297 296 297
308 308 309 309 310 310 310 310 310 310 311 312 313 313 310 316 313 314 311 308 307 307 308 305 308 303 310 310 308 306 305 300 300 302 306 300 295 303 304 303 304 304 304 302 299 298 298 298 299 298 296 297 298 298
308 308 309 309 310 310 310 310 310 311 311 314 315 313 320 315 316 310 307 307 310 306 309 309 309 305 312 305 306 308 303 304 296 299 298 299 298 301 304 304 305 307 305 302 302 303 301 301 300 299 298 298 298 298
308 308 309 309 310 310 310 310 310 313 321 315 313 317 320 315 311 307 307 309 307 304 310 306 306 308 309 315 309 308 302 303 293 303 297 293 300 305 304 303 305 306 306 305 305 302 302 302 302 302 302 300 300 301
308 308 309 309 310 310 310 310 309 310 313 320 317 313 313 312 297 302 299 302 302 305 310 310 306 309 311 312 307 305 296 294 302 296 294 297 304 306 305 304 304 306 306 306 305 305 304 303 304 303 302 304 303 303
308 308 309 309 310 311 312 311 310 311 313 315 311 295 306 304 306 305 305 307 309 308 311 311 309 309 310 305 300 294 300 299 293 290 290 298 302 302 305 306 306 305 305 304 305 305 304 304 303 303 304 305 303 302
308 308 309 310 311 311 312 311 311 316 316 312 311 297 305 310 311 311 312 312 313 313 312 309 309 308 301 297 300 298 294 291 293 290 296 301 305 307 306 306 306 305 305 305 305 305 303 304 303 303 304 304 304 305
309 308 314 311 311 312 311 311 314 320 318 313 312 307 311 308 308 312 311 308 314 313 312 311 304 301 299 300 296 294 292 290 294 297 300 305 305 305 306 305 305 305 307 305 306 306 304 304 303 303 303 303 303 303
306 318 309 310 311 311 311 317 321 316 314 312 309 314 310 311 308 311 313 309 313 309 303 304 299 296 303 296 295 298 294 298 301 301 304 306 306 306 306 306 305 305 306 306 307 306 307 305 305 304 302 304 304 305
316 314 309 310 310 313 320 317 317 314 310 313 310 312 315 317 313 311 311 313 310 307 306 301 304 298 295 292 296 299 301 302 304 304 305 306 307 307 306 306 306 306 306 308 305 306 306 305 303 302 304 304 304 304
311 311 309 309 310 314 319 319 319 311 312 312 315 316 317 316 317 316 314 314 314 313 309 306 299 298 297 300 302 302 302 303 302 304 306 308 306 309 307 307 307 306 305 308 307 304 305 305 303 302 302 301 301 301
308 308 309 309 310 319 316 316 323 315 312 314 314 314 315 314 315 315 313 313 310 307 303 301 302 304 302 304 307 307 308 309 306 305 302 306 307 309 307 305 303 305 304 306 307 299 304 303 304 303 301 301 301 300
313 317 312 315 316 319 317 316 317 317 317 313 316 311 313 314 313 310 310 311 306 305 303 306 306 309 313 313 315 312 313 313 312 311 306 306 304 304 304 305 304 304 300 302 300 302 301 302 303 303 302 302 302 300
323 313 324 319 319 320 317 320 316 319 317 312 312 313 310 309 309 309 311 307 305 305 308 308 309 310 310 311 310 314 311 314 313 312 305 304 303 302 302 303 302 301 302 303 301 300 303 303 303 302 302 303 302 301
310 318 322 322 315 311 308 322 315 316 311 312 312 310 308 308 311 313 308 307 310 313 312 312 313 316 313 313 313 311 313 310 310 309 309 305 305 303 303 302 302 301 300 301 302 302 302 297 300 302 303 303 302 301
311 318 315 313 313 306 317 314 317 314 311 307 309 305 308 309 311 308 302 304 307 310 310 313 310 309 309 312 305 305 305 305 307 306 307 304 303 303 302 301 301 301 301 301 301 302 302 299 301 302 302 300 300 300
304 305 308 296 314 313 310 311 310 311 306 308 307 306 307 311 305 303 301 303 306 307 308 310 308 306 303 302 302 303 306 303 302 304 305 304 303 303 302 301 301 301 302 300 299 301 300 300 302 301 300 299 299 300
296 309 301 310 310 308 307 306 305 307 308 306 307 310 311 308 301 300 305 307 306 306 306 305 303 302 302 302 301 301 302 305 305 302 302 302 301 300 299 299 298 299 302 302 301 300 299 301 298 300 298 298 296 300
299 307 313 316 315 315 312 310 313 310 306 306 309 308 306 300 300 305 311 312 309 308 307 306 304 302 300 301 303 304 304 305 304 302 303 302 302 302 301 298 297 299 302 302 303 300 300 300 300 299 299 299 300 300
310 312 309 313 312 314 310 310 308 307 309 310 311 304 303 303 304 311 312 313 311 308 307 306 305 304 302 301 301 302 304 305 305 305 303 302 302 302 302 301 300 295 301 301 302 303 301 301 299 299 299 299 299 300
311 313 314 311 312 313 312 310 310 312 316 312 309 307 310 314 315 313 313 313 313 310 306 305 305 306 304 302 302 301 301 302 302 300 298 297 298 299 302 302 302 302 301 299 292 296 298 298 298 299 300 299 300 300
310 315 311 311 309 306 310 311 311 317 316 316 317 316 315 314 315 317 314 312 312 309 306 305 305 304 302 301 299 300 301 302 301 301 299 298 299 301 301 301 301 301 301 301 300 299 295 298 296 301 299 299 299 299
315 315 312 311 311 312 312 312 318 319 318 316 317 314 314 315 315 316 315 314 313 311 306 304 303 303 302 302 300 299 298 302 303 302 302 302 303 302 302 302 303 303 302 302 301 300 300 299 299 298 298 297 297 297
313 312 311 310 309 313 316 315 315 316 314 315 313 316 315 311 308 310 313 313 311 309 299 304 303 301 302 301 302 302 299 303 303 303 303 303 303 303 303 303 303 302 302 301 301 300 299 298 298 297 297 297 296 297
313 312 314 314 307 310 313 314 313 312 312 311 313 315 314 312 310 311 314 314 312 311 308 306 304 304 304 303 302 301 301 300 295 291 291 290 289 293 301 303 302 303 301 302 301 300 299 298 298 298 297 297 297 297

GFSWCAN_sfc_thetae_063.txt.gz
Theta_e
314 313 312 312 312 312 312 312 313 313 313 314 315 316 316 317 316 313 317 321 313 308 307 310 308 305 302 300 296 300 299 297 295 289 288 288 286 287 285 288 288 287 285 286 287 283 281 298 299 291 295 298 299 300
314 313 311 311 311 311 312 312 312 313 313 314 314 316 316 316 316 315 314 321 321 312 309 314 314 314 311 308 302 302 299 298 296 292 290 289 286 288 287 282 291 286 288 286 288 288 294 297 296 299 299 296 297 297
314 312 311 311 311 311 311 311 312 312 313 313 314 315 315 316 316 314 311 316 316 310 309 310 308 313 314 311 310 301 302 303 300 301 295 291 284 290 283 285 287 292 294 290 288 294 293 294 298 299 298 298 299 299
313 312 310 310 311 311 311 311 312 312 313 314 314 315 315 315 315 314 310 315 316 311 303 306 315 312 316 312 311 310 306 307 304 301 297 293 289 293 288 289 288 291 292 288 289 293 292 296 295 298 298 299 298 299
312 311 310 310 311 311 311 311 311 312 312 313 314 314 315 315 315 313 314 317 319 310 302 304 311 313 314 313 311 309 307 305 304 298 297 293 294 293 293 291 288 293 292 286 286 292 292 292 296 299 297 296 298 299
311 310 309 310 311 311 311 311 311 311 312 313 314 315 315 315 314 312 312 318 317 318 306 300 312 312 313 312 310 308 306 304 305 302 299 299 300 294 289 286 294 297 298 295 292 295 296 297 298 299 297 298 299 300
311 309 309 310 311 311 311 311 311 310 311 312 314 315 314 314 312 310 309 313 312 317 306 301 304 311 314 311 309 308 309 306 305 302 301 299 297 297 293 286 294 299 299 298 298 297 295 296 294 298 298 298 300 301
310 309 309 310 310 311 311 311 310 310 310 312 313 314 313 313 311 309 315 313 314 310 308 300 302 309 313 306 305 309 304 305 305 303 302 299 299 296 287 294 297 299 300 299 298 299 298 299 299 298 298 298 297 296
309 309 309 309 310 310 311 310 310 310 310 311 312 314 312 309 310 314 316 314 315 310 301 304 300 299 313 308 308 306 306 300 307 301 300 300 291 284 289 296 297 298 298 298 298 299 299 298 298 298 297 296 295 296
309 308 308 309 310 310 311 310 309 309 309 311 311 310 308 316 316 315 310 306 305 305 305 300 305 300 307 308 305 303 304 299 295 300 304 293 290 296 300 303 302 301 301 300 297 296 296 296 297 297 296 297 297 297
308 308 308 309 310 310 311 310 310 310 311 311 311 311 316 315 315 309 304 303 304 301 305 305 306 303 311 303 299 305 300 300 294 298 296 295 294 299 304 303 304 305 304 301 301 300 299 300 298 297 297 298 299 299
308 308 308 309 310 311 310 310 310 310 317 312 311 314 318 313 309 304 305 307 302 300 305 302 305 308 310 313 302 302 296 297 291 300 295 289 298 303 304 304 304 305 305 304 304 302 302 303 302 300 299 298 299 300
307 308 308 309 309 311 309 311 309 310 310 316 313 313 311 310 297 301 296 301 299 305 306 306 304 310 311 310 302 297 293 293 299 294 288 293 297 303 303 304 305 306 306 305 305 305 305 303 304 303 301 302 302 300
308 308 309 309 310 311 311 310 310 310 309 310 311 293 305 304 306 304 302 305 307 306 305 305 306 305 308 301 299 293 299 298 292 289 289 296 299 301 303 305 305 304 303 304 305 305 304 301 301 304 302 302 302 300
308 309 309 310 310 312 312 312 311 312 312 311 312 295 305 308 307 309 310 309 312 311 307 306 307 307 303 299 300 298 294 290 290 289 295 299 301 302 303 304 305 304 303 303 303 303 303 303 301 300 302 303 302 302
308 308 311 311 312 312 311 310 310 315 316 312 311 307 310 308 309 308 311 308 311 309 310 308 303 299 298 299 295 292 291 289 293 298 300 303 303 303 304 305 305 304 306 303 303 303 303 302 301 299 300 301 301 303
307 314 311 311 311 311 311 314 316 314 312 311 310 314 310 310 309 309 312 309 313 307 301 304 298 295 303 295 293 297 293 297 301 301 303 305 303 304 305 306 306 304 306 304 305 304 304 305 304 302 300 301 301 304
313 311 310 310 311 313 317 313 316 313 309 312 308 312 315 316 313 310 311 313 311 307 306 300 305 297 295 292 294 300 301 303 304 305 305 306 306 305 306 305 306 306 306 306 306 305 304 303 303 300 300 300 298 303
308 308 309 309 308 309 317 317 317 309 313 316 315 314 314 313 315 315 315 317 317 315 311 306 299 298 298 301 301 302 303 304 302 304 304 305 304 304 305 304 305 306 305 305 305 304 303 303 303 300 299 300 297 297
307 308 308 308 308 313 315 316 325 316 311 316 315 309 308 314 315 314 314 313 313 310 305 302 302 304 304 305 307 308 308 308 307 304 304 306 305 304 304 304 303 303 301 301 300 300 301 303 303 300 299 299 299 297
314 313 310 311 312 315 315 315 316 317 317 312 313 315 314 315 313 311 310 313 308 306 303 307 307 310 314 315 314 311 311 311 307 306 305 304 305 304 301 301 300 303 302 302 301 301 301 301 301 301 300 300 300 299
320 313 319 314 316 320 317 320 315 319 314 313 308 310 310 308 310 310 313 309 307 308 310 311 311 311 311 312 313 313 313 312 311 309 304 304 303 301 299 301 298 297 300 300 300 299 299 299 299 300 301 301 299 298
314 315 319 321 316 307 306 323 316 318 308 309 314 310 310 311 313 317 308 310 311 315 314 315 314 317 315 316 315 313 313 311 307 306 305 302 302 303 301 300 300 298 298 299 301 301 300 298 300 301 301 300 299 299
311 315 315 314 312 303 316 315 314 310 312 307 307 307 307 311 314 309 302 306 310 313 312 314 313 310 308 307 305 303 304 304 305 305 305 302 303 301 302 300 299 299 301 300 300 300 300 301 298 300 299 299 299 298
302 302 306 293 313 312 309 309 306 309 307 308 307 305 307 313 307 305 302 306 308 308 310 312 308 306 301 301 301 302 306 305 302 300 303 303 301 301 300 301 300 300 302 300 299 298 299 300 300 298 296 297 298 298
294 307 299 308 308 308 309 306 306 306 307 307 307 310 311 307 303 301 306 309 307 307 307 305 304 302 300 302 300 300 302 304 302 299 300 300 299 299 298 296 295 298 302 301 300 300 300 301 300 298 297 298 296 299
297 304 312 317 313 314 308 310 310 307 307 306 308 305 304 300 300 308 313 312 307 307 309 307 305 301 301 302 303 305 304 304 303 301 302 302 301 301 300 296 295 298 302 302 303 302 301 300 298 299 298 299 299 299
307 310 307 313 312 314 308 310 308 306 309 312 309 305 303 304 304 314 311 310 308 309 306 306 306 303 301 301 302 303 304 304 304 302 301 301 301 300 300 299 300 297 298 300 301 301 301 300 299 299 298 298 298 299
307 310 311 309 311 310 310 311 308 311 311 312 309 308 309 317 314 313 313 313 310 307 305 304 304 303 302 302 303 302 302 302 303 300 298 295 296 297 301 301 299 300 298 296 292 295 297 296 297 299 299 299 300 300
306 310 308 310 309 308 311 314 313 314 318 314 316 314 313 314 316 317 314 314 312 309 306 304 304 304 301 300 299 300 301 301 301 300 298 296 297 299 301 301 301 301 301 299 298 298 294 296 296 300 299 298 298 298
310 312 311 311 308 312 314 315 316 316 314 313 313 313 312 314 316 318 315 317 315 309 305 303 302 302 302 301 300 299 297 302 304 303 303 301 301 302 302 303 302 303 302 301 300 299 299 298 298 298 297 297 297 296
311 311 310 310 311 316 316 313 313 311 312 311 308 313 314 312 309 312 318 318 314 309 302 305 301 299 301 301 302 302 299 301 301 300 301 302 302 303 304 303 303 302 302 301 300 299 299 298 297 297 297 297 298 298
312 312 314 314 312 311 312 312 311 313 311 307 309 313 313 312 310 314 321 320 316 311 307 304 302 301 304 302 301 299 298 297 293 291 291 291 291 294 299 300 301 302 302 302 300 299 299 300 298 299 298 298 298 298

GFSWCAN_sfc_thetae_066.txt.gz
Theta_e
316 315 314 312 311 312 312 312 312 313 314 314 316 317 317 316 316 307 307 310 305 299 300 304 304 298 296 294 289 293 293 291 288 281 279 277 281 285 284 285 283 285 285 283 285 280 279 296 296 290 293 295 295 295
316 315 313 311 311 311 312 312 312 313 314 314 315 315 316 315 315 312 304 310 311 303 302 307 308 307 305 302 296 295 292 291 290 283 285 279 284 286 281 274 287 284 286 283 285 288 295 295 293 297 295 293 293 294
316 314 313 310 310 311 311 312 312 313 313 314 315 315 315 315 315 312 303 305 307 301 301 302 303 307 305 305 304 295 295 297 294 294 288 286 279 286 282 282 285 288 290 284 284 291 292 292 295 295 296 296 297 298
315 314 312 310 310 311 311 311 312 312 313 314 314 315 315 315 314 314 303 305 305 302 295 298 308 305 309 305 305 303 300 300 297 298 290 291 285 288 283 284 287 286 287 285 284 288 291 294 295 295 296 298 298 298
315 313 311 309 310 311 311 311 311 311 312 313 314 315 315 315 314 309 306 307 310 302 295 297 303 308 307 304 305 303 301 298 296 292 295 291 287 288 291 290 287 290 286 282 281 288 289 292 295 296 296 295 297 298
313 312 310 309 309 310 311 311 311 311 311 312 314 314 315 314 313 305 306 310 311 308 299 293 301 303 305 306 304 301 304 302 301 296 297 297 293 288 283 286 289 292 294 292 289 293 293 294 296 298 296 297 298 298
313 311 309 309 309 310 310 311 311 311 310 311 312 313 313 312 305 302 302 307 309 310 303 296 294 303 307 307 303 302 302 301 299 300 297 293 292 295 284 283 289 293 295 295 294 293 292 295 294 298 298 298 299 299
312 310 309 309 309 310 310 310 311 310 309 310 312 312 313 312 308 303 307 309 310 306 305 296 295 300 306 300 300 305 300 302 302 299 296 296 293 291 286 290 291 295 297 296 296 296 295 295 296 297 298 297 297 296
311 309 308 309 309 309 310 310 311 310 309 310 311 312 307 303 301 307 316 315 312 307 299 300 294 293 308 302 306 304 304 297 303 297 296 297 288 286 290 289 293 295 295 295 297 297 297 295 296 296 296 296 295 296
310 308 308 308 309 309 310 310 310 309 310 310 306 303 304 307 317 315 308 303 302 302 301 296 301 296 301 299 300 299 301 298 294 297 301 292 289 294 295 294 297 297 297 296 292 292 293 293 295 295 295 295 295 297
308 308 308 308 309 310 310 310 310 309 310 303 303 303 312 316 307 307 300 298 300 299 300 300 302 298 304 297 297 300 298 293 286 295 296 292 292 298 300 299 299 299 298 297 297 296 296 295 295 295 295 296 297 298
308 307 307 308 309 309 310 309 310 306 305 307 304 307 308 306 304 300 299 304 300 295 302 297 298 305 306 306 297 296 294 292 288 299 290 285 295 300 301 302 302 301 301 302 301 298 298 298 298 296 296 297 296 298
307 307 307 308 308 310 310 310 309 309 307 306 305 307 307 304 295 299 292 297 296 300 301 300 298 306 302 300 294 295 292 292 298 288 286 291 297 300 301 303 304 305 305 304 302 303 301 300 300 299 297 298 298 298
307 307 308 308 309 310 311 310 310 307 302 303 306 292 299 299 303 302 298 297 301 303 303 299 298 299 297 294 294 292 294 293 289 286 287 290 297 299 301 303 304 302 302 302 303 304 304 302 298 299 298 297 298 298
307 308 308 308 309 310 311 311 310 305 304 303 305 292 301 304 306 305 305 303 305 304 302 299 299 298 294 293 293 292 290 288 289 286 288 293 294 296 297 298 299 299 299 299 301 301 301 302 299 295 297 297 297 298
308 308 308 309 311 312 310 309 305 306 308 305 304 300 306 305 305 304 302 302 303 299 300 298 294 293 292 291 290 288 287 283 287 291 294 295 295 296 297 298 298 298 299 299 301 301 300 301 298 298 295 296 296 298
307 309 311 310 310 311 310 306 307 307 308 306 305 310 308 306 306 306 305 301 302 298 293 295 291 289 293 289 287 290 287 290 292 295 299 296 296 296 299 299 299 299 299 298 298 299 299 301 298 296 294 295 297 297
308 309 310 310 307 309 310 306 309 311 306 305 303 308 309 308 307 305 304 304 302 299 297 294 295 290 287 287 287 292 293 295 296 296 297 298 299 302 304 301 302 301 301 301 300 299 297 297 297 294 294 295 296 296
305 305 309 309 305 303 309 311 309 303 305 311 310 310 309 309 309 308 306 305 303 303 301 296 293 290 290 293 294 295 295 295 295 296 296 297 297 299 301 303 302 301 299 297 298 299 300 299 299 295 295 293 294 294
307 309 309 308 307 304 308 310 314 308 305 309 309 304 305 304 307 306 306 303 303 299 296 294 294 295 296 297 299 298 298 298 297 295 295 297 298 301 299 297 297 295 295 295 296 298 298 299 300 300 294 294 295 294
309 308 309 306 304 306 308 308 310 312 308 305 308 307 306 311 306 302 301 302 297 295 295 297 298 299 302 303 303 301 301 300 297 297 296 294 297 298 298 297 297 296 296 298 294 294 296 298 300 301 298 294 295 295
308 312 310 308 310 312 307 310 306 313 309 307 307 305 303 302 301 302 302 300 296 297 298 300 300 299 302 302 302 302 302 302 300 299 297 297 293 292 293 294 295 295 298 295 296 296 298 298 296 297 296 295 295 294
310 312 312 315 310 302 301 313 308 309 306 303 306 304 303 304 303 305 299 299 299 303 304 303 303 304 303 304 302 297 298 301 297 296 296 295 295 293 293 295 298 295 294 295 297 297 296 296 298 298 297 295 295 293
312 309 308 309 307 297 309 307 310 307 307 302 304 303 303 303 304 300 295 296 301 303 301 301 300 297 297 295 293 293 297 298 297 296 296 295 293 292 293 293 294 296 295 294 294 294 295 299 297 296 295 295 295 293
299 299 301 291 305 307 305 306 305 304 301 304 303 302 302 305 299 298 294 296 299 299 300 297 296 294 293 292 293 296 296 295 292 292 294 294 293 293 293 292 294 295 295 293 293 294 294 296 294 293 293 293 293 294
292 301 297 304 303 304 306 302 303 303 303 306 304 306 305 301 298 296 297 298 297 297 295 295 294 292 292 292 292 293 293 293 293 291 290 293 293 292 290 291 290 292 294 295 295 295 295 294 293 294 293 294 294 295
294 300 305 308 307 307 306 308 308 302 304 304 303 303 301 298 298 300 301 298 297 297 297 296 295 293 293 292 294 295 294 294 293 292 292 294 294 293 291 290 290 292 295 297 297 296 295 294 294 294 294 294 294 295
303 304 301 304 306 308 305 307 306 303 306 309 305 303 301 302 300 303 301 301 299 299 297 296 294 293 292 293 295 295 294 294 293 293 292 291 291 292 292 293 293 295 292 293 295 295 294 294 294 294 294 292 292 294
302 304 304 301 304 308 308 309 305 307 309 309 306 305 306 308 307 302 300 300 300 299 296 296 294 294 293 293 292 292 295 294 292 290 289 288 288 289 291 291 291 291 290 291 292 291 292 292 294 295 295 294 294 294
300 303 300 302 304 306 308 311 310 309 311 311 312 309 307 306 306 307 305 303 300 298 297 297 297 294 293 291 290 292 293 293 293 295 291 288 290 291 293 293 292 292 290 290 290 291 293 293 293 294 293 292 291 292
302 302 301 303 306 309 311 311 311 311 311 311 311 309 308 309 308 307 305 306 300 297 296 294 294 295 295 292 291 291 291 293 294 294 294 293 293 294 294 294 294 293 293 293 292 292 291 292 292 292 291 290 291 291
303 302 301 304 306 311 313 310 308 308 309 306 307 308 309 308 302 304 308 308 301 298 298 295 293 293 294 294 294 294 294 293 292 294 294 294 294 294 294 294 294 294 294 294 294 293 293 292 291 292 291 291 292 292
304 304 310 308 306 306 308 308 308 308 308 306 306 307 307 307 305 306 310 308 306 299 297 295 295 297 296 296 294 292 292 290 291 291 291 292 292 292 292 293 294 295 295 294 293 293 293 293 292 293 293 292 292 291

GFSWCAN_sfc_thetae_069.txt.gz
Theta_e
315 316 316 313 312 311 311 312 312 312 313 314 314 316 316 316 315 306 306 307 303 297 299 302 302 297 295 292 288 292 291 289 286 280 277 275 274 276 279 282 281 280 281 277 284 279 277 294 293 288 291 291 293 294
315 316 315 313 311 310 311 312 312 312 313 314 314 316 315 315 315 309 302 306 307 302 300 305 307 306 304 301 294 292 290 289 288 282 280 277 284 286 280 274 286 280 284 280 284 283 291 293 291 293 294 292 291 292
314 315 314 312 310 310 311 311 311 312 313 313 314 314 315 314 315 309 300 302 304 299 299 300 301 306 303 303 302 294 293 294 291 291 285 282 276 281 279 279 280 285 287 282 283 286 288 292 293 294 293 293 295 295
314 315 314 311 309 310 311 311 311 311 312 313 313 314 315 314 314 311 301 302 303 299 293 297 306 302 305 303 303 301 298 296 295 293 287 284 279 285 278 281 282 284 286 283 282 286 288 292 293 293 294 296 296 297
314 314 313 310 309 310 311 311 311 311 311 312 313 314 315 314 313 307 303 304 306 301 293 295 300 304 305 303 303 302 299 296 294 290 289 287 287 286 288 290 287 288 286 282 280 286 287 288 292 295 295 295 296 297
314 313 311 309 309 309 310 311 311 311 309 311 312 313 314 313 311 305 305 307 307 305 301 291 299 300 301 302 301 301 301 298 297 294 292 294 295 290 281 280 287 289 290 289 288 290 291 292 294 295 296 298 298 298
314 312 310 309 309 309 310 310 310 310 310 309 311 312 313 311 303 301 301 305 308 309 300 294 292 301 304 301 299 300 302 299 299 298 295 294 293 293 286 280 289 290 293 293 292 293 290 293 292 295 297 300 299 299
313 312 309 308 309 309 309 310 310 310 309 309 310 311 312 311 307 303 305 309 308 305 304 296 292 297 302 297 299 303 301 301 301 300 298 295 294 294 286 290 292 292 294 294 295 294 294 291 293 295 296 298 296 297
313 311 309 308 308 309 309 310 310 310 309 309 310 311 305 301 300 304 316 313 311 306 296 296 292 293 305 301 304 303 303 297 303 297 297 296 289 286 291 292 293 294 294 295 296 295 295 293 294 295 294 294 293 295
312 309 308 307 308 309 309 309 310 309 309 310 305 303 301 303 316 314 306 301 300 300 302 294 297 294 299 301 300 299 300 297 293 297 300 293 290 297 297 297 295 296 297 296 292 291 292 293 293 293 294 294 294 296
310 308 307 308 308 309 309 310 310 309 309 302 301 301 307 314 306 303 297 296 300 296 295 296 297 295 304 299 298 300 296 293 288 294 292 288 287 296 302 301 298 299 299 297 296 296 295 294 293 293 294 295 295 295
308 307 307 308 308 309 310 309 309 306 303 304 304 305 307 305 301 299 297 301 296 293 298 297 297 299 300 302 299 297 295 294 289 296 290 285 292 299 301 302 303 302 301 300 301 299 297 297 296 295 295 295 295 295
307 307 307 308 308 309 309 309 309 308 305 304 302 304 306 303 295 295 291 293 293 297 299 298 296 299 302 299 292 292 292 291 298 289 288 289 293 298 300 302 303 304 304 303 302 301 301 300 300 297 296 296 296 296
306 307 307 308 308 308 310 309 309 307 301 301 302 291 297 296 300 299 297 296 299 300 298 298 296 295 295 292 292 288 293 290 287 282 283 288 291 294 299 300 302 302 302 302 301 303 302 301 300 300 298 297 296 296
307 307 308 308 309 309 310 309 309 304 302 301 302 292 298 305 305 305 304 300 302 302 299 298 298 295 292 291 291 289 289 284 285 283 286 291 293 293 294 296 296 296 298 298 299 301 301 300 299 299 298 296 295 296
308 308 308 309 309 310 309 308 305 304 304 302 300 298 302 302 302 304 302 301 303 296 297 295 291 291 289 289 287 285 286 282 286 289 292 293 293 295 294 296 298 297 298 297 298 300 300 297 297 296 296 294 295 296
307 309 310 309 309 309 309 305 304 304 305 304 302 307 307 304 303 302 303 301 299 296 291 292 289 287 291 287 286 289 286 288 292 295 298 295 294 294 298 300 302 301 300 299 299 299 300 300 297 297 293 294 294 295
308 308 309 308 306 307 306 304 307 309 304 305 303 308 307 306 302 302 302 301 299 296 294 292 293 288 286 285 286 290 291 293 294 295 295 294 295 296 301 297 299 301 301 301 300 301 300 299 297 295 292 293 294 294
304 304 307 308 304 300 305 308 305 300 303 306 308 307 305 305 305 305 304 303 300 299 298 293 291 288 289 291 292 293 293 293 293 294 294 295 294 296 298 298 299 296 296 294 296 298 298 298 295 293 292 293 293 293
308 309 309 309 306 300 303 306 309 304 303 305 308 303 302 302 303 303 303 302 299 296 294 292 292 292 293 295 296 296 296 295 294 292 293 293 295 295 294 295 296 293 294 294 295 295 293 294 295 297 293 292 293 293
307 307 308 305 302 303 304 304 306 308 308 304 305 303 302 305 303 301 299 298 295 293 293 295 296 297 298 298 298 298 298 297 295 294 293 291 293 292 292 294 294 296 297 294 293 295 296 296 298 299 297 293 293 293
303 310 306 307 307 308 303 306 302 305 305 304 303 302 301 301 301 301 300 296 294 295 296 297 297 296 299 300 303 300 298 297 296 298 297 294 290 290 291 292 292 293 295 294 295 297 298 297 296 295 294 295 295 295
307 309 309 310 307 301 300 310 306 306 304 302 303 301 302 302 303 302 297 297 297 300 300 300 300 300 299 298 296 297 298 296 294 294 293 292 290 290 292 293 293 293 291 291 293 293 296 296 298 297 296 294 292 292
308 307 305 306 305 297 305 305 307 304 304 301 300 299 301 300 302 298 296 295 297 300 299 297 295 292 292 293 293 295 295 295 293 293 292 291 290 289 289 290 292 293 291 292 291 292 294 297 298 298 294 294 292 291
297 298 299 290 302 304 302 304 305 302 298 301 300 302 301 302 297 297 295 294 298 299 297 295 292 293 292 291 292 293 293 295 294 293 293 291 290 290 291 291 291 291 292 292 291 292 292 292 292 292 292 293 293 293
291 300 296 302 301 301 302 300 301 300 301 302 302 302 302 300 298 296 295 296 296 295 293 293 292 291 291 294 292 290 291 291 293 291 290 290 291 291 289 289 289 290 292 293 292 292 292 292 292 293 293 293 293 293
292 298 302 304 303 305 302 304 305 300 300 301 301 301 300 297 297 299 298 297 295 295 295 294 295 295 294 291 290 291 291 290 292 292 291 291 290 291 291 290 289 291 293 295 295 294 293 293 293 293 292 292 292 293
301 301 299 300 302 304 304 302 302 301 301 304 303 301 301 300 299 301 299 298 296 294 293 292 293 294 293 293 293 291 289 290 290 289 289 288 288 288 291 292 292 293 291 295 294 292 292 293 292 293 292 291 291 293
299 301 301 298 300 303 304 304 304 305 306 304 302 300 301 307 306 300 298 297 294 293 291 290 289 289 289 290 291 291 292 293 290 287 286 285 285 288 289 290 289 289 288 289 291 292 293 293 294 293 293 292 292 291
296 300 297 298 298 302 308 307 306 307 307 308 308 306 307 304 305 301 298 297 294 293 294 293 291 290 288 289 288 288 290 291 293 292 288 287 287 289 289 289 289 289 288 288 290 290 292 292 292 292 292 290 290 290
297 297 296 296 297 305 309 309 308 309 308 308 308 306 305 307 304 303 300 299 297 294 293 292 290 289 289 288 289 289 289 290 291 293 292 291 289 290 291 291 291 290 289 289 289 290 290 291 290 290 290 289 290 290
297 297 297 297 303 309 309 308 306 305 305 303 303 305 305 304 302 303 304 299 296 295 295 295 294 292 291 291 290 290 292 291 292 294 292 291 291 292 292 292 291 291 291 291 291 291 291 291 290 291 290 290 290 290
299 300 306 304 303 304 306 305 305 305 305 304 305 306 305 305 304 305 304 300 299 298 295 293 292 292 293 293 292 291 291 290 291 292 292 292 291 291 291 291 292 293 293 292 291 291 291 291 291 291 291 291 290 290

GFSWCAN_sfc_thetae_072.txt.gz
Theta_e
314 314 315 316 313 312 311 311 312 312 313 314 314 315 315 315 315 307 305 304 302 295 297 300 300 295 293 291 288 290 289 288 284 278 277 277 273 280 276 280 279 279 276 277 280 277 277 294 293 288 290 292 294 293
314 314 315 315 313 311 310 311 311 312 312 313 314 315 315 315 315 307 301 303 305 301 298 302 304 304 303 299 293 290 289 287 286 281 280 276 275 281 279 272 284 278 283 280 282 282 290 293 291 293 294 292 293 292
313 313 315 314 312 310 310 311 311 312 312 312 313 314 314 314 314 307 299 300 302 298 297 298 300 303 302 301 301 292 291 292 289 288 283 280 278 278 276 276 280 283 286 283 283 284 288 292 293 294 294 293 295 295
312 313 315 313 311 309 310 311 311 311 311 312 313 314 315 314 313 309 301 301 302 297 292 294 305 300 303 302 302 300 296 294 292 290 285 283 279 284 277 280 280 283 286 283 282 285 287 290 293 294 294 296 296 296
312 313 314 313 310 309 310 310 311 311 310 311 312 313 314 314 312 304 301 302 304 301 293 294 299 301 302 301 301 300 298 294 292 290 287 285 285 285 284 286 284 287 284 282 282 287 287 287 293 295 294 294 296 297
311 313 313 311 309 309 310 310 310 310 311 309 311 312 313 312 309 304 301 304 306 303 297 291 298 299 302 300 300 298 299 298 296 292 290 292 291 288 282 284 286 289 289 289 287 289 290 292 294 295 294 295 299 299
312 313 313 311 309 309 309 310 310 310 310 309 310 311 312 311 302 300 300 304 307 308 300 293 292 299 302 297 297 297 301 300 300 297 295 295 292 292 284 282 290 290 292 291 291 292 291 293 292 295 296 298 301 300
311 313 312 310 308 308 309 309 310 310 309 308 309 311 311 310 307 302 305 309 308 304 303 292 292 296 300 296 297 302 299 300 300 299 299 295 293 293 286 291 295 293 292 292 293 294 293 293 294 295 296 296 296 296
311 312 310 309 308 308 309 309 310 309 309 309 309 311 304 301 300 303 314 311 310 305 296 292 289 291 302 298 299 302 303 296 303 297 297 295 288 285 290 295 296 297 294 294 294 295 294 293 294 294 295 295 294 294
312 310 308 308 307 308 309 309 310 309 309 309 304 302 301 303 312 312 304 299 299 301 300 295 294 295 298 297 300 298 301 296 293 296 299 292 289 297 298 300 299 297 298 297 294 292 294 293 294 295 295 295 294 295
310 309 308 307 307 308 309 309 309 308 308 301 301 300 305 312 304 300 295 294 300 296 294 294 294 293 300 298 297 300 296 294 289 293 292 290 288 292 301 301 301 301 298 298 298 298 297 296 295 294 294 295 295 295
309 308 307 307 308 308 310 309 309 305 302 303 303 303 304 302 300 296 295 301 295 293 295 297 296 299 299 302 298 298 294 293 287 296 291 284 288 294 297 301 302 302 301 301 300 298 298 297 296 295 295 296 295 296
308 307 306 307 307 309 309 308 308 308 305 303 301 305 302 298 291 293 288 292 292 296 297 296 295 298 303 300 291 290 292 291 297 290 287 287 290 295 296 302 302 304 305 304 303 302 301 300 300 298 297 297 297 296
306 306 307 307 308 308 309 309 309 306 300 298 299 291 297 293 298 299 296 296 299 298 296 296 295 294 293 291 290 287 292 292 287 282 281 288 291 293 294 298 300 302 301 300 301 301 301 301 301 301 300 298 297 296
307 307 308 308 309 308 309 309 309 304 300 298 299 290 297 301 305 303 302 299 300 300 297 298 297 293 291 290 289 288 288 284 284 283 286 290 292 293 294 295 296 296 297 298 298 298 301 302 301 300 299 298 297 296
307 309 307 308 309 309 309 308 304 302 302 299 297 295 299 299 302 301 300 299 300 296 295 294 290 289 287 288 287 286 285 282 285 288 292 292 295 294 294 296 298 298 297 299 300 300 300 299 298 298 299 297 295 297
308 309 309 308 309 309 308 303 302 302 302 302 300 301 301 302 301 300 302 301 296 294 291 291 288 287 289 286 286 288 285 288 290 295 293 293 293 293 294 297 301 302 298 300 301 301 301 302 301 298 297 299 297 297
307 309 309 308 304 307 305 303 307 307 302 303 300 303 304 304 301 300 301 300 297 294 293 291 292 288 286 285 285 289 290 292 293 293 293 293 294 295 298 297 301 300 299 301 302 301 301 301 301 299 298 297 297 298
304 304 307 308 304 298 303 306 303 297 301 303 303 303 303 303 303 302 302 301 298 297 296 292 290 287 288 291 291 292 292 292 293 293 293 294 294 295 296 296 300 298 297 295 297 297 298 299 299 298 297 296 297 296
308 308 309 308 305 297 299 302 306 301 300 303 304 302 301 301 301 302 301 301 298 296 294 292 292 292 292 294 294 295 295 295 294 293 292 292 293 294 293 293 296 296 294 295 296 296 296 297 298 296 296 298 297 296
306 306 308 304 300 303 302 301 303 305 303 303 303 301 301 302 302 301 299 297 295 293 292 294 295 297 296 297 297 297 296 297 295 295 297 291 292 292 293 294 294 295 294 293 294 297 298 297 297 300 298 297 297 297
302 309 307 306 305 305 303 303 300 301 303 302 301 300 298 299 300 300 300 297 295 295 295 298 297 297 297 299 299 298 298 297 295 295 294 293 291 292 292 292 293 292 292 293 295 296 296 298 297 298 297 296 298 298
306 308 307 308 306 300 299 306 302 303 301 300 301 300 300 300 301 302 298 297 298 297 297 300 299 299 299 297 297 297 297 295 293 292 292 291 291 291 291 292 293 293 292 293 294 296 296 295 297 296 295 295 295 295
306 304 303 303 303 296 304 302 304 303 302 299 299 297 300 300 301 297 296 296 298 299 298 296 295 293 294 295 295 295 295 294 292 292 291 291 291 290 290 292 293 293 293 293 294 294 296 297 296 295 295 295 294 293
296 297 299 290 300 301 301 302 301 300 297 298 298 299 299 301 297 296 296 295 298 297 295 292 292 293 292 293 293 293 294 294 293 292 293 292 290 291 292 292 292 292 293 294 293 293 293 294 294 294 295 295 295 295
290 297 295 300 299 298 300 299 299 299 299 299 301 301 300 298 298 296 296 296 298 296 293 293 292 291 292 293 293 291 293 293 293 292 291 292 292 292 291 290 290 293 294 295 294 293 293 294 294 295 295 295 292 295
291 295 300 302 301 303 300 302 303 299 299 299 300 299 298 295 297 298 299 297 296 295 295 295 295 294 294 293 291 291 291 293 294 293 293 292 292 292 292 292 293 294 295 296 296 295 295 295 295 295 295 295 295 295
300 300 298 299 300 302 301 301 301 300 301 302 302 298 297 298 299 301 299 298 296 295 294 293 293 294 293 293 292 290 289 290 290 290 290 290 289 290 292 293 294 292 294 296 296 296 296 295 295 295 295 294 294 295
296 300 300 297 298 298 302 302 302 304 305 304 300 300 300 304 306 301 298 295 293 294 292 292 291 291 291 291 290 290 291 291 291 289 289 288 288 290 291 293 292 292 291 292 291 293 296 295 296 295 295 295 294 294
294 299 296 296 295 295 301 305 305 307 307 306 306 305 306 305 306 299 295 293 293 294 295 294 292 293 291 292 290 289 290 291 292 291 289 288 289 291 291 292 292 291 291 292 293 293 293 295 294 295 295 294 294 293
296 296 295 294 293 297 304 307 308 309 307 306 307 305 304 305 303 300 296 296 294 292 292 291 290 290 291 291 292 291 290 292 291 292 293 292 291 292 292 292 292 292 291 292 292 293 293 293 294 293 293 293 293 293
296 295 295 294 296 306 308 307 305 304 304 303 302 304 305 304 301 301 303 297 294 294 295 294 293 292 293 293 293 293 293 296 295 293 294 293 293 293 294 293 293 293 293 292 293 293 293 294 293 293 293 294 294 294
296 297 298 301 302 302 304 305 303 304 304 303 303 304 304 304 303 305 303 300 301 299 298 297 297 294 293 293 293 293 292 293 293 292 292 292 291 292 293 294 294 294 294 294 294 293 294 294 294 294 294 294 294 294

GFSWCAN_sfc_thetae_075.txt.gz
Theta_e
314 314 314 315 316 313 312 311 311 312 313 313 314 315 315 315 315 314 311 311 311 306 305 304 304 301 299 300 297 298 297 296 294 291 292 289 289 287 287 290 290 290 289 288 289 287 284 299 297 293 297 299 299 299
314 314 314 315 315 312 311 311 311 312 312 313 314 314 315 315 314 310 310 310 312 310 306 309 310 309 308 306 302 299 297 296 296 292 290 291 288 287 287 286 292 287 293 292 292 292 298 300 298 300 299 297 298 299
313 313 313 315 314 311 310 311 311 312 312 312 313 314 315 314 314 310 309 309 311 308 307 308 307 311 310 309 310 301 300 300 297 298 294 292 288 291 285 286 290 293 294 292 291 295 297 300 300 300 300 299 300 300
312 313 313 315 313 310 309 311 311 311 311 312 313 313 315 314 313 311 311 310 311 306 302 302 310 309 310 309 308 308 303 301 300 300 297 294 294 293 291 291 291 294 294 294 293 294 295 297 298 300 300 301 300 300
312 312 312 314 312 310 309 310 311 310 311 310 312 313 314 313 311 310 311 311 313 308 302 304 308 308 309 308 307 306 304 302 302 299 298 296 295 294 294 294 292 294 294 293 293 298 298 297 300 302 300 300 301 300
311 312 312 313 311 309 309 310 310 310 310 309 310 312 313 312 309 313 310 313 314 312 306 300 307 307 308 307 306 304 304 302 302 300 299 299 298 297 292 289 298 298 299 301 298 300 300 301 302 302 301 301 302 302
311 312 313 312 310 309 309 309 310 310 310 309 308 310 311 311 311 308 308 311 310 312 305 300 301 306 307 305 305 305 305 304 304 300 298 298 295 295 291 288 298 298 299 299 299 299 297 299 299 302 302 303 303 304
311 311 313 312 309 309 309 309 309 310 309 308 308 310 311 310 309 310 313 310 310 310 308 299 300 305 308 304 303 307 302 303 301 300 301 298 295 295 287 296 300 300 298 299 299 301 301 303 303 302 303 303 302 302
311 311 312 310 308 308 308 309 309 309 308 308 309 310 310 310 311 311 314 312 313 309 303 301 298 298 311 308 306 307 305 295 302 296 297 296 289 286 292 296 298 300 298 297 299 299 300 300 302 302 302 302 302 302
311 311 309 308 308 308 308 309 309 309 308 309 309 309 309 312 314 314 312 307 308 307 307 301 303 301 306 306 302 301 303 297 294 296 302 294 292 300 302 304 304 302 300 300 296 295 297 299 301 302 302 303 303 303
311 309 308 307 308 308 308 309 309 308 309 308 309 309 312 312 312 309 303 302 303 300 303 303 303 302 309 302 300 305 301 299 291 296 294 292 291 299 303 304 303 302 302 303 303 303 303 304 303 303 303 303 303 304
309 308 308 308 307 308 309 310 309 307 308 309 309 309 312 309 306 302 301 302 300 301 304 302 304 304 305 308 302 301 297 297 291 298 293 287 297 302 303 303 302 302 303 305 305 303 304 303 303 303 303 303 304 305
308 308 307 307 308 308 308 308 308 308 308 309 308 308 307 305 294 298 296 300 301 304 305 306 304 304 304 303 300 300 294 293 299 291 290 295 302 303 304 304 304 305 305 306 306 307 307 305 306 303 304 305 305 305
307 306 306 307 308 308 309 308 309 308 307 304 305 291 300 300 302 304 304 306 308 307 306 306 305 304 303 300 301 294 298 297 290 288 289 298 302 303 304 304 305 305 306 306 306 306 306 306 307 307 306 306 306 305
307 307 308 308 308 308 309 309 309 308 307 303 305 293 301 308 309 309 310 309 310 309 307 303 302 304 301 298 299 297 292 290 291 291 297 301 303 303 304 304 304 304 304 305 306 305 305 305 306 307 308 307 306 305
307 308 309 309 309 309 309 309 309 309 308 303 303 301 306 305 307 309 309 309 309 306 304 303 298 296 296 298 293 291 290 288 294 298 301 303 303 303 304 304 304 303 303 305 304 305 306 306 303 305 305 305 304 304
309 311 309 308 309 309 308 309 308 306 305 306 306 309 307 308 309 310 309 310 306 303 300 300 294 293 298 294 292 296 294 297 300 302 304 303 303 303 304 305 306 305 303 303 304 304 303 303 304 303 303 305 303 301
309 311 309 307 307 309 310 309 308 307 303 308 305 310 311 313 312 310 309 309 304 304 302 299 300 295 293 290 294 300 301 303 303 304 304 304 305 304 304 304 305 303 301 301 300 302 305 303 301 302 301 300 300 302
306 307 307 307 306 303 306 309 308 302 305 311 312 312 313 313 313 312 310 308 307 306 303 301 297 296 296 300 301 304 304 303 304 304 305 303 303 303 303 303 303 301 301 303 302 302 301 303 299 301 301 301 300 300
308 309 309 309 307 303 301 306 312 307 306 311 313 312 312 311 311 310 311 309 307 305 302 301 301 303 302 306 307 308 307 307 305 304 303 303 303 303 302 301 301 302 302 303 302 300 302 301 301 300 301 302 302 299
308 308 308 307 306 307 307 308 310 312 313 311 312 312 311 311 309 309 308 307 305 305 303 304 304 306 306 308 307 307 307 307 306 305 303 300 301 300 301 300 302 302 302 301 301 300 299 299 300 300 302 302 302 301
306 309 310 308 309 307 305 309 307 308 310 312 310 310 308 307 309 309 307 303 304 307 305 306 307 306 306 308 307 308 307 307 305 300 298 298 298 298 299 301 301 300 301 300 300 300 302 302 301 302 300 302 300 302
307 309 311 309 306 302 301 313 309 310 306 308 309 306 308 308 309 309 306 307 307 307 306 308 307 308 308 307 306 306 306 304 301 301 300 300 299 300 300 301 301 300 300 300 302 302 302 297 299 303 302 302 303 301
306 308 307 306 304 298 309 307 311 310 310 308 307 305 307 309 308 305 303 305 307 307 306 306 305 303 304 306 305 304 303 303 301 300 301 300 299 298 300 300 301 301 301 302 301 302 304 304 299 301 302 301 301 300
299 300 301 291 305 305 305 305 307 307 304 305 304 305 307 309 305 303 303 305 305 305 305 304 304 304 302 303 303 303 303 303 300 299 300 301 299 300 299 300 300 301 303 301 299 300 301 303 302 301 301 301 300 299
291 300 297 304 304 303 304 303 304 305 305 304 306 309 309 306 302 302 305 305 305 305 303 303 302 300 301 303 301 301 302 303 303 300 301 301 301 299 297 297 298 299 303 302 300 300 300 301 300 299 300 299 294 299
292 297 303 307 306 306 306 308 309 306 303 303 307 306 304 300 301 307 309 306 306 307 306 305 304 303 302 302 302 302 303 304 303 301 302 302 301 301 301 299 298 301 304 304 303 302 301 300 299 299 299 300 300 300
303 304 300 304 305 308 304 306 306 305 307 309 309 304 302 302 304 311 310 308 306 305 305 304 304 304 304 304 302 300 301 301 300 300 300 299 300 300 301 302 303 292 303 303 303 303 303 302 301 300 299 299 301 302
300 304 304 301 302 303 305 306 308 312 313 311 308 307 308 313 315 312 309 304 303 304 301 300 299 302 301 301 300 300 301 300 298 296 296 295 295 297 301 302 300 302 302 300 292 296 301 301 301 301 300 300 300 300
300 304 301 300 299 300 307 312 313 316 315 315 314 314 314 315 315 311 303 301 301 302 303 303 301 301 300 299 298 297 299 301 301 299 297 296 297 299 300 301 300 300 300 300 300 300 293 300 297 301 300 300 300 299
302 301 300 300 298 303 308 313 315 315 313 314 315 312 312 314 312 308 303 304 304 302 301 300 299 300 299 299 299 298 297 299 299 300 301 301 300 300 300 301 300 300 299 300 300 300 301 300 300 299 298 297 297 296
302 301 300 299 301 310 315 313 312 311 312 311 311 312 312 311 309 308 305 302 301 300 300 301 299 298 300 302 303 303 296 303 300 299 300 299 300 301 301 301 300 300 299 299 299 299 299 298 299 299 298 297 297 297
303 302 302 300 302 307 311 311 310 309 311 311 311 310 310 310 308 311 307 306 304 303 302 302 301 300 301 301 301 302 297 302 300 294 294 294 295 297 301 301 301 301 300 300 300 299 299 299 299 298 298 298 298 298

GFSWCAN_sfc_thetae_078.txt.gz
Theta_e
314 314 315 315 315 315 312 311 311 312 313 313 315 315 315 315 315 316 318 321 317 311 310 309 308 306 306 306 304 303 301 300 300 298 299 298 298 296 294 297 296 295 294 294 295 292 289 304 302 297 304 306 305 304
314 314 314 314 315 314 311 310 311 312 312 313 314 315 315 315 315 313 316 320 320 314 312 316 315 314 312 311 309 306 302 300 302 301 302 300 295 294 294 292 298 293 298 299 297 299 304 306 305 307 305 303 304 305
313 313 313 314 315 313 311 310 311 311 312 312 313 314 315 315 315 313 318 320 319 314 312 311 311 316 317 316 317 307 307 305 304 306 302 301 291 300 294 295 296 298 300 296 296 300 302 305 305 305 304 304 305 305
313 313 313 313 315 312 310 310 311 311 311 312 313 314 315 314 313 312 319 320 318 314 306 307 317 314 317 317 315 313 310 310 308 307 305 302 302 300 300 299 297 302 300 298 299 301 300 304 305 305 304 304 304 304
312 312 313 313 314 311 309 310 310 310 311 310 311 313 314 313 311 318 323 321 321 313 306 309 313 314 316 315 313 312 311 308 307 304 303 302 304 301 303 301 299 301 299 297 297 302 302 301 306 306 304 304 304 303
311 312 312 313 313 310 309 310 310 310 310 309 310 312 312 312 311 318 314 320 322 319 311 305 312 312 314 314 313 311 311 312 307 303 302 306 305 303 299 297 302 304 305 306 302 306 304 305 306 307 305 305 305 304
311 312 312 313 312 309 309 309 310 310 310 309 309 310 311 311 316 313 312 315 313 320 311 305 306 312 312 312 312 311 311 311 305 303 301 303 300 301 293 293 302 305 306 306 306 304 302 304 303 306 306 306 305 305
311 311 312 313 310 309 309 310 310 309 309 308 309 310 311 311 311 316 319 313 314 315 313 306 305 309 313 311 307 310 305 306 304 300 300 297 296 296 288 300 303 304 306 303 301 304 305 307 306 306 306 306 305 305
311 311 312 311 309 309 309 309 310 309 308 308 309 310 315 316 318 316 313 312 322 315 309 310 303 302 316 314 311 309 307 299 307 299 297 298 292 288 299 303 304 304 302 302 302 301 301 304 305 305 305 305 304 305
311 311 311 309 308 308 308 309 309 308 308 309 314 315 313 318 313 315 316 313 314 314 313 309 312 305 310 313 309 305 305 301 295 299 304 296 296 305 306 307 306 307 305 303 298 296 300 301 303 304 304 305 306 306
311 310 309 308 308 308 309 309 309 308 307 316 316 314 318 313 318 314 309 307 310 306 311 313 311 306 314 306 307 310 305 304 295 299 299 295 297 302 306 307 308 306 303 302 303 305 305 304 302 303 305 306 307 307
310 309 308 307 308 308 309 310 309 310 315 313 315 316 319 314 308 304 306 306 305 305 310 311 310 310 309 312 306 308 301 303 292 304 296 290 301 304 306 306 308 305 305 306 306 306 308 307 308 307 307 307 307 308
308 308 308 307 308 309 308 309 309 309 310 316 313 312 311 310 295 302 299 304 307 310 311 311 307 309 308 309 305 304 296 296 305 297 291 297 303 305 307 308 308 309 307 309 309 309 309 308 309 309 308 308 307 308
307 307 306 307 308 309 309 309 309 310 312 309 308 293 306 305 308 310 309 309 313 315 314 313 307 303 305 304 307 297 302 303 291 291 292 300 305 306 308 308 309 308 309 309 309 309 309 309 309 311 310 311 309 308
307 308 309 309 308 309 309 309 309 315 312 306 308 296 307 314 316 317 313 316 316 317 312 308 309 308 305 303 304 301 296 292 296 294 298 303 307 307 307 307 307 307 308 308 309 308 309 309 309 309 311 312 311 311
308 309 311 309 309 309 309 309 313 315 312 307 306 304 313 312 312 315 314 313 315 313 312 309 303 300 299 302 296 294 293 291 297 301 304 306 306 307 308 308 309 308 309 309 309 307 308 308 308 309 310 311 311 310
308 313 309 309 310 309 309 313 313 309 308 306 307 310 309 310 312 316 317 315 316 310 305 305 295 295 303 297 295 301 297 299 303 304 306 308 308 308 308 308 308 308 307 307 306 307 307 307 309 305 302 304 305 308
314 312 309 308 309 310 314 314 310 310 306 309 306 313 316 317 316 317 317 316 311 310 310 304 306 298 295 292 296 302 304 307 308 307 307 309 309 308 307 306 306 306 305 305 306 306 307 306 303 302 301 302 302 304
310 312 309 308 309 307 308 313 313 306 307 313 315 317 318 318 321 320 319 317 316 316 312 308 302 301 301 303 302 304 307 307 306 307 308 308 307 306 306 306 306 304 304 305 305 305 305 305 307 302 303 302 300 301
309 309 309 309 308 310 305 309 319 313 311 317 318 317 318 318 319 318 317 315 313 311 308 306 305 306 307 309 310 309 310 312 309 306 304 305 306 305 305 304 303 304 303 304 304 301 304 304 305 305 304 301 300 300
307 311 308 311 312 311 311 312 312 316 318 316 320 319 317 318 315 314 314 316 312 310 308 311 311 312 314 313 313 313 312 313 311 307 306 302 304 304 304 305 305 303 302 303 302 302 300 298 301 303 302 303 307 308
312 309 315 314 314 312 311 315 311 314 311 313 314 315 310 310 313 315 317 311 310 312 314 313 315 313 313 313 313 314 314 312 309 302 299 298 301 302 303 305 304 302 303 303 302 303 302 302 303 305 304 303 304 305
308 311 314 313 309 304 304 319 311 313 307 311 315 311 312 313 316 316 311 313 315 318 317 315 316 316 314 315 314 313 312 309 304 303 302 302 302 303 304 304 304 303 302 303 306 305 303 297 302 306 305 306 306 304
306 311 309 309 307 302 314 311 315 314 314 312 310 307 310 315 316 312 308 313 315 314 312 314 313 311 312 312 308 307 307 306 304 303 303 302 301 301 304 303 304 304 305 306 305 305 305 306 299 303 303 304 303 300
301 301 302 292 308 305 307 308 309 309 306 309 307 309 311 314 310 308 308 311 312 312 313 313 312 311 308 306 306 305 308 305 303 301 303 305 303 302 301 303 304 305 308 303 302 302 303 306 303 301 302 301 300 300
292 304 300 305 306 305 306 304 306 306 308 306 309 316 314 311 305 304 310 313 313 313 312 312 310 308 307 306 303 303 304 307 305 302 303 304 304 303 300 299 300 301 306 305 303 302 301 302 301 300 300 298 294 299
293 300 306 311 310 309 308 311 312 308 306 305 312 310 310 303 303 311 315 316 314 315 315 314 311 307 306 305 305 306 307 307 306 305 305 305 305 306 303 300 301 303 305 305 305 304 303 302 301 300 300 300 300 299
305 306 301 305 306 308 304 305 305 305 309 315 313 305 303 305 307 315 316 315 315 316 314 312 310 308 306 306 305 305 306 306 305 304 305 304 304 304 305 306 306 294 307 305 305 305 306 304 303 301 301 302 301 301
304 308 307 302 304 304 306 306 306 313 318 316 310 308 310 318 321 319 316 313 314 313 308 306 306 307 306 307 306 306 306 304 302 299 299 298 298 300 303 304 304 305 305 303 290 297 302 303 302 302 301 302 303 304
304 307 303 302 300 300 303 308 309 319 320 318 318 316 316 318 321 323 315 310 309 306 307 306 306 305 304 303 302 303 305 305 304 302 300 299 300 302 303 302 303 303 303 303 303 302 293 300 297 303 303 303 303 301
309 306 303 303 302 304 306 308 311 312 313 312 315 314 314 318 321 319 315 312 310 309 307 305 304 305 304 303 303 303 302 305 305 305 305 305 303 302 303 303 303 303 303 303 303 303 303 302 304 302 302 301 300 298
306 304 302 300 303 310 315 314 313 312 316 316 315 318 317 316 313 314 312 310 307 306 303 305 304 303 305 305 306 306 297 306 305 305 306 304 304 304 303 304 303 303 303 303 303 303 302 301 303 302 302 300 300 300
306 306 305 304 303 303 309 310 311 312 315 316 317 316 315 313 310 313 309 306 304 303 303 301 301 302 305 304 304 305 300 306 303 297 296 296 297 299 303 303 302 302 302 302 302 302 302 301 301 301 301 301 301 301

GFSWCAN_sfc_thetae_081.txt.gz
Theta_e
315 315 315 315 315 316 312 311 311 312 313 314 315 316 316 316 316 316 320 322 318 312 313 311 310 309 307 308 305 306 303 304 303 301 303 302 300 301 299 301 299 299 297 297 298 295 292 307 304 299 308 311 310 310
314 314 314 314 314 315 311 310 311 312 313 313 314 315 316 316 315 314 318 324 323 317 315 317 316 317 314 313 311 308 306 303 304 305 305 305 301 301 299 297 303 297 302 302 300 302 309 309 309 312 312 309 308 309
313 313 313 314 314 315 311 310 311 311 312 313 314 315 316 315 315 314 320 323 322 315 314 313 312 317 319 318 318 308 310 309 307 310 306 305 296 304 299 299 299 301 304 301 300 305 306 307 309 310 309 308 309 309
312 313 313 313 313 314 310 309 311 311 311 312 313 314 315 315 314 313 321 323 320 315 308 311 318 315 320 319 317 316 314 314 313 309 305 303 302 306 302 303 300 304 304 300 301 304 305 307 309 309 307 308 307 308
312 312 313 313 313 313 309 309 310 310 311 310 311 313 314 314 313 317 325 326 324 317 310 310 315 317 318 318 315 314 313 313 311 307 304 302 306 305 304 303 301 305 302 300 299 306 306 305 309 310 307 306 307 306
311 312 312 312 313 311 309 309 309 310 311 310 310 312 313 313 314 320 316 324 324 322 313 306 315 314 317 316 315 313 314 312 311 308 306 309 308 306 302 300 307 308 308 308 306 309 309 308 308 310 308 308 308 307
311 312 312 312 313 310 309 310 309 310 310 310 309 310 312 312 316 316 314 317 313 323 313 307 308 315 316 315 314 312 313 310 310 306 304 301 299 305 301 297 305 308 309 309 311 309 306 307 306 308 309 309 307 308
311 311 311 312 312 309 309 309 309 309 309 309 309 310 312 312 312 315 320 315 315 318 316 308 306 310 317 312 310 313 311 311 309 306 302 299 297 296 288 300 305 308 309 308 309 310 309 308 309 309 309 309 307 306
311 311 311 312 310 309 308 309 309 309 309 309 310 311 318 316 315 318 315 314 323 319 312 309 303 304 316 316 316 315 313 305 308 302 303 300 293 288 298 304 305 306 305 307 308 309 309 305 305 307 308 307 306 306
311 311 311 310 309 308 308 308 308 309 308 309 315 318 313 319 312 316 319 317 317 316 315 310 312 303 310 311 309 308 309 305 300 303 305 298 298 306 309 308 309 309 310 309 305 304 304 303 302 304 306 308 308 307
311 311 310 309 308 308 309 308 310 309 306 318 316 315 321 314 319 315 310 311 314 308 311 312 310 306 314 308 308 310 305 305 298 300 300 297 301 304 306 307 310 310 309 308 308 307 306 304 303 304 305 307 307 307
310 309 308 307 308 308 309 309 310 312 319 314 316 318 323 315 312 307 307 311 308 306 314 310 310 311 313 315 308 309 303 304 295 305 298 295 302 306 306 307 309 310 309 308 309 307 306 306 306 307 307 307 307 308
308 308 307 308 308 309 309 310 309 311 311 320 316 312 312 311 298 303 300 305 306 310 311 311 308 312 313 312 309 308 297 298 308 298 296 299 306 308 308 308 308 310 310 310 308 310 309 309 310 308 307 310 310 309
308 307 307 307 308 309 310 310 309 312 314 312 310 296 306 306 309 308 309 312 315 313 312 308 309 311 311 306 307 299 304 305 296 293 294 302 308 309 309 308 307 307 307 308 308 309 309 310 310 311 311 312 310 308
308 308 309 310 309 309 310 309 309 317 315 309 309 296 308 312 317 315 317 316 315 315 312 309 309 309 305 303 304 302 297 294 296 295 301 306 310 309 308 308 308 307 308 307 309 309 308 308 308 308 310 312 313 311
309 306 312 309 310 309 309 310 316 319 315 310 309 306 312 311 311 317 315 312 314 312 313 309 305 302 300 303 298 295 294 292 298 303 305 308 309 309 309 309 308 308 308 308 309 308 308 308 308 309 310 311 311 311
306 317 310 311 310 310 310 315 317 312 310 308 307 310 312 315 313 316 318 315 315 311 308 306 297 296 303 298 296 303 298 301 304 305 308 312 311 309 309 308 307 307 307 306 306 307 307 308 309 308 307 307 307 309
316 315 310 310 309 312 318 316 315 312 307 310 308 313 315 317 316 316 316 317 313 311 311 305 308 301 299 294 297 303 305 307 309 308 309 311 311 310 308 306 306 306 306 306 306 306 307 306 306 306 307 308 307 307
311 313 309 309 310 309 311 315 317 308 309 311 314 316 318 317 321 321 321 318 316 318 313 310 304 302 301 306 306 305 307 308 307 308 311 312 310 307 307 308 307 306 305 305 305 304 305 305 307 307 307 303 302 303
309 309 310 310 309 312 309 311 321 313 310 316 316 316 320 318 319 320 319 318 316 314 309 306 307 309 307 310 313 310 309 311 309 306 307 308 308 307 306 305 304 305 305 306 305 302 304 304 307 307 306 304 300 300
306 313 309 313 312 312 313 313 312 313 315 315 316 319 316 318 317 316 315 318 315 312 309 312 310 315 318 316 315 315 313 312 309 308 306 307 306 308 305 305 306 306 303 303 303 303 303 303 305 305 305 304 302 306
316 310 319 317 315 316 314 315 312 315 312 310 313 314 312 312 312 313 321 314 314 314 316 315 317 317 317 314 314 314 317 316 312 305 300 301 303 304 304 307 305 306 304 305 303 304 304 306 307 306 304 303 303 303
307 311 314 316 310 308 305 318 311 312 307 310 313 311 312 313 316 322 313 315 315 320 322 322 321 321 318 318 317 316 315 311 307 306 304 305 305 306 305 306 306 305 304 304 304 303 304 298 303 304 304 305 305 305
306 312 309 309 308 304 312 311 315 314 314 312 312 309 312 316 319 314 310 313 317 319 318 320 318 316 315 316 312 311 310 309 307 306 306 305 303 304 307 307 307 307 308 305 304 303 304 304 302 305 304 305 303 302
302 301 305 295 311 306 306 309 310 309 308 311 310 311 314 317 312 309 310 311 315 315 317 318 316 315 313 312 310 308 311 307 305 304 305 306 306 304 304 305 307 308 307 305 303 303 303 304 305 305 304 303 301 301
295 306 301 304 305 305 306 303 306 308 310 308 310 316 316 314 307 306 310 313 315 316 317 316 314 313 311 310 307 306 306 308 307 304 305 306 305 304 303 302 302 304 307 307 305 304 303 304 303 301 302 300 295 300
295 302 308 312 311 310 307 309 311 309 307 306 313 310 309 304 305 311 318 320 318 319 318 318 315 313 310 309 308 308 308 308 308 308 307 307 307 308 306 302 303 305 307 308 307 306 304 304 302 302 302 303 302 301
307 308 303 306 306 308 304 306 306 306 309 313 312 306 305 305 307 317 319 322 322 319 317 316 315 311 309 308 308 308 307 308 307 307 306 306 308 306 306 309 308 296 306 307 308 307 306 306 305 304 303 302 303 304
307 310 308 304 306 306 306 307 308 311 315 314 312 309 310 316 318 318 322 323 320 317 314 310 309 308 308 309 308 307 308 306 303 301 300 299 300 301 305 306 306 305 306 304 291 296 304 303 303 303 303 304 305 306
307 310 306 306 304 302 306 308 308 312 316 318 318 317 317 317 319 325 324 323 316 315 313 311 307 306 305 305 304 304 306 307 305 303 301 301 302 305 304 305 305 305 307 305 303 303 295 300 299 303 302 304 304 303
311 310 306 306 305 308 309 310 310 311 313 314 315 313 312 317 320 324 321 318 317 314 310 307 306 306 305 305 302 301 301 305 306 306 306 307 307 305 305 305 305 306 304 304 305 304 304 303 304 304 302 302 301 299
309 308 306 304 304 309 311 310 311 311 312 313 315 318 319 318 315 311 312 313 311 307 303 306 305 306 309 309 307 307 297 308 308 307 308 306 306 306 306 306 306 305 305 304 304 304 304 303 303 304 303 302 302 301
309 310 309 307 307 307 309 309 311 311 312 314 316 316 315 315 309 309 310 308 305 303 301 303 305 309 309 308 307 307 301 309 305 298 296 297 296 300 306 306 306 305 304 304 304 303 303 303 303 304 303 303 303 302

GFSWCAN_sfc_thetae_084.txt.gz
Theta_e
314 314 315 315 315 316 313 311 311 312 314 315 315 316 317 317 316 315 321 324 317 314 313 311 310 308 307 309 305 306 304 305 304 301 301 301 300 303 300 303 300 298 296 296 296 294 292 308 304 299 309 312 311 313
313 314 314 314 315 315 314 311 311 312 313 314 315 316 317 317 316 315 319 324 323 317 315 316 316 316 315 313 310 308 306 305 305 304 304 303 301 301 299 296 304 298 302 301 301 302 309 311 310 313 312 311 311 311
311 313 314 314 314 314 315 310 311 312 313 313 314 316 316 317 316 315 321 322 320 316 315 312 312 316 319 317 318 309 310 310 308 311 306 304 298 303 299 300 302 303 305 302 302 307 308 309 311 312 312 311 310 311
312 312 313 314 314 314 314 310 311 311 312 312 313 315 315 316 316 315 321 322 320 317 308 311 320 315 319 319 317 317 315 314 312 308 304 303 301 306 301 303 301 303 305 300 301 305 306 308 309 310 309 310 310 309
312 312 313 313 313 314 312 309 310 311 311 312 312 314 315 315 314 316 323 325 324 317 310 309 315 316 318 318 315 315 314 312 311 308 305 303 307 306 305 303 301 305 302 300 299 306 307 307 311 312 309 307 308 308
311 312 312 313 313 314 311 309 310 311 311 311 311 312 313 314 314 319 316 324 324 322 314 306 317 314 316 317 315 313 315 312 311 308 305 308 310 306 303 302 307 309 310 311 307 310 310 310 309 311 309 308 308 308
311 312 312 312 313 313 309 309 310 310 311 311 311 311 312 313 315 316 313 317 314 323 315 307 309 315 316 316 315 313 315 314 310 309 309 307 305 305 302 298 307 308 309 310 311 311 308 309 306 310 309 310 310 309
311 311 312 312 313 311 310 309 309 310 311 310 311 311 312 312 312 316 321 313 315 319 316 307 306 310 317 308 309 314 310 310 309 307 307 304 303 298 290 303 306 307 308 308 309 310 309 309 310 311 310 310 308 306
311 311 311 312 312 311 309 309 309 310 310 311 311 311 318 317 318 318 317 317 324 320 313 309 304 305 315 312 314 315 312 305 309 303 306 304 296 288 299 304 306 307 306 306 307 308 308 308 309 308 307 308 307 307
311 311 311 312 310 309 308 309 309 310 310 310 314 318 316 319 313 315 319 318 318 316 315 308 310 305 310 311 310 310 310 306 300 303 306 300 298 305 309 311 311 309 308 308 305 305 305 306 307 308 306 307 307 308
311 311 311 309 308 308 308 309 310 310 307 317 317 315 321 315 322 318 312 310 310 308 312 312 310 305 314 304 306 309 305 306 298 302 300 299 300 305 310 307 311 312 309 308 309 309 309 308 307 308 307 308 309 308
310 310 308 307 308 308 309 310 310 311 319 314 314 318 323 316 313 308 308 310 308 305 312 308 309 310 311 313 307 308 302 304 295 306 300 296 302 309 307 306 308 311 310 308 309 308 309 309 309 308 307 307 308 308
309 308 307 307 308 309 310 310 310 311 312 321 316 313 311 312 298 304 301 306 307 310 312 311 309 311 311 311 306 306 299 299 305 300 297 299 307 307 309 309 307 309 310 310 309 310 310 310 310 309 309 310 311 310
306 307 307 308 308 309 310 310 309 313 313 313 310 294 307 305 308 308 307 308 312 311 310 308 308 307 309 306 305 299 302 302 295 293 295 304 308 310 310 309 308 307 308 308 309 311 310 309 310 310 309 312 308 309
310 309 310 310 309 309 310 310 310 316 316 309 309 297 308 313 314 315 314 314 314 314 311 309 310 307 306 303 304 300 296 294 296 295 301 308 311 309 308 308 307 307 306 306 308 308 309 309 310 310 310 308 309 311
310 306 313 310 311 310 310 311 316 319 315 310 309 307 311 311 311 313 313 312 314 312 313 309 304 301 299 302 297 296 295 293 297 303 308 310 311 310 309 308 307 306 306 307 306 306 307 306 306 307 307 310 311 309
306 318 311 311 311 310 310 314 318 313 310 309 307 310 310 314 312 314 315 315 316 311 306 307 299 298 303 298 296 300 298 301 304 307 311 313 311 310 309 307 307 306 306 306 306 307 307 306 307 306 306 309 309 309
319 310 311 311 309 315 319 315 314 312 307 310 307 311 314 318 315 316 316 317 313 312 311 307 309 302 299 296 298 304 305 306 308 310 312 313 313 311 308 306 307 306 306 305 306 306 307 305 304 305 307 308 307 307
310 311 310 310 311 310 311 315 316 307 309 310 312 313 318 318 317 321 318 320 317 315 313 310 305 303 303 307 307 307 306 306 306 311 313 314 312 309 307 307 307 306 305 307 306 304 305 306 306 307 308 307 302 304
308 309 310 310 309 311 310 311 319 312 308 313 314 311 316 316 319 319 319 320 317 314 310 306 308 309 309 313 314 311 309 309 308 306 308 310 309 309 307 306 304 306 306 307 305 302 304 304 305 305 306 304 303 302
306 314 310 313 311 311 312 312 312 312 312 311 314 314 314 317 316 312 316 317 312 311 309 312 311 312 319 320 317 314 315 311 309 308 307 307 308 307 306 306 306 305 304 304 303 302 303 303 304 307 306 305 307 306
316 311 316 316 315 316 313 315 310 313 312 312 310 313 312 311 312 314 319 312 313 313 315 317 318 318 318 318 316 316 319 317 313 307 301 302 304 304 304 305 305 304 305 304 304 302 304 304 306 307 306 306 305 306
310 311 313 314 311 307 304 315 310 312 306 309 311 307 307 310 313 318 312 315 316 321 320 321 325 325 322 321 318 318 317 311 307 307 305 305 306 306 305 305 305 305 304 304 306 306 305 300 303 304 304 305 305 303
307 311 309 308 309 303 311 308 312 311 311 310 309 309 312 310 317 314 310 313 315 320 321 325 321 318 318 318 314 313 312 310 308 307 306 305 303 304 306 306 306 306 306 307 305 305 305 304 300 304 304 304 303 302
301 300 303 294 310 308 304 305 307 308 306 309 310 309 311 313 310 309 310 312 310 317 319 321 318 317 314 314 313 312 314 309 306 305 306 306 306 305 303 304 306 307 308 306 305 304 304 305 304 304 302 301 301 302
296 305 299 305 305 304 304 302 307 307 308 308 308 311 311 305 303 305 310 315 314 318 318 318 315 314 314 314 311 309 308 309 309 306 306 306 305 304 303 302 302 304 307 307 305 304 304 304 303 302 302 300 294 300
297 303 309 313 310 310 307 308 309 307 305 305 309 309 309 301 302 309 311 312 318 320 321 320 317 315 314 313 312 311 310 309 309 307 309 307 307 308 306 303 303 306 307 306 306 305 304 304 304 303 303 303 303 302
307 309 304 308 307 308 304 305 305 305 307 312 313 306 305 305 307 311 313 317 322 322 321 319 318 316 313 312 310 309 308 308 308 307 307 307 308 306 306 307 306 296 307 306 306 306 305 305 305 304 303 302 303 304
307 310 310 306 307 306 306 305 306 309 314 312 308 305 309 313 318 319 322 323 322 320 317 315 313 311 310 310 309 308 308 305 302 301 301 300 301 302 305 306 307 307 306 306 293 299 303 302 302 303 304 304 304 305
307 311 307 306 305 304 306 308 308 311 313 314 316 317 316 318 318 320 320 319 319 317 318 316 311 308 306 306 303 304 306 305 305 304 302 302 303 305 305 305 306 305 306 306 303 303 296 300 300 303 303 304 304 304
311 310 308 307 306 309 311 312 312 311 310 310 312 312 313 317 319 319 312 316 314 310 312 310 306 307 306 305 303 303 302 305 307 307 307 307 307 307 306 306 306 307 307 306 305 304 303 302 303 303 304 303 303 301
308 307 306 305 307 311 312 309 308 309 311 311 313 316 314 314 310 314 314 312 309 306 302 305 304 306 308 310 309 308 298 306 308 308 308 306 306 307 307 307 306 306 306 305 305 304 305 304 303 303 303 302 303 303
311 310 310 308 307 307 310 309 308 308 311 310 310 313 313 313 309 314 317 312 311 311 311 310 309 308 308 309 309 309 303 309 307 296 297 296 296 301 306 306 306 306 305 304 304 304 304 304 303 303 304 303 303 303

GFSWCAN_sfc_thetae_087.txt.gz
Theta_e
311 313 314 315 315 315 317 314 313 313 314 314 315 316 317 318 316 314 317 325 317 311 311 312 311 309 308 306 301 304 301 302 300 297 297 296 294 298 295 298 296 294 290 291 292 290 288 308 306 300 303 305 309 310
313 312 313 314 314 315 316 315 312 313 314 314 315 316 317 317 316 315 319 323 324 316 314 316 315 315 314 311 306 305 301 303 301 301 301 300 295 296 294 290 300 293 297 295 298 296 304 307 306 308 308 306 306 305
312 312 312 314 314 314 315 315 312 313 313 313 314 315 316 316 316 315 318 323 319 315 314 310 309 316 315 314 314 306 307 309 306 307 302 301 295 299 293 294 296 300 301 297 299 304 305 307 308 309 309 306 308 306
312 312 312 313 314 314 315 315 312 313 313 313 313 314 315 316 315 315 318 323 320 317 308 309 318 314 317 315 315 313 311 310 308 305 300 299 299 304 297 299 296 300 299 296 297 302 304 306 308 307 307 309 308 308
312 312 312 312 313 314 315 314 312 312 312 313 313 313 314 315 314 314 317 322 323 315 309 309 314 315 315 315 314 313 312 311 308 305 302 300 304 302 303 301 299 303 300 295 294 302 301 303 307 308 306 305 306 305
311 312 312 312 312 313 315 312 311 312 312 313 313 313 313 314 313 317 316 321 319 320 313 306 315 314 315 316 314 312 313 310 309 305 304 306 306 301 297 293 303 305 306 306 302 307 306 307 308 310 308 306 306 305
312 312 312 312 312 313 314 311 310 311 312 312 313 313 312 312 312 316 313 316 311 321 315 308 305 314 316 315 313 311 312 310 309 306 304 303 301 302 298 293 303 306 306 307 307 307 304 307 304 307 308 308 309 306
311 312 312 312 312 313 313 310 311 311 312 312 312 312 312 312 311 315 320 315 312 317 318 307 306 309 315 307 306 312 308 309 307 305 304 301 300 298 288 299 303 305 306 307 307 307 306 305 305 306 308 307 305 304
311 311 311 311 312 313 311 309 311 311 312 312 312 312 315 314 319 319 320 318 321 319 311 308 304 302 315 311 311 311 311 303 308 302 302 302 293 287 294 300 303 306 304 305 306 306 305 306 305 307 306 306 305 303
311 311 311 311 312 310 308 308 310 311 311 311 310 316 315 321 317 317 319 317 316 318 316 309 312 306 310 309 307 306 308 303 298 301 303 298 294 299 304 306 308 308 307 305 301 303 303 303 304 305 306 305 306 306
311 311 311 310 308 308 308 309 310 310 310 313 315 315 321 318 321 319 312 311 312 308 311 311 311 305 313 304 304 308 303 303 296 299 298 297 296 303 308 308 308 309 308 308 306 305 305 304 305 305 306 306 306 307
310 310 308 308 308 308 309 310 310 309 316 310 310 315 323 318 312 308 308 310 308 305 311 309 310 310 311 312 306 307 302 303 295 304 298 292 300 306 308 306 307 308 309 309 309 307 308 308 307 305 305 306 306 306
308 307 307 307 307 308 311 310 310 310 311 320 314 314 312 311 297 302 301 306 307 312 312 310 309 312 311 311 306 304 299 298 305 298 295 297 304 305 305 308 307 308 310 310 311 310 309 309 309 307 306 307 308 307
308 307 307 308 308 309 310 310 311 312 311 311 310 292 304 304 307 309 308 309 314 312 310 311 308 307 308 305 305 300 302 302 295 292 295 302 305 307 308 307 306 306 307 305 307 308 308 309 307 308 309 308 307 307
310 310 310 310 310 309 310 310 311 313 314 310 309 294 305 312 312 315 315 315 315 314 311 309 309 307 305 304 304 300 298 295 296 295 299 307 309 307 306 307 305 305 304 304 304 304 305 306 306 307 308 308 308 308
310 308 311 310 311 310 309 310 313 317 316 310 309 305 310 310 311 311 314 314 315 312 314 311 307 303 301 302 300 297 295 293 297 303 306 310 309 309 307 306 306 305 304 304 303 305 304 303 303 303 305 305 306 307
304 315 311 311 311 310 310 311 318 312 309 308 306 310 309 312 308 310 311 313 319 312 307 308 301 300 303 297 298 300 297 301 306 308 309 311 310 308 307 306 305 305 304 303 303 304 306 305 304 303 302 304 305 305
314 312 312 311 310 313 316 312 312 310 306 309 306 308 312 315 314 312 313 316 316 313 313 308 312 303 300 297 298 305 304 308 310 310 310 311 311 310 308 305 305 304 304 304 304 304 304 303 302 301 303 304 303 302
309 309 310 310 310 308 309 313 315 306 308 310 311 313 312 314 323 323 322 320 318 320 315 312 306 303 304 305 308 309 307 308 308 310 311 312 311 308 306 307 306 306 305 305 303 302 303 304 302 303 303 301 299 300
308 309 310 310 308 308 308 311 321 312 306 313 314 312 315 319 321 321 319 320 315 313 310 307 307 311 309 309 313 312 311 310 309 309 308 307 308 307 306 305 305 306 305 304 302 302 302 303 303 302 301 301 300 299
312 313 311 312 309 308 308 310 312 312 312 310 313 313 314 319 315 318 316 322 316 312 309 312 313 317 315 314 315 319 313 311 310 309 308 305 307 306 305 304 305 305 303 302 301 300 300 302 303 304 303 302 302 301
314 312 314 314 312 314 312 315 310 313 311 311 312 313 310 309 311 313 318 314 312 314 316 315 317 316 315 316 317 318 317 313 310 304 303 303 303 304 304 304 303 303 302 302 302 301 302 302 302 304 305 304 302 304
312 311 311 312 310 305 302 317 309 311 306 309 311 308 308 308 311 317 310 316 317 319 318 319 323 320 318 320 319 318 317 311 308 307 304 303 306 307 305 303 303 303 302 303 304 304 303 299 301 301 302 302 303 302
308 309 308 306 307 300 309 308 311 310 310 308 306 306 308 311 313 309 308 313 315 315 313 318 319 316 318 317 314 313 312 311 310 307 306 306 302 303 306 304 304 305 305 305 303 302 304 303 302 301 303 303 302 301
299 297 300 291 309 307 305 304 306 306 304 306 306 306 311 311 306 305 306 310 314 314 316 318 318 317 314 314 314 313 314 309 307 304 307 307 305 304 302 303 305 304 306 304 303 303 302 303 303 302 301 299 299 301
293 303 296 303 303 302 303 302 306 306 306 306 308 308 309 306 303 302 308 311 311 313 313 316 318 316 316 316 313 310 309 311 311 305 305 306 305 302 301 301 302 302 305 305 304 303 303 302 301 303 299 297 294 299
294 302 308 313 308 308 306 309 310 305 305 306 310 308 305 301 302 308 315 315 312 315 317 317 320 317 315 314 312 312 310 311 310 306 307 308 307 308 305 303 303 305 306 306 305 304 303 303 302 302 301 302 302 301
305 308 303 307 308 309 305 305 303 303 305 310 311 305 303 305 307 314 314 318 318 319 320 321 322 319 313 309 309 308 307 306 306 306 305 306 307 305 306 305 303 299 305 305 306 305 303 304 304 303 303 302 302 303
305 309 309 305 307 308 308 305 305 307 310 309 307 305 307 314 312 314 318 321 322 319 314 313 314 311 309 309 308 306 304 303 302 300 300 298 300 301 305 305 305 305 305 301 297 301 303 301 301 300 303 303 302 303
305 310 307 306 304 304 308 310 308 310 310 310 315 316 315 314 315 317 317 318 317 317 318 316 314 306 304 303 302 303 305 305 304 302 301 301 302 303 304 305 305 304 305 303 301 300 296 300 299 302 302 303 303 302
310 309 307 307 306 308 310 312 313 313 311 312 317 314 313 315 316 319 315 312 311 308 307 304 303 304 303 303 302 301 301 306 306 306 307 307 306 305 305 306 306 306 306 306 302 301 300 299 300 301 302 303 303 300
309 308 306 304 306 312 314 310 309 309 312 312 311 312 313 315 310 313 313 311 310 307 304 306 304 304 306 306 306 305 303 307 307 307 309 308 308 308 307 306 306 306 306 306 305 303 303 302 302 303 302 304 304 304
309 308 307 307 307 308 310 309 308 308 310 309 309 312 313 312 307 313 316 314 312 312 311 310 309 308 310 309 308 307 303 309 308 300 297 295 297 301 306 306 306 306 306 304 304 304 304 305 303 304 305 304 304 304

GFSWCAN_sfc_thetae_090.txt.gz
Theta_e
313 313 312 312 314 315 315 317 314 312 314 315 315 316 317 317 316 310 309 313 307 302 305 305 307 302 301 298 294 297 298 297 294 292 292 290 288 290 289 296 292 290 287 287 289 287 285 305 305 299 301 304 308 306
313 313 313 312 313 314 315 316 315 312 313 314 315 316 316 316 316 314 309 316 316 307 307 308 307 308 307 304 300 298 295 294 294 292 293 293 289 291 289 285 297 290 293 292 294 293 300 302 302 305 305 305 304 306
313 313 313 313 313 314 315 315 315 312 313 313 314 315 315 315 315 312 307 311 310 306 305 301 302 306 310 308 307 300 300 301 299 299 295 295 290 292 284 286 292 296 297 297 297 299 301 303 304 306 306 303 305 307
312 313 313 313 313 313 314 315 314 311 312 313 314 314 315 315 314 313 306 312 311 308 300 302 310 306 307 309 309 306 304 304 300 296 292 293 292 296 292 293 291 295 295 291 294 299 302 304 304 303 306 306 305 304
312 312 312 313 312 313 314 315 313 311 312 313 313 314 314 314 313 309 307 311 311 307 301 304 305 307 308 308 309 308 305 303 300 298 296 295 296 296 296 295 294 298 295 291 291 298 297 300 304 306 304 304 304 303
311 312 312 312 312 312 313 315 311 310 312 312 313 313 313 313 312 310 308 313 310 310 305 299 305 304 307 309 308 307 305 303 301 298 297 298 299 296 288 289 298 300 301 300 298 302 302 303 306 307 304 304 304 302
312 312 312 312 312 312 313 313 310 310 311 312 312 313 312 311 305 308 307 311 308 311 307 300 300 310 309 307 306 304 305 302 301 298 296 296 295 296 289 284 298 299 301 302 302 302 300 302 300 304 305 305 307 304
311 312 312 312 312 312 313 311 309 311 311 312 312 311 311 311 309 310 312 310 309 309 309 300 303 303 306 302 301 303 301 301 300 297 296 293 293 293 286 292 297 300 301 301 301 301 301 303 303 302 304 304 302 302
311 311 311 311 312 313 312 309 309 310 310 311 311 311 308 308 309 311 318 315 310 311 303 301 298 295 307 303 305 303 301 295 300 294 294 294 288 284 289 292 297 300 298 299 300 301 302 301 302 304 305 303 300 300
311 311 311 311 312 310 308 308 309 309 309 310 307 310 307 313 319 317 312 307 307 308 307 304 303 300 304 301 298 298 298 294 290 294 297 290 287 293 295 297 300 302 302 301 296 296 297 297 301 300 302 303 305 304
311 311 311 310 308 308 308 308 309 309 309 306 307 307 313 317 313 309 304 303 303 300 302 302 301 302 303 298 298 299 295 295 287 293 292 289 288 297 301 301 303 304 304 302 301 301 302 301 301 301 301 304 304 304
310 309 308 308 308 308 309 310 310 305 307 305 304 308 310 309 303 301 300 304 301 298 302 301 301 301 301 301 297 301 297 295 289 297 291 284 293 299 302 304 304 302 303 304 306 304 304 304 303 302 301 302 303 305
307 307 307 307 307 308 310 310 309 309 307 308 307 306 305 305 293 298 295 298 297 302 304 303 302 300 301 301 297 295 293 292 299 292 287 291 296 300 300 301 301 303 304 305 305 306 306 305 306 303 303 303 303 303
309 308 308 308 308 308 309 310 310 308 306 304 304 291 299 297 301 301 301 301 304 304 304 303 300 298 298 296 296 293 295 296 291 286 289 294 298 300 300 303 301 301 301 302 303 304 305 304 304 304 304 304 304 303
309 310 310 310 310 310 308 309 309 306 307 305 304 292 299 304 307 308 306 306 305 303 300 298 299 297 296 296 296 294 293 291 291 289 293 298 299 300 300 300 299 299 299 299 299 299 300 301 301 300 302 302 303 305
309 308 307 310 310 309 308 307 306 308 309 305 303 299 301 302 307 305 305 305 307 301 301 300 298 295 295 295 294 293 291 288 290 294 297 301 300 299 299 300 299 298 297 297 297 298 298 298 297 297 299 300 300 301
307 308 310 310 310 309 309 305 309 309 306 304 300 302 301 300 304 305 307 307 310 303 298 300 295 293 293 290 290 293 290 292 298 299 301 301 300 300 299 299 298 298 296 296 296 298 298 298 299 298 297 298 299 299
308 307 310 309 308 308 309 305 306 307 303 303 298 300 302 304 305 305 307 309 308 304 305 302 300 293 292 292 293 295 295 300 302 302 304 303 302 300 300 297 298 298 297 297 298 298 297 297 296 295 296 296 295 295
307 307 309 309 307 302 303 308 308 302 303 303 304 304 304 306 313 313 312 311 312 313 305 302 301 295 295 298 299 301 301 302 303 302 302 302 302 300 299 299 298 296 298 296 297 296 297 296 296 297 296 294 293 294
308 309 309 309 307 302 303 304 311 306 303 303 303 302 303 306 310 310 310 310 308 307 307 301 299 300 302 303 305 305 303 305 306 302 301 301 301 299 298 298 297 299 298 297 297 297 296 295 296 296 296 295 294 294
310 309 309 307 304 303 301 302 305 306 305 302 304 304 303 308 307 305 309 311 307 304 304 306 306 306 310 308 308 307 307 308 307 305 304 300 301 299 299 298 298 299 296 295 296 295 296 296 297 297 296 296 296 297
307 311 308 308 307 309 303 306 303 305 302 302 302 303 302 300 301 303 312 307 305 307 308 308 310 310 310 309 309 311 309 302 302 303 304 302 299 297 297 297 296 296 297 296 295 295 295 296 297 299 300 298 298 299
308 308 306 308 307 301 299 309 304 305 300 300 302 301 301 300 303 309 305 306 308 310 312 314 315 315 312 312 312 309 305 302 299 297 301 302 303 302 299 298 297 298 296 296 297 297 296 296 296 298 297 297 298 297
309 306 303 302 301 295 306 303 305 303 303 301 301 299 301 303 307 305 304 306 308 311 310 311 313 311 311 310 308 306 305 301 300 296 296 297 299 297 298 296 298 301 300 298 298 297 297 296 297 296 297 297 297 296
299 296 296 288 302 304 303 302 301 301 299 300 303 304 305 306 304 302 302 307 308 309 312 313 311 311 307 307 307 307 305 302 300 298 297 300 298 298 296 297 300 301 301 298 296 297 298 298 298 297 295 294 294 295
292 301 294 299 299 300 300 298 303 302 303 301 302 304 303 303 303 302 304 308 311 312 312 311 313 313 312 310 309 309 309 304 302 298 299 301 301 299 296 295 297 296 300 301 299 298 298 298 296 296 294 294 293 296
293 298 302 305 305 303 301 303 305 302 301 300 302 304 303 299 301 306 311 312 311 314 316 316 315 313 313 314 314 311 310 307 304 302 302 302 301 301 300 298 297 298 299 300 299 300 298 297 297 297 295 294 295 296
300 302 298 302 304 306 301 303 301 297 302 308 307 303 302 303 303 308 310 314 317 317 317 316 313 309 310 311 311 306 304 305 305 304 303 301 299 300 299 299 299 297 300 300 300 299 299 299 298 298 298 296 296 297
299 303 303 301 302 305 304 302 301 301 304 307 303 301 303 309 312 311 313 314 314 315 314 311 307 305 303 301 303 304 304 304 300 298 298 296 293 297 297 298 298 297 297 298 296 297 298 297 297 297 299 297 297 297
300 304 301 303 302 302 303 304 302 304 304 304 311 309 308 308 310 312 311 309 308 309 308 311 308 300 300 300 300 300 302 302 302 300 295 295 296 297 297 298 298 297 295 295 295 294 295 295 295 296 296 297 297 296
304 303 301 302 302 305 307 306 306 306 307 310 311 307 306 307 309 312 309 307 303 301 301 300 302 302 301 300 300 299 298 300 300 300 300 300 300 301 299 299 298 297 297 296 295 294 293 294 295 296 296 297 298 297
304 304 303 301 303 307 307 304 304 307 308 307 307 309 309 309 307 309 308 306 304 302 301 302 302 302 301 301 302 303 299 303 300 301 301 300 299 299 300 300 299 298 298 298 297 296 295 295 295 296 296 297 298 299
305 305 304 302 302 303 309 309 307 306 305 304 305 308 311 307 302 306 308 308 307 305 303 302 302 303 302 301 302 303 301 302 300 299 298 297 295 297 298 298 298 299 300 299 298 297 297 297 297 297 298 299 299 298

GFSWCAN_sfc_thetae_093.txt.gz
Theta_e
313 314 314 314 313 313 315 315 316 315 313 314 314 315 316 316 316 310 309 311 305 301 302 304 305 300 299 296 292 295 296 295 293 290 290 288 287 289 288 295 290 289 286 288 286 287 287 304 304 296 298 302 311 310
313 313 313 313 313 313 314 315 315 314 313 314 314 315 315 315 315 313 306 312 313 305 305 307 304 306 305 303 299 295 295 294 294 291 291 290 287 288 287 286 296 289 292 291 291 292 300 302 299 304 306 304 305 307
312 313 313 313 313 313 314 314 315 314 312 313 313 314 315 315 315 312 304 307 309 304 301 300 300 304 306 306 305 299 298 299 296 297 293 292 289 289 283 286 290 294 296 294 294 298 299 301 304 304 307 305 308 309
312 312 313 313 313 313 313 314 315 313 311 313 313 313 314 314 313 312 303 306 308 305 296 300 308 305 305 308 308 304 303 301 297 294 292 291 290 294 289 291 291 295 295 290 292 297 301 302 302 304 303 305 307 308
312 312 312 312 313 313 313 314 315 311 311 312 313 313 313 313 312 307 304 307 308 306 300 300 304 305 304 308 307 306 304 301 297 296 295 293 293 294 293 293 292 296 294 291 291 297 295 298 302 305 303 303 304 304
311 312 312 312 312 312 313 313 314 310 311 312 313 313 313 312 311 310 306 310 308 307 304 296 303 303 306 307 307 305 304 300 298 297 295 295 296 294 286 284 296 297 299 298 297 300 300 300 303 304 302 302 303 303
311 312 312 312 312 312 312 314 312 309 311 311 312 312 311 311 304 307 306 310 308 309 305 298 298 306 307 303 303 302 302 300 299 295 294 293 293 293 287 284 297 298 299 300 301 299 299 301 300 302 303 305 305 303
311 312 312 312 312 312 313 313 309 309 311 311 311 311 311 310 309 309 311 310 308 308 307 298 299 301 304 300 302 301 299 298 298 294 294 291 290 292 284 291 295 298 300 299 300 300 299 301 304 304 303 302 300 300
311 311 311 311 311 312 313 310 308 309 310 310 310 311 309 309 307 310 317 313 309 310 302 298 296 295 304 301 303 300 298 294 297 292 292 292 288 280 289 292 295 298 297 297 299 300 301 298 299 301 303 301 299 299
311 311 311 311 312 312 309 307 308 309 309 309 307 310 306 311 317 317 310 304 306 306 304 299 300 297 301 298 297 297 295 292 289 292 294 288 286 291 293 294 298 301 301 299 294 294 295 296 299 298 299 302 302 302
311 311 311 310 308 308 308 308 309 309 310 307 306 306 309 316 310 306 302 301 301 299 301 302 299 298 302 298 297 297 293 292 286 291 290 287 287 294 298 297 297 299 301 301 300 299 299 299 299 299 299 300 302 303
309 308 308 308 307 307 310 309 309 303 304 304 304 305 307 306 301 298 298 300 298 297 300 299 299 299 299 299 297 296 294 293 288 295 289 282 291 296 299 300 301 301 302 303 302 302 302 303 302 300 300 300 301 302
307 307 307 307 307 308 310 310 309 309 306 306 306 304 302 301 292 295 294 296 295 300 301 301 301 298 298 299 295 293 292 290 296 290 285 290 293 298 299 301 300 301 302 303 304 304 304 303 304 302 301 301 302 301
308 309 309 308 308 309 308 309 309 307 304 303 302 290 298 295 298 298 299 300 303 303 302 301 298 296 296 295 294 292 293 295 289 284 288 292 295 299 299 299 299 299 302 302 301 303 303 303 302 302 302 302 302 301
308 308 309 309 310 310 308 308 309 304 305 304 303 292 298 302 303 305 305 303 304 303 302 299 296 296 293 294 294 293 291 289 290 288 290 295 297 298 298 299 298 298 298 297 297 298 299 299 298 299 299 299 300 300
309 308 307 309 309 309 308 306 306 306 306 303 302 299 299 299 302 305 303 303 303 299 299 298 295 293 294 294 293 291 289 287 290 292 295 296 297 298 298 298 298 298 296 297 297 297 296 296 295 295 297 298 298 298
309 306 309 308 308 308 308 303 307 307 306 302 299 301 299 298 299 305 306 305 303 301 299 297 293 292 292 289 288 292 290 291 293 295 297 298 299 298 297 297 296 296 294 294 295 296 296 296 296 296 294 295 295 295
306 306 309 308 307 307 306 303 304 305 301 302 298 298 299 300 300 302 305 306 306 300 301 299 298 294 290 289 290 293 294 296 298 298 299 299 298 298 298 295 296 295 294 295 296 296 296 295 294 294 294 293 293 294
308 308 309 309 306 300 300 304 305 299 301 301 300 301 302 302 303 306 307 310 309 307 306 300 296 294 294 294 296 298 298 300 300 300 301 299 299 298 297 296 296 294 295 295 296 295 295 295 295 294 293 292 292 293
309 309 309 309 307 300 300 301 308 302 300 302 301 300 300 301 304 306 307 306 306 305 301 298 298 299 299 301 301 302 302 303 302 300 299 299 299 298 296 296 295 294 295 295 295 296 295 294 294 295 294 294 292 293
308 309 309 305 302 301 299 298 301 304 303 301 301 302 301 303 303 302 303 307 307 303 302 303 303 305 305 306 305 304 302 305 304 304 304 300 302 298 296 295 296 296 295 296 294 295 295 295 295 295 295 295 295 294
307 310 307 305 304 305 300 302 299 302 300 299 299 300 299 298 298 299 304 305 303 305 306 306 307 309 307 308 309 308 308 305 304 303 301 302 300 298 295 297 298 298 296 298 297 295 296 296 295 296 296 296 296 296
307 306 304 306 305 298 298 307 303 303 299 298 299 298 298 298 299 305 301 303 304 306 307 309 310 312 311 312 311 310 308 304 302 302 304 305 306 302 298 299 300 299 297 296 296 296 295 295 295 295 297 297 296 295
308 306 301 299 298 294 304 301 303 300 300 299 298 297 298 302 303 301 299 301 304 307 306 307 309 310 310 309 307 305 301 298 297 301 305 302 300 298 300 299 299 301 302 300 297 296 295 295 294 295 296 295 296 294
298 295 296 288 301 302 300 301 299 300 298 299 298 298 303 303 299 299 298 301 305 306 310 311 310 310 308 307 307 306 303 299 297 296 296 301 302 298 297 296 297 299 300 299 296 296 295 295 295 294 295 295 295 295
291 300 292 297 297 299 301 299 302 301 300 299 299 302 303 299 298 298 302 304 306 307 308 308 308 308 310 311 308 308 307 303 298 296 296 299 302 300 296 294 294 295 300 301 299 298 297 296 296 297 295 293 293 295
292 295 299 301 301 301 298 300 303 302 298 300 301 300 298 295 298 304 308 308 307 309 311 313 311 311 311 311 313 315 311 308 304 302 302 301 300 301 301 295 296 300 301 301 299 298 298 297 297 296 294 292 293 295
298 298 296 301 300 305 301 300 302 298 297 306 303 301 301 301 300 305 306 309 312 312 312 315 312 308 306 307 310 307 305 306 305 306 305 302 299 297 297 298 298 295 298 301 301 299 299 297 296 296 294 293 294 294
296 299 300 299 299 301 302 302 300 300 301 303 300 300 301 305 307 307 308 308 308 308 305 306 303 300 298 303 302 305 305 305 304 300 298 294 294 294 295 296 296 296 296 296 294 297 298 298 297 297 297 296 296 296
296 300 297 299 299 299 302 303 301 302 302 304 306 306 305 305 308 309 306 304 303 300 300 302 302 296 297 300 299 301 305 305 303 300 298 297 294 295 295 295 294 295 294 295 294 293 294 294 293 294 296 295 294 294
299 299 298 299 298 301 304 305 307 306 309 308 309 305 303 304 307 309 306 304 301 299 298 299 299 297 298 300 300 299 298 300 301 299 297 297 297 297 298 297 296 294 294 294 294 293 293 293 293 295 295 296 296 295
299 299 299 298 300 306 305 303 303 305 305 304 304 306 306 306 304 305 305 304 302 298 298 297 296 296 298 301 301 301 296 301 302 298 298 298 298 298 297 297 297 296 295 294 294 293 293 294 294 295 295 296 296 296
302 303 303 300 300 300 304 305 303 302 302 301 302 305 307 306 300 304 306 305 304 302 298 298 299 299 299 300 300 301 299 302 300 296 296 296 295 294 295 295 296 297 297 296 295 294 294 294 294 294 294 295 296 296

GFSWCAN_sfc_thetae_096.txt.gz
Theta_e
313 313 314 314 314 314 314 314 315 316 315 313 314 315 315 315 316 308 308 309 305 298 299 302 303 298 297 294 291 294 294 294 292 290 289 286 285 287 289 294 292 289 285 286 286 284 287 303 303 299 300 303 310 310
312 313 313 313 314 314 314 314 315 315 314 313 313 314 315 315 315 312 306 310 310 303 302 306 303 304 304 303 298 294 294 293 294 291 289 288 285 287 286 285 296 290 291 290 290 290 299 303 301 304 306 306 307 308
311 312 313 313 313 313 314 314 314 316 314 313 313 314 314 314 314 310 303 305 307 301 300 300 301 304 304 303 303 298 296 297 294 294 292 290 288 287 282 285 289 295 295 293 293 296 300 302 304 305 308 309 310 311
312 312 313 313 313 313 314 313 314 315 312 312 313 313 314 314 313 312 304 304 306 302 295 298 307 302 306 306 307 303 300 299 296 294 292 289 289 292 288 289 291 295 295 292 293 298 300 302 302 303 306 309 310 312
312 312 312 312 313 313 313 313 314 315 311 312 313 313 313 313 312 306 303 305 306 305 298 298 302 303 304 305 306 305 301 299 297 297 294 291 292 292 291 292 291 295 294 292 292 296 297 298 302 305 305 305 307 307
311 312 312 312 312 313 313 313 314 314 310 311 312 312 312 312 311 309 304 308 307 306 302 295 301 303 304 305 305 304 302 298 297 296 292 293 294 292 285 282 295 297 298 297 296 300 299 302 304 305 304 305 306 305
312 312 312 312 312 312 312 312 314 311 310 311 311 311 311 310 304 306 305 308 307 307 304 296 296 304 305 302 301 301 300 298 298 293 292 292 291 291 286 285 296 298 299 299 300 300 299 302 300 303 304 305 305 306
311 311 312 312 312 312 312 313 312 309 310 310 311 311 311 311 309 308 310 309 308 307 304 296 297 299 302 299 298 299 298 297 296 293 292 290 289 291 284 291 295 298 299 299 300 300 299 301 303 304 303 303 303 302
311 311 311 311 311 312 312 312 309 308 309 310 310 311 308 308 307 309 316 312 309 308 300 298 295 294 302 299 298 298 296 293 295 291 291 291 289 281 289 292 295 298 297 298 299 300 300 300 300 301 303 303 302 301
311 311 311 311 311 312 310 308 308 309 309 309 307 309 305 309 317 315 309 302 305 304 302 297 298 296 300 296 296 295 294 291 289 291 292 288 286 290 292 293 298 300 299 299 296 295 296 297 298 299 300 302 302 303
311 311 311 309 308 308 307 308 309 309 310 306 305 305 308 313 309 304 301 299 300 298 300 300 298 298 301 298 299 295 291 291 285 289 290 286 286 292 297 295 295 299 301 301 300 300 299 298 299 300 300 301 302 303
309 308 307 307 307 307 310 309 309 304 303 304 305 304 306 304 300 297 297 298 297 296 298 298 298 298 298 298 297 294 292 292 287 294 289 282 291 295 298 298 299 298 300 302 303 302 301 302 302 301 300 301 301 302
308 308 307 307 307 307 309 309 309 308 306 305 306 302 301 300 291 294 293 295 294 298 299 298 297 297 297 297 294 293 291 289 294 289 285 289 293 296 298 300 300 301 302 304 303 304 303 303 304 302 302 302 303 302
308 308 309 309 309 309 308 308 309 307 303 302 300 289 297 293 296 296 297 298 301 301 300 299 296 296 295 294 292 290 291 294 289 284 287 292 295 297 299 300 300 301 302 302 302 303 303 303 303 303 303 303 303 302
308 308 308 309 309 310 310 308 308 303 304 301 301 291 297 301 301 303 303 302 303 302 300 297 295 295 292 293 292 292 291 289 290 288 291 294 295 297 298 298 298 299 299 299 298 299 300 300 299 299 299 300 300 300
309 308 308 309 309 309 308 306 305 305 305 301 299 298 299 298 298 301 301 302 300 299 298 297 293 292 293 293 292 291 290 287 290 292 295 294 296 297 297 299 298 298 297 297 297 297 297 297 297 296 298 298 298 299
309 305 308 308 308 308 307 303 306 305 303 301 298 300 298 298 298 299 304 303 300 300 296 295 293 293 292 291 290 292 290 292 294 294 294 296 298 298 298 298 298 297 297 297 296 297 297 297 298 297 296 296 297 297
306 306 309 309 306 307 305 302 302 303 301 301 297 296 298 300 298 300 308 305 300 298 301 299 299 291 290 288 288 291 292 293 295 296 297 298 298 299 299 297 297 296 296 296 297 297 297 297 296 296 295 295 296 296
308 308 309 309 306 299 298 302 302 296 299 300 300 300 300 301 300 301 302 304 305 303 301 301 299 293 293 294 295 297 298 296 298 299 299 299 299 298 297 297 296 295 295 296 296 296 297 297 297 296 295 295 296 296
309 309 309 309 307 299 299 299 305 300 298 301 299 298 298 299 300 302 304 304 305 303 300 297 297 298 297 299 300 301 303 301 301 300 300 300 298 298 297 297 296 295 295 296 297 296 296 296 297 296 296 295 295 296
308 308 309 305 301 299 297 296 298 301 302 299 300 300 300 301 301 301 302 303 303 302 300 302 302 305 304 304 304 303 303 304 303 305 304 300 299 299 297 298 297 296 295 296 297 297 296 297 297 296 296 297 297 297
307 310 307 306 303 304 298 299 296 299 298 299 298 298 298 297 297 298 302 302 302 304 304 304 304 305 306 306 307 307 309 307 308 305 302 302 297 298 298 298 298 296 296 297 298 297 297 298 297 297 297 298 298 299
307 307 304 305 304 299 296 303 301 301 298 298 299 298 297 296 297 303 299 300 302 304 306 307 308 309 309 309 309 310 311 309 306 306 305 304 304 303 301 300 301 299 297 297 299 298 298 296 296 297 298 298 298 299
307 305 301 297 296 292 300 299 302 300 299 298 297 297 297 298 302 299 298 299 303 305 305 305 307 306 307 307 307 307 308 307 304 304 303 304 302 300 302 301 301 302 302 300 298 298 298 297 295 296 297 298 298 297
298 297 296 289 300 300 298 299 299 300 297 298 297 297 299 302 298 298 297 300 302 305 306 307 307 307 306 306 309 309 305 301 300 300 301 304 301 299 298 298 300 301 300 298 297 298 298 297 297 296 297 297 297 297
290 295 292 295 295 296 298 297 300 300 300 298 297 300 301 298 298 296 299 304 306 307 308 307 307 308 307 309 308 308 307 301 299 299 298 301 302 301 299 296 296 297 299 302 300 299 298 298 297 297 297 297 294 297
292 294 299 299 298 298 297 298 300 301 298 298 301 301 299 295 298 301 305 307 307 308 310 310 310 311 310 309 310 313 307 305 304 301 302 306 307 306 302 298 297 299 300 301 301 301 300 299 299 299 298 298 297 296
297 296 294 298 298 303 300 299 299 299 299 302 302 300 300 299 299 303 306 309 310 309 309 309 309 311 309 308 309 308 305 305 305 306 307 306 306 300 300 299 298 296 301 302 302 301 301 300 300 299 298 297 296 297
295 297 298 296 297 298 300 300 300 300 299 301 299 299 301 304 306 307 308 308 306 305 301 302 303 300 302 302 305 305 304 304 302 300 299 299 298 298 296 297 298 297 298 300 295 298 301 300 300 299 299 298 297 298
295 298 295 296 296 297 301 303 303 304 304 306 306 306 305 305 307 309 306 304 302 300 300 299 301 298 298 301 300 300 303 305 305 303 300 298 298 298 297 297 297 297 297 297 297 296 294 297 295 298 297 297 297 297
299 296 295 296 297 300 303 306 306 307 307 306 306 304 303 304 307 308 306 304 302 300 298 298 297 297 298 298 299 300 300 300 301 303 300 300 298 299 298 298 297 296 297 297 296 296 296 296 296 297 298 298 298 296
297 297 297 296 298 303 305 304 303 304 304 303 302 305 305 304 302 305 306 304 303 299 297 297 296 297 298 299 300 300 296 300 300 300 300 299 300 301 301 300 297 297 297 297 297 297 297 297 296 297 297 298 299 299
299 299 299 299 300 300 301 304 302 301 301 300 302 304 305 305 300 302 306 305 305 303 298 298 299 299 299 300 300 300 298 301 300 295 295 295 295 297 298 297 298 299 298 297 297 296 296 296 297 297 298 298 298 299

GFSWCAN_sfc_thetae_099.txt.gz
Theta_e
312 311 312 313 314 314 314 315 315 315 315 315 313 314 315 315 315 314 317 317 314 308 308 309 308 306 305 305 302 303 303 302 303 300 300 299 299 299 298 299 298 296 295 297 295 294 291 308 308 302 306 312 316 316
311 311 312 313 313 314 314 314 314 315 316 314 312 314 315 315 315 314 316 316 316 313 310 313 311 310 310 310 308 304 303 302 305 302 301 300 299 297 296 296 301 297 299 300 299 299 306 309 307 310 311 312 315 316
311 312 312 313 313 313 314 314 314 315 316 314 312 313 314 315 314 313 313 313 315 312 310 310 309 312 313 311 311 307 306 304 304 305 304 302 298 300 297 298 297 300 301 301 301 303 305 308 310 312 313 313 315 317
312 312 312 313 313 313 313 314 314 314 315 312 312 313 314 314 313 313 314 313 315 310 306 307 313 311 313 315 313 311 308 305 305 306 303 302 301 301 300 300 300 303 302 301 301 303 305 306 308 308 313 316 315 316
311 311 312 312 312 313 313 314 314 314 315 311 312 313 313 313 312 312 314 314 315 313 307 307 309 311 313 314 313 312 311 310 308 307 304 301 303 303 302 303 302 305 302 303 301 304 305 305 308 308 311 314 316 313
311 312 312 312 312 312 313 313 313 314 314 310 312 312 312 312 311 317 313 316 315 315 311 303 310 310 312 313 312 311 310 309 309 307 304 304 302 303 302 301 304 305 305 305 305 307 307 307 309 309 308 310 312 314
312 312 312 312 312 313 313 313 313 314 311 310 311 311 311 310 312 315 312 315 311 318 314 305 305 312 312 311 311 311 310 307 308 305 305 304 302 303 301 299 306 307 307 307 308 308 306 308 306 310 309 309 310 312
311 311 312 312 312 313 312 312 313 313 310 310 310 310 310 311 311 315 318 311 313 316 313 305 305 307 311 308 308 309 309 309 305 303 303 302 300 299 295 302 305 306 307 307 307 308 308 309 310 310 311 310 308 308
311 311 311 311 312 312 312 313 313 309 309 309 310 311 314 315 316 316 315 315 319 317 311 308 304 302 311 309 309 309 307 305 305 303 303 302 295 290 300 302 306 307 307 307 307 307 306 306 307 308 309 309 309 308
311 311 311 311 311 312 312 311 308 308 309 310 311 314 312 316 318 318 315 310 312 314 312 308 308 305 309 308 306 307 305 303 300 302 302 300 298 302 303 305 310 309 308 308 305 304 303 304 305 307 307 309 310 310
310 310 309 308 308 308 307 308 309 309 310 312 313 312 314 314 317 313 309 307 308 307 310 310 308 306 310 306 305 305 303 302 298 300 300 298 298 303 306 305 308 310 310 309 309 309 308 307 307 307 307 308 309 310
308 308 307 307 307 308 309 309 309 308 311 310 311 311 314 312 308 305 305 306 305 304 307 307 307 309 307 309 306 304 301 301 295 303 299 296 302 307 306 305 307 309 310 310 310 311 310 309 309 309 309 309 310 310
308 308 309 308 308 308 308 309 309 309 308 313 313 310 308 306 296 298 297 303 303 306 306 305 304 307 306 308 304 303 298 297 303 299 297 300 306 307 308 308 307 308 309 309 310 311 310 310 310 310 310 310 310 311
308 308 309 309 309 309 309 308 309 309 309 308 305 289 301 299 301 303 304 307 310 309 308 308 304 306 306 304 303 298 300 302 296 293 295 304 309 309 308 310 308 307 308 310 310 311 311 311 310 310 310 311 311 310
308 309 309 309 309 309 310 308 308 310 310 306 307 295 301 307 307 309 309 309 311 310 308 305 304 306 303 301 302 299 296 294 297 296 301 307 311 310 308 309 309 309 309 309 310 310 310 310 309 308 308 308 307 308
309 309 308 309 309 309 308 307 308 311 310 306 305 304 306 304 305 307 309 310 310 309 308 309 303 301 300 301 298 297 296 295 299 303 307 308 309 309 310 310 309 310 310 308 308 308 307 306 305 305 306 306 306 307
308 309 308 308 308 308 307 308 311 309 306 304 302 307 306 305 304 307 310 312 311 308 306 305 301 299 301 299 298 301 299 303 306 306 307 309 311 311 310 310 309 309 308 307 306 306 306 306 306 306 304 305 305 305
307 308 309 309 308 309 311 308 307 307 304 306 303 304 306 308 305 307 313 310 309 307 305 304 303 299 298 296 298 302 304 308 308 308 308 308 309 310 309 309 308 308 308 307 307 305 305 305 305 304 304 304 304 305
309 309 310 310 308 304 303 307 308 299 302 306 307 308 307 308 309 309 310 312 311 313 309 306 303 300 302 304 305 307 307 306 306 309 308 311 310 309 309 309 308 307 307 306 305 304 305 306 304 304 305 304 303 304
309 309 310 310 308 303 301 304 310 306 304 307 307 305 306 306 308 309 310 310 311 310 309 305 306 308 309 313 312 312 313 312 306 306 309 309 307 306 307 308 307 307 306 306 305 302 304 303 303 303 304 304 303 303
308 309 308 307 306 304 302 302 304 307 309 307 309 307 308 308 307 309 310 312 312 312 310 312 313 315 321 316 314 312 313 313 313 315 316 307 304 304 304 305 305 305 303 303 303 303 301 302 303 304 304 304 304 305
308 309 307 307 306 306 304 306 302 305 303 305 304 305 304 304 306 307 310 311 310 313 314 315 316 316 318 319 319 317 317 316 316 314 306 305 302 304 302 303 301 301 303 304 304 304 304 304 304 304 304 305 303 307
307 307 306 307 305 300 299 309 305 307 302 304 304 302 303 303 306 309 306 309 311 315 315 317 318 318 318 319 319 319 318 316 314 313 312 310 309 306 303 303 303 302 301 303 305 305 305 301 301 304 305 305 306 307
307 305 302 300 300 294 304 304 307 306 304 303 302 301 303 306 310 307 306 309 314 316 316 316 317 317 318 317 316 316 317 316 315 314 311 308 306 307 306 302 303 305 304 304 304 304 304 304 302 304 305 305 305 305
298 297 298 289 302 300 300 302 302 302 300 303 301 303 306 309 305 305 305 310 312 315 316 317 317 317 314 315 317 318 315 310 309 310 309 311 309 304 303 304 304 305 306 303 303 303 304 305 305 305 305 304 304 304
291 299 294 299 300 300 301 300 302 301 302 301 302 306 308 306 302 302 307 312 314 315 316 315 316 313 314 317 315 317 317 309 306 307 306 308 306 303 302 301 302 303 305 306 305 305 306 306 305 304 304 303 296 302
291 296 302 306 303 303 302 304 303 302 300 301 306 305 304 299 300 308 313 315 315 317 318 318 317 315 313 314 318 319 314 311 308 308 305 307 307 307 306 305 305 306 307 308 308 308 307 306 305 305 304 305 305 304
300 301 297 303 302 304 301 302 302 302 303 307 308 302 300 301 305 313 315 317 317 314 313 314 313 313 312 313 317 311 306 307 307 308 308 309 309 309 310 310 308 297 308 309 309 309 308 308 307 306 305 305 306 306
297 303 303 299 302 303 303 302 303 307 307 309 305 304 306 311 314 315 316 316 313 310 307 307 310 309 310 312 313 313 307 306 305 303 303 304 306 308 307 306 306 305 307 307 297 303 308 308 308 307 307 306 307 306
298 303 300 299 297 297 303 308 309 310 310 309 311 311 312 313 315 317 314 311 310 308 306 305 307 308 309 310 308 308 310 310 309 307 305 306 307 310 309 307 306 306 306 307 307 305 294 302 299 305 305 305 304 304
302 301 299 298 298 302 304 307 309 309 312 313 314 311 310 311 314 316 314 311 309 308 305 306 306 306 307 309 308 307 306 309 309 310 310 309 309 308 307 307 307 306 306 306 306 306 305 304 305 305 305 305 304 302
301 300 300 298 300 305 306 304 305 308 311 310 310 312 312 312 308 313 313 312 311 307 301 304 305 305 306 308 309 310 298 311 310 309 309 309 307 308 308 307 306 306 305 305 305 305 305 304 304 304 304 305 304 304
301 302 302 301 302 303 305 308 308 306 308 308 309 311 311 309 303 310 315 314 313 311 307 307 307 307 307 307 308 308 301 309 305 297 297 297 298 302 308 308 307 305 305 304 304 304 304 303 303 303 304 304 305 304

GFSWCAN_sfc_thetae_102.txt.gz
Theta_e
312 313 312 312 312 314 315 315 315 315 315 316 316 314 315 315 316 317 324 326 322 315 313 314 313 311 312 311 305 310 307 308 307 302 303 306 303 307 302 304 302 301 299 299 301 297 294 313 312 306 313 316 319 320
312 312 311 313 313 314 314 315 315 315 315 316 315 314 315 315 315 315 322 326 327 319 315 318 316 316 315 314 311 312 309 306 310 307 307 308 305 304 302 298 307 301 305 304 304 304 312 315 314 318 319 315 319 320
312 312 312 312 313 313 314 314 315 315 315 316 314 313 314 315 315 314 322 323 324 316 313 314 313 317 320 317 319 310 313 312 313 314 311 308 300 306 300 303 303 307 306 307 306 308 310 312 316 320 321 319 322 322
311 312 312 312 312 313 313 313 314 315 315 316 313 312 314 314 314 312 322 323 323 318 310 310 318 316 320 320 318 317 315 315 315 314 310 307 304 309 305 305 304 309 309 307 306 309 310 312 314 317 320 322 320 321
311 311 311 312 313 313 313 314 314 314 314 316 312 312 313 313 312 317 324 325 325 318 311 311 316 317 319 319 317 317 318 316 313 309 307 306 311 308 311 309 305 310 307 306 305 311 312 311 313 316 317 319 320 319
311 311 312 312 313 313 313 313 314 314 314 315 311 312 312 312 312 322 313 324 327 326 315 306 316 315 317 318 317 316 317 317 317 312 311 312 310 309 307 306 309 310 311 312 311 314 314 313 314 314 315 317 319 320
312 312 312 312 313 313 313 313 313 313 314 313 311 311 311 311 316 317 314 319 315 325 316 308 309 315 317 317 319 319 318 316 313 314 314 313 310 308 309 305 311 312 313 313 314 314 311 312 312 314 314 314 314 318
312 312 312 312 312 313 313 313 313 313 314 310 310 310 310 311 312 317 322 315 317 321 320 309 309 311 316 312 312 319 316 315 313 312 311 310 308 309 302 308 312 313 313 312 312 313 313 314 314 314 315 314 313 314
312 312 312 312 312 312 312 312 313 314 310 309 310 311 317 318 317 321 315 314 327 320 312 312 307 305 316 315 317 314 315 308 313 309 310 309 305 293 304 308 311 313 312 312 312 311 310 309 310 310 311 311 312 313
311 311 312 312 311 311 312 313 312 309 309 310 312 316 314 321 316 318 318 314 315 316 317 311 317 308 313 313 311 312 312 308 305 308 311 305 303 309 310 311 314 315 314 313 309 308 307 307 307 308 309 312 313 314
309 309 308 308 307 307 308 309 309 310 308 314 314 317 320 314 320 317 311 308 310 308 312 313 313 310 317 308 309 312 308 308 302 304 304 304 301 307 311 311 316 315 314 312 311 310 309 309 309 309 310 311 311 311
309 308 308 308 308 308 308 310 309 310 318 313 317 317 322 317 314 309 307 310 308 304 313 311 312 315 314 319 310 310 305 306 298 310 304 300 305 312 311 310 314 315 313 312 312 310 310 310 310 310 311 311 313 313
308 308 309 309 309 308 308 309 309 309 310 318 315 313 313 311 298 300 299 304 306 311 313 312 309 313 312 313 311 306 300 301 310 303 301 303 311 313 313 312 312 314 314 313 312 313 313 313 314 314 313 314 314 315
308 308 309 309 309 309 309 309 309 310 309 310 308 292 303 302 303 304 305 308 314 315 313 312 310 310 312 307 309 300 306 306 299 296 297 304 312 314 315 314 311 311 312 312 313 314 314 315 315 315 315 315 315 314
308 309 309 309 309 309 310 309 308 311 311 307 308 297 302 307 313 314 315 315 316 317 314 311 311 311 307 304 306 305 300 297 299 299 305 309 315 316 316 315 314 312 312 312 314 314 314 314 313 313 315 314 312 311
309 309 308 309 309 309 308 308 312 314 311 307 308 306 311 308 308 312 313 314 317 316 315 313 308 305 303 305 301 300 298 297 303 308 311 314 318 318 318 316 316 315 314 314 315 315 314 313 312 312 312 310 310 310
308 312 308 308 308 309 308 312 313 309 305 304 303 307 309 310 311 314 316 316 319 314 309 310 304 302 309 302 301 306 303 307 312 314 316 319 321 321 319 318 317 317 316 316 316 314 313 312 311 310 308 309 310 311
307 310 310 309 310 310 315 313 309 307 303 305 303 305 309 309 311 313 314 318 316 314 313 308 312 304 302 300 303 308 310 312 314 314 315 318 321 320 319 318 317 316 316 315 314 313 312 310 309 307 309 309 308 309
310 309 310 310 311 309 308 310 311 302 303 306 309 310 310 310 312 313 316 317 318 320 316 312 306 304 305 309 310 312 313 315 314 316 317 320 319 318 318 318 318 316 315 313 312 310 309 310 308 307 307 307 305 306
309 309 310 310 310 307 303 306 315 308 304 309 310 307 308 307 311 312 310 313 314 313 309 308 309 311 312 314 316 316 317 318 316 314 315 317 316 314 315 314 313 313 312 312 312 304 308 308 307 307 306 306 306 305
308 311 309 309 307 308 305 305 307 310 311 309 315 313 310 312 310 308 310 315 312 310 310 314 314 316 320 322 323 322 321 321 318 317 316 315 316 313 311 313 312 311 311 309 306 304 303 305 304 306 306 306 307 307
309 310 307 307 306 308 308 312 306 311 308 310 311 311 309 308 308 309 314 311 310 312 315 315 316 318 319 323 324 326 326 325 325 321 308 310 315 313 312 310 307 307 310 307 306 304 305 305 305 306 306 306 304 307
307 308 308 308 304 302 302 314 307 309 304 306 309 304 305 307 310 314 307 310 311 316 319 320 323 326 324 325 325 325 325 324 321 321 321 319 318 315 312 312 306 304 304 305 308 307 306 303 304 305 306 306 307 307
307 306 302 301 303 299 309 307 311 310 309 307 305 303 305 307 313 308 304 307 311 319 320 324 323 320 321 323 321 322 322 322 320 320 321 319 314 309 306 304 306 308 306 305 309 307 307 307 303 305 306 307 306 306
297 298 301 294 306 302 302 303 304 305 302 305 303 303 308 315 307 306 306 312 316 317 320 322 322 320 317 318 320 321 324 321 317 317 321 318 316 313 306 306 305 306 308 305 305 305 307 309 308 306 306 306 306 306
292 303 297 302 303 301 301 300 302 303 304 303 305 310 313 307 302 301 308 315 319 320 320 320 318 317 318 320 319 319 322 323 316 313 316 317 314 307 302 301 302 307 308 307 307 307 308 309 308 307 305 305 297 305
292 299 305 311 308 306 304 306 306 303 302 301 306 306 306 300 301 306 319 320 320 322 321 319 317 316 315 315 317 319 320 320 315 313 314 314 309 309 307 305 306 306 309 311 310 310 309 309 309 307 306 306 307 306
302 302 299 304 305 306 302 304 303 302 304 310 308 301 301 302 305 317 322 323 320 318 316 315 315 315 314 316 316 312 312 314 313 312 311 310 310 311 313 312 311 299 312 313 312 312 311 310 310 308 307 306 307 308
301 305 304 301 303 304 304 303 305 310 312 312 308 306 308 314 319 320 320 319 318 315 313 312 315 317 318 318 316 313 310 310 309 306 305 306 307 310 315 314 313 312 311 311 298 304 311 310 310 309 308 308 308 309
300 304 301 301 301 301 306 309 310 313 314 313 313 313 315 318 320 319 318 316 314 312 311 311 314 315 313 312 313 314 315 316 316 313 310 307 308 311 312 311 310 311 311 311 310 310 296 307 304 310 308 308 308 308
307 304 301 301 300 303 306 309 311 313 312 312 316 313 313 317 318 321 320 318 315 314 311 312 313 313 314 312 312 311 310 314 315 315 314 313 315 314 313 312 312 311 311 311 310 310 309 308 309 308 308 308 308 306
302 301 301 300 302 307 307 305 306 307 310 313 312 316 316 316 310 314 318 315 313 312 302 310 314 312 314 318 318 317 298 314 315 315 314 314 315 313 312 310 310 310 310 309 310 309 309 308 308 308 308 308 308 308
303 304 304 303 305 306 308 307 308 308 310 311 313 313 313 310 307 314 320 320 316 313 311 312 314 315 313 312 314 315 304 314 308 296 297 297 299 304 309 310 309 309 308 308 307 307 307 306 306 307 307 307 307 307

GFSWCAN_sfc_thetae_105.txt.gz
Theta_e
314 314 313 313 313 313 314 315 315 315 316 316 317 317 315 316 316 316 328 331 325 316 316 315 314 312 314 312 307 312 308 310 307 303 303 303 303 306 303 305 303 294 297 301 302 297 294 315 313 308 315 319 320 322
314 313 313 313 313 313 314 314 315 315 316 316 317 317 315 316 316 315 324 328 330 322 317 319 318 318 317 314 312 314 310 311 309 307 308 306 306 305 304 298 309 300 307 303 302 305 314 318 317 320 320 317 321 323
313 313 312 313 313 313 313 314 314 315 315 316 316 316 314 315 316 314 323 325 325 318 315 315 315 319 322 320 320 311 316 314 312 315 310 310 302 307 300 302 305 309 311 305 307 310 312 315 319 322 323 321 323 325
313 312 312 312 312 313 313 314 314 314 315 315 316 315 314 315 315 313 323 327 325 321 310 313 321 318 322 322 319 318 316 318 315 314 309 307 304 310 304 306 305 309 311 306 307 309 312 314 316 320 323 323 323 324
311 311 312 312 313 313 313 314 314 314 315 315 316 314 314 314 313 316 325 326 327 321 312 313 318 320 321 322 319 319 319 316 313 310 308 305 312 309 307 308 304 311 308 307 306 314 314 313 316 318 319 321 320 320
311 312 312 312 313 313 313 314 314 314 314 314 315 312 313 313 312 321 314 322 328 327 318 307 319 317 319 321 319 319 318 316 314 312 312 314 314 309 306 304 310 312 313 316 314 316 316 317 316 317 317 319 322 322
311 312 312 313 313 313 313 313 313 314 314 315 313 311 312 311 314 317 316 321 315 327 316 309 311 318 320 320 319 319 319 317 313 315 312 313 312 309 307 306 310 313 315 316 317 317 314 315 314 316 316 317 318 323
312 313 313 313 313 313 313 313 313 313 314 314 311 311 311 311 312 315 323 314 317 321 318 309 311 314 320 314 311 320 314 315 314 313 313 309 313 310 307 311 313 315 316 316 316 317 316 317 317 317 317 317 316 317
312 313 313 313 312 312 313 313 313 313 314 310 310 311 316 316 315 320 319 317 326 322 311 309 307 305 319 314 317 316 317 307 315 309 311 311 308 297 306 310 312 315 314 315 315 315 314 313 314 314 315 315 314 315
310 311 310 311 312 312 312 312 313 312 309 309 311 315 312 319 317 319 318 315 314 314 318 313 315 309 314 314 310 313 313 308 304 310 313 305 307 311 313 313 315 316 317 317 313 310 311 310 310 311 311 314 315 316
309 309 309 308 308 308 308 308 309 309 308 312 313 316 324 315 320 316 310 308 309 307 312 311 314 311 318 310 308 315 310 310 302 307 305 306 303 310 314 313 316 318 318 316 315 314 313 311 311 310 311 312 313 313
309 309 309 309 308 308 308 310 310 310 316 312 318 321 323 316 313 308 307 309 308 306 313 311 313 316 316 320 311 311 307 308 300 312 305 302 308 315 313 312 315 317 315 313 313 312 311 311 312 312 313 312 313 314
308 309 309 309 309 309 308 309 310 310 310 320 316 315 312 310 300 301 300 304 305 311 314 314 312 315 316 314 312 311 302 303 312 303 304 305 313 314 314 313 314 315 315 314 313 313 313 312 313 313 313 314 315 315
308 308 309 309 309 309 309 310 309 311 312 313 309 297 304 302 303 304 305 307 312 314 315 314 313 311 313 309 310 303 308 310 300 299 300 306 315 315 315 314 313 313 314 313 313 313 313 314 314 316 315 315 315 315
308 308 309 309 310 310 309 310 308 313 312 308 307 299 303 308 310 311 312 317 318 318 315 312 312 312 309 306 308 306 302 299 301 301 308 312 317 317 317 316 314 314 314 314 314 314 314 315 315 315 316 316 315 316
309 308 309 309 309 309 309 308 310 312 310 305 308 305 308 307 307 310 312 312 317 317 316 314 309 307 305 306 303 302 300 299 305 309 315 317 319 319 320 319 317 316 316 315 315 315 316 316 315 315 315 315 313 313
308 310 309 308 308 309 308 309 312 309 305 304 304 308 307 308 309 311 314 314 320 315 309 309 305 304 310 305 303 308 304 309 315 315 316 323 322 324 322 321 319 319 318 317 317 317 317 317 317 314 312 312 312 312
309 310 310 310 309 311 314 311 308 305 302 306 303 306 308 309 310 313 319 318 317 314 312 308 312 306 304 303 305 310 312 316 317 317 317 321 324 327 324 323 322 321 320 320 319 319 318 316 313 310 311 313 311 311
311 310 310 310 311 311 310 309 311 303 304 306 307 309 309 309 312 315 318 320 321 323 317 312 308 306 307 310 311 313 314 316 315 319 314 325 327 326 325 323 323 322 320 320 318 314 313 315 311 308 310 310 308 309
309 309 310 310 311 309 305 307 314 306 303 306 308 307 308 309 310 312 315 318 318 317 313 308 308 310 311 316 318 317 320 322 317 317 317 318 320 326 324 322 319 320 317 318 316 309 312 308 308 308 309 308 308 307
308 311 310 311 312 310 307 307 307 308 309 308 312 311 310 311 308 308 311 314 313 312 310 313 314 317 322 323 323 324 323 322 319 318 316 314 317 319 321 320 321 318 316 314 313 308 306 307 307 307 308 307 308 308
309 311 308 308 306 309 308 311 308 311 311 310 311 312 309 309 309 309 311 309 311 313 315 315 316 317 320 324 323 325 327 328 328 324 313 315 320 320 320 320 319 316 316 315 311 306 308 308 307 307 308 307 305 308
308 310 308 307 302 301 301 314 309 309 305 307 310 307 308 308 311 316 307 309 310 316 318 318 323 326 325 325 326 327 328 327 324 323 322 322 322 323 321 321 319 314 313 311 308 306 308 304 304 307 307 307 307 308
307 306 303 302 303 300 310 307 312 310 308 307 306 305 306 308 314 309 305 309 312 313 314 323 321 318 319 326 322 322 323 325 323 323 323 323 323 322 320 316 311 309 307 306 308 308 306 306 304 306 307 306 308 307
298 299 301 295 307 304 303 304 305 307 304 306 305 304 308 314 308 305 305 308 312 316 318 320 320 318 316 318 320 322 328 324 322 320 321 326 323 318 314 312 313 308 308 306 305 305 305 308 308 306 307 308 307 307
294 305 297 304 303 302 304 299 302 304 305 304 305 309 313 307 303 301 309 313 316 318 320 320 318 318 319 321 319 321 324 325 323 319 319 321 321 316 313 306 305 304 309 309 306 304 306 307 308 308 306 306 299 306
294 301 307 311 306 305 303 306 308 308 304 303 308 306 306 300 301 306 316 319 319 323 324 322 319 316 314 315 317 320 321 321 320 318 318 319 318 318 315 311 308 306 310 308 307 307 307 308 308 308 307 308 308 307
303 304 301 305 305 308 302 302 303 303 307 309 308 302 302 303 305 313 317 320 324 323 318 318 320 319 318 319 320 321 318 319 318 318 316 315 315 313 314 314 311 301 310 310 311 311 311 311 310 310 308 307 307 308
303 306 306 303 303 304 304 304 304 307 312 310 307 305 308 314 319 320 321 322 320 317 315 315 317 320 319 320 320 319 317 314 313 311 310 309 311 311 316 316 310 309 311 311 302 302 311 310 311 311 310 309 309 310
302 307 303 303 302 301 306 308 308 311 313 313 314 314 313 320 321 322 320 319 316 313 314 315 318 316 315 314 314 314 317 318 316 312 308 308 310 313 315 311 312 314 315 314 312 312 299 307 305 311 309 308 308 307
305 304 302 303 303 306 308 310 312 314 312 313 314 315 312 315 320 322 321 320 317 317 313 313 315 316 316 314 314 313 312 316 316 316 315 316 314 313 312 313 313 313 313 312 312 311 310 309 309 309 308 308 308 306
305 303 301 300 304 308 309 308 308 309 310 311 311 314 316 316 313 316 318 317 315 312 305 309 315 315 317 317 319 317 296 316 316 317 316 316 316 315 314 313 314 313 312 311 311 311 310 309 308 308 308 308 308 309
303 303 302 302 304 306 307 307 307 308 309 311 310 313 312 310 308 313 318 320 316 313 312 313 314 316 316 316 316 317 308 317 309 299 300 299 297 303 312 314 312 311 311 310 310 310 310 310 308 309 308 309 308 309

GFSWCAN_sfc_thetae_108.txt.gz
Theta_e
316 316 316 315 314 314 313 313 315 315 316 316 317 317 318 316 316 315 320 331 324 319 318 315 314 311 313 311 307 312 309 311 307 303 302 303 303 305 302 301 296 299 298 298 302 296 296 312 314 306 314 318 318 321
316 316 315 315 314 314 314 314 314 315 315 315 316 317 318 315 316 315 317 329 328 321 318 320 318 317 315 314 311 312 310 311 311 306 307 306 303 305 303 298 309 301 304 300 302 303 312 317 316 319 318 318 320 322
315 315 315 314 313 313 314 314 314 315 315 315 316 317 318 315 316 314 315 324 323 317 315 315 313 318 320 319 320 310 315 316 313 314 309 308 303 307 300 301 304 307 312 305 307 308 308 315 318 321 322 322 323 323
315 314 313 313 313 313 313 313 314 315 315 315 316 316 317 314 315 313 315 324 323 321 313 312 322 318 321 323 319 318 316 317 315 314 308 306 304 311 304 306 305 309 312 306 307 311 313 314 317 320 322 323 322 322
313 313 312 312 313 313 314 314 314 315 315 315 315 316 316 314 313 314 317 322 326 320 313 313 319 320 320 322 319 320 319 316 313 310 308 306 311 310 309 306 304 310 311 307 306 312 316 314 316 319 321 321 322 320
311 311 312 312 313 313 314 314 314 314 314 315 315 316 314 313 312 315 312 321 325 325 317 311 319 317 319 321 320 319 319 315 313 311 310 313 317 311 304 304 310 315 316 318 313 317 316 317 316 318 317 322 322 320
311 311 312 313 313 314 314 314 314 314 314 314 315 315 312 311 311 313 313 320 313 327 317 309 310 318 320 319 318 318 320 316 312 311 311 310 312 310 304 307 312 315 315 315 318 317 314 314 313 316 317 318 322 321
312 312 313 313 314 313 313 314 314 314 314 315 315 311 311 311 310 312 319 315 315 319 315 307 309 314 320 313 312 320 314 315 314 311 313 309 313 312 308 310 314 315 315 314 315 316 315 316 318 317 317 317 316 318
310 313 313 313 313 313 313 313 313 313 314 315 311 311 312 314 313 314 321 319 324 320 311 310 306 306 319 314 317 316 316 307 315 310 308 311 309 299 307 309 312 315 313 313 315 315 315 314 314 315 315 315 314 317
310 310 311 310 311 312 312 313 313 314 314 310 309 311 310 315 317 320 317 313 312 312 318 313 313 310 316 313 311 311 314 308 305 310 314 308 307 315 315 314 316 316 316 315 312 311 311 310 311 312 313 314 315 315
310 310 309 310 308 308 308 311 311 310 307 310 311 314 323 317 320 314 308 306 308 304 308 309 311 313 318 311 309 314 308 310 302 305 306 304 304 313 316 315 317 318 318 317 317 316 315 313 311 311 311 312 313 314
309 310 309 310 309 309 309 309 311 310 314 311 313 321 321 314 311 306 305 307 306 303 310 308 309 314 316 318 312 313 306 308 300 312 306 302 309 319 315 313 315 318 318 316 315 314 314 312 313 313 313 312 313 315
309 309 309 309 310 310 310 309 311 311 310 319 317 314 312 310 297 300 299 302 304 309 311 312 309 316 317 316 310 310 303 302 312 305 302 306 318 316 317 314 314 317 315 314 313 313 313 312 313 313 314 315 315 315
308 308 309 309 310 310 310 310 310 310 311 313 309 296 304 301 304 305 305 307 311 312 313 313 312 312 314 309 310 303 307 309 301 299 301 309 320 318 317 314 313 313 313 312 313 313 312 313 313 315 315 315 315 315
309 308 309 309 310 310 309 310 310 312 314 309 309 298 303 308 310 309 310 311 314 315 315 312 313 312 310 307 308 306 303 299 302 302 308 315 321 321 320 317 314 314 314 314 314 313 313 314 314 315 316 316 316 316
309 308 309 309 310 310 309 309 309 312 311 308 308 305 308 307 307 309 311 311 317 316 317 314 310 307 306 306 304 302 300 299 305 309 315 320 324 325 325 322 321 318 319 316 316 317 317 316 316 316 316 316 316 315
308 309 309 309 309 309 309 308 312 307 306 305 304 309 309 309 309 310 312 312 316 313 309 310 305 304 309 305 302 307 304 308 312 314 319 327 327 329 328 325 323 322 322 321 321 322 320 320 318 317 316 316 315 316
309 309 310 309 309 311 312 308 308 305 302 305 303 307 309 309 308 309 316 314 315 314 314 309 313 306 303 302 305 311 313 315 321 320 324 330 334 332 327 329 328 327 325 324 323 323 321 320 318 315 318 316 315 312
311 310 310 311 310 309 306 307 310 302 304 306 308 310 309 309 313 314 315 313 320 320 313 313 308 307 308 311 312 314 315 315 316 320 323 329 331 331 331 329 330 328 327 326 324 318 319 320 316 314 312 312 310 310
309 309 310 311 310 309 305 306 312 305 303 306 310 307 308 308 311 310 311 315 316 312 310 310 308 312 313 315 319 319 320 322 319 317 317 319 317 322 330 326 323 325 323 324 322 313 317 316 315 311 310 310 309 308
308 311 310 311 311 309 307 306 307 307 307 306 309 308 307 309 308 308 308 312 312 312 311 316 315 316 319 326 324 321 316 317 316 320 319 317 318 317 318 324 325 323 320 320 318 316 310 314 309 308 308 309 309 309
310 311 309 309 306 307 306 309 305 311 308 309 310 309 309 307 308 308 309 307 308 310 314 316 318 317 320 325 323 325 323 329 330 319 311 314 317 320 318 318 316 316 316 316 314 312 310 307 307 308 310 307 306 308
308 309 307 306 302 300 298 310 307 308 304 306 309 306 307 309 311 314 309 309 309 313 315 316 325 332 325 327 326 322 321 325 321 321 322 322 321 322 323 323 320 318 316 310 309 307 305 304 304 305 307 308 307 307
307 305 302 301 300 298 306 306 310 309 308 306 305 303 305 308 313 308 305 310 312 314 315 327 318 317 321 328 318 317 322 321 323 322 324 322 318 321 323 321 320 321 317 312 310 307 307 306 303 306 307 307 306 306
297 298 300 293 304 302 303 304 306 306 304 306 305 306 308 314 307 306 306 308 312 314 316 318 318 317 314 314 317 325 323 316 314 322 324 322 324 321 318 317 316 316 314 311 306 307 307 306 306 306 307 306 306 306
295 302 298 303 305 304 304 300 302 304 305 304 305 310 310 307 304 302 310 315 311 315 314 318 317 317 320 315 313 320 324 325 324 320 320 320 321 318 317 312 308 308 314 310 307 307 306 305 305 307 305 305 300 306
294 300 307 311 309 307 304 307 308 305 305 304 308 306 306 300 301 309 316 318 316 321 320 322 319 316 314 315 317 320 322 321 321 320 320 320 319 320 316 314 310 309 311 310 309 308 306 305 308 308 306 307 308 308
304 305 301 305 305 307 302 303 303 303 306 310 308 304 303 304 305 312 314 318 320 323 320 319 319 318 319 320 320 319 319 319 319 319 318 317 317 317 317 317 316 301 313 313 310 308 308 309 309 309 308 307 307 309
303 306 306 302 303 304 305 303 303 309 312 311 308 307 308 311 312 314 316 320 322 318 316 315 317 319 319 320 319 318 319 317 314 312 311 310 312 313 316 315 312 312 314 313 300 306 310 310 309 311 311 310 309 310
303 307 304 303 303 302 306 308 307 312 313 313 314 314 313 313 313 320 320 319 316 314 314 313 316 315 315 314 314 314 317 317 316 313 310 309 312 315 315 313 312 311 312 312 311 310 300 304 308 310 309 310 310 308
307 307 303 304 303 307 309 312 313 314 313 313 314 312 311 313 313 320 320 319 317 315 312 312 314 315 314 313 313 313 312 316 317 316 315 315 315 316 317 316 315 314 313 313 313 311 311 309 310 310 310 309 310 306
306 302 302 301 303 308 310 308 308 308 309 311 310 315 314 311 312 316 316 316 315 313 307 309 313 314 316 316 317 317 302 315 316 316 316 315 315 316 317 317 316 315 314 314 314 313 310 309 308 308 308 309 308 308
304 303 303 303 306 307 309 307 306 306 309 310 310 311 311 310 308 313 318 319 315 313 312 312 313 314 316 315 315 315 311 317 310 300 301 300 298 302 311 315 314 314 313 312 311 311 310 310 309 308 308 309 309 309

GFSWCAN_sfc_thetae_111.txt.gz
Theta_e
315 316 317 317 317 316 315 314 314 313 314 315 315 316 317 318 316 313 312 317 322 317 317 319 316 311 311 309 304 308 307 308 306 300 298 300 300 301 296 299 297 296 295 294 295 293 291 310 311 304 307 312 318 318
315 315 316 317 316 315 314 314 314 313 313 315 316 316 317 318 316 315 311 322 322 320 318 321 318 317 317 313 308 308 307 308 308 302 303 303 300 298 298 295 303 297 300 297 300 298 308 312 311 312 313 317 318 315
314 315 316 316 315 314 313 314 313 313 314 315 316 316 317 317 315 314 311 315 321 318 314 313 313 315 315 316 315 307 311 314 312 313 306 303 299 302 295 297 302 304 307 302 302 305 309 311 317 317 320 318 318 317
314 315 315 314 314 313 313 313 314 314 315 315 316 315 316 317 315 313 311 316 317 319 312 312 318 314 322 319 318 316 312 314 311 310 305 302 299 307 300 301 300 306 306 304 303 305 308 312 316 319 320 320 318 316
313 314 313 313 312 313 313 314 314 315 315 315 315 315 316 317 313 312 312 315 319 316 311 313 320 318 317 319 320 319 316 313 310 307 305 302 308 307 306 302 300 308 306 303 300 307 308 310 315 321 319 318 317 315
311 311 312 312 312 313 314 314 314 314 314 315 315 315 316 315 312 311 313 319 320 322 315 309 319 316 316 319 318 318 317 314 312 308 306 311 313 308 300 300 306 312 313 312 309 314 311 313 315 321 319 319 318 316
310 311 312 313 314 314 314 314 314 314 314 314 315 315 315 312 308 310 313 318 311 316 317 310 310 316 318 318 316 316 318 315 310 307 307 308 307 307 300 297 308 313 312 314 316 315 312 313 310 315 320 321 319 318
310 312 313 313 314 314 314 313 314 314 314 314 315 315 313 310 309 308 312 312 313 319 316 305 307 312 318 312 310 317 312 314 312 308 310 306 310 309 301 306 309 313 313 311 314 314 312 314 315 314 314 319 317 315
310 310 312 312 311 313 313 313 314 314 314 315 315 311 309 309 312 315 322 317 322 319 310 306 304 305 319 314 315 315 316 307 314 307 307 309 302 292 304 307 308 312 311 310 313 312 315 312 313 313 314 315 316 315
310 310 310 310 309 309 312 313 313 313 314 312 307 307 308 316 320 322 319 315 315 314 317 311 314 307 314 314 311 311 312 307 301 308 311 306 304 310 312 311 313 315 314 313 309 308 308 308 310 310 309 310 313 317
309 310 310 310 310 309 309 310 311 311 309 308 308 312 323 318 321 317 310 306 307 304 306 307 311 308 317 310 308 313 307 308 300 304 304 302 301 309 315 313 314 316 316 314 315 315 312 310 308 307 308 310 310 313
309 309 309 310 310 310 309 309 310 309 311 307 307 312 321 315 311 306 304 307 306 300 308 302 303 307 314 317 313 312 306 306 299 311 305 300 308 314 313 314 314 315 316 315 317 315 314 313 312 310 310 308 309 312
309 309 309 309 309 310 310 310 309 309 309 313 313 312 311 308 295 299 297 302 302 308 308 309 306 312 316 317 310 309 304 301 310 303 301 305 313 315 314 312 313 317 317 316 314 314 312 312 313 312 312 310 312 312
309 308 308 309 309 310 310 310 310 310 308 309 307 292 303 301 302 303 304 304 310 309 310 311 309 314 315 310 310 305 307 307 301 298 299 308 312 314 314 313 313 313 314 312 312 312 311 312 310 312 312 313 312 311
309 309 309 309 310 310 309 310 310 310 309 307 307 295 303 307 309 310 310 309 312 314 313 311 312 312 309 308 308 307 304 300 301 300 307 313 315 314 313 313 313 312 312 311 312 311 311 311 312 312 313 313 312 311
309 308 308 309 310 309 309 309 309 311 310 307 307 304 308 307 306 308 310 310 315 317 316 314 310 306 305 307 304 302 300 299 303 310 314 316 315 316 316 315 315 314 313 313 313 313 312 311 312 312 314 314 312 313
308 308 310 310 310 310 309 308 310 306 305 304 303 308 307 306 307 309 312 311 316 312 306 308 306 305 309 304 302 304 302 306 311 314 316 317 318 318 320 319 319 317 316 315 315 315 314 314 314 315 311 311 311 312
307 311 310 309 309 311 309 308 307 304 300 303 302 305 308 310 309 309 312 317 315 313 310 304 314 307 303 301 304 307 311 317 320 319 319 322 325 325 323 321 322 321 319 319 318 317 316 315 314 313 312 311 311 310
309 310 310 310 310 309 305 305 307 300 302 306 308 308 308 309 312 313 318 320 318 318 314 310 306 305 307 312 312 315 315 317 318 322 325 328 329 327 326 326 326 324 323 322 320 318 317 316 315 314 312 310 308 308
309 309 310 310 310 307 304 304 310 303 301 307 308 307 307 308 310 309 314 314 312 312 308 309 307 311 313 314 319 320 320 318 316 313 316 317 321 326 325 325 324 324 325 323 323 314 317 314 314 312 310 309 308 307
307 310 310 310 310 307 305 305 305 307 307 305 308 308 306 309 307 306 307 313 311 308 305 315 315 313 316 320 327 321 321 318 312 312 310 309 314 318 316 323 326 324 319 319 317 314 311 313 308 306 306 306 307 308
309 311 308 308 305 307 305 309 305 308 306 307 307 309 307 306 306 307 311 307 309 312 313 313 314 313 312 313 323 327 323 317 314 312 309 311 312 316 317 321 321 320 320 318 317 313 305 306 307 307 306 306 305 307
308 309 307 306 301 299 298 309 304 306 302 306 310 305 305 307 310 317 309 312 311 314 317 318 319 319 318 326 327 324 323 320 318 318 318 319 322 320 317 316 319 318 317 316 312 307 305 303 304 307 306 306 305 305
307 304 302 300 300 296 305 303 307 306 308 305 304 302 306 309 314 308 305 308 312 317 317 321 326 323 323 327 324 322 322 321 319 319 319 319 320 320 316 315 317 318 316 313 309 306 306 306 303 305 305 304 305 305
295 296 298 290 302 299 300 303 304 305 302 305 304 304 309 313 308 307 306 312 314 313 315 314 319 318 315 318 320 322 322 319 314 313 313 317 317 320 318 317 317 317 315 311 308 306 306 306 305 304 305 305 305 304
290 299 293 299 301 300 303 300 302 303 305 303 304 306 309 306 301 302 311 314 313 312 314 315 314 312 314 319 317 317 322 322 315 314 314 315 316 317 315 311 310 311 314 312 310 307 306 306 305 305 305 304 300 305
294 296 303 307 308 307 304 306 305 305 303 302 305 306 306 301 301 310 317 316 314 312 314 315 315 314 315 318 319 321 322 322 321 320 319 319 318 320 318 314 311 311 313 312 310 308 307 306 305 305 306 306 305 305
301 305 301 306 305 307 303 303 303 303 306 310 309 304 303 303 304 311 316 317 319 320 319 318 316 320 319 319 319 318 319 319 320 318 317 317 317 316 317 315 316 302 312 312 311 311 309 307 306 307 307 305 305 307
303 306 305 303 303 304 305 303 304 307 308 309 307 306 309 311 310 312 315 318 321 320 318 316 316 319 319 319 319 319 318 316 315 313 311 310 311 312 316 312 311 312 312 311 300 306 309 308 308 309 308 308 310 308
301 306 303 303 301 300 305 307 308 310 312 313 314 312 311 311 313 317 317 317 317 316 316 314 314 315 314 314 313 314 316 316 316 313 311 310 311 315 315 313 312 313 313 312 310 309 299 304 305 308 308 308 308 307
304 305 303 303 302 306 309 311 312 312 313 311 313 311 310 313 316 319 317 318 320 319 315 312 313 314 314 313 313 311 311 316 317 317 315 315 315 316 315 315 313 313 312 311 310 309 308 306 307 307 308 307 308 306
305 303 302 301 302 308 311 309 308 308 309 311 311 313 312 309 306 312 318 321 317 315 310 311 311 312 314 315 316 315 304 317 317 317 317 313 317 317 317 316 315 313 312 311 311 311 310 309 308 308 307 309 308 307
303 304 304 303 303 304 307 307 305 306 310 311 311 312 312 311 309 315 322 323 317 312 312 313 313 315 318 319 317 316 308 318 312 302 302 302 302 305 312 316 316 315 314 313 312 312 312 311 310 310 309 308 309 309

GFSWCAN_sfc_thetae_114.txt.gz
Theta_e
314 315 315 315 316 317 316 316 315 314 314 314 314 316 315 317 317 310 306 309 310 309 311 314 314 304 304 302 297 300 300 300 299 294 292 294 293 295 294 296 295 291 289 289 295 292 290 309 309 303 305 308 316 316
314 314 315 315 316 317 316 315 314 314 314 313 314 316 317 316 317 313 303 313 312 312 312 316 315 314 309 307 301 299 299 301 300 297 296 296 296 293 291 289 299 292 295 293 296 296 303 307 307 311 311 314 312 315
314 314 314 315 315 316 315 314 314 314 314 315 314 316 316 316 316 312 302 306 311 312 310 307 306 312 308 308 308 301 301 304 302 303 298 295 293 295 290 291 297 300 303 297 298 302 304 309 311 317 316 315 314 313
313 314 314 315 315 314 314 313 313 314 315 315 315 315 316 316 316 313 302 307 306 309 306 307 318 307 311 312 310 307 305 306 304 301 297 294 293 298 293 295 297 300 302 299 298 302 305 309 314 317 317 316 313 313
313 313 314 314 313 313 313 313 314 314 315 315 315 315 315 316 315 309 304 305 309 309 305 306 313 315 312 311 312 311 308 304 302 299 297 296 298 299 298 297 296 302 300 298 296 303 302 305 312 319 316 313 312 311
311 312 312 312 312 313 313 314 314 314 314 314 315 315 315 315 311 303 303 309 310 314 309 303 313 311 307 311 311 309 308 306 302 300 298 301 305 301 295 292 302 303 304 307 305 307 308 311 319 320 316 315 314 312
310 311 312 312 313 314 314 313 313 313 314 314 315 315 314 313 302 301 305 311 308 305 310 304 303 310 312 309 308 308 308 307 304 297 297 300 300 301 293 291 301 305 306 309 311 310 306 308 312 318 318 317 315 314
309 310 312 313 314 314 313 313 313 313 314 314 314 314 313 311 307 301 305 308 307 309 309 299 299 305 309 303 302 306 305 305 304 299 300 299 302 299 291 297 303 306 309 310 311 312 308 309 317 318 318 316 314 312
310 309 310 310 311 311 313 313 312 313 313 313 314 313 304 302 301 306 319 314 312 310 302 300 296 300 309 305 305 305 304 299 303 299 298 302 294 290 298 301 303 308 306 306 310 308 309 309 310 315 317 316 313 313
310 310 310 310 310 309 309 310 312 313 313 313 304 301 300 308 318 318 309 307 308 307 307 304 304 298 306 303 302 302 302 298 295 301 302 298 296 300 302 303 302 306 308 307 304 302 305 307 310 310 309 316 315 314
310 309 309 309 309 309 309 309 309 310 309 300 299 301 313 318 311 308 304 300 301 299 298 302 305 302 308 303 302 307 302 298 293 296 298 295 295 301 306 304 305 307 308 307 308 307 306 305 305 304 305 310 314 314
309 309 308 309 309 309 310 309 309 307 303 303 302 304 310 310 306 300 299 300 299 296 299 297 297 302 306 309 304 305 301 298 292 300 298 291 298 305 307 306 306 308 309 309 312 310 307 308 305 305 304 307 308 309
309 309 308 308 309 309 310 309 309 308 307 306 305 305 307 305 293 297 295 298 295 300 300 300 297 299 306 306 305 305 299 295 300 296 295 296 302 307 305 307 306 309 311 310 311 310 309 308 309 307 305 306 308 307
309 308 308 308 309 309 310 309 310 309 304 303 304 292 299 298 300 300 300 298 302 302 302 303 300 304 305 303 301 297 299 299 295 292 294 298 304 307 306 306 306 308 310 310 308 307 307 306 306 308 306 305 308 306
309 309 309 308 309 309 309 309 310 307 305 304 305 292 298 304 305 305 305 304 306 306 306 306 304 304 301 300 300 299 296 295 295 294 297 301 305 307 305 305 305 306 307 305 305 305 305 305 305 306 307 306 307 309
309 308 307 309 309 309 309 309 307 306 307 305 302 300 303 302 303 305 308 305 309 311 309 308 304 302 299 300 298 297 295 294 296 298 304 307 307 305 304 305 306 307 305 305 305 304 304 305 304 304 305 305 306 309
308 305 310 309 310 309 309 307 308 304 303 303 299 303 303 302 302 304 308 308 310 308 304 306 302 301 305 299 298 298 296 298 300 305 308 308 307 306 306 306 307 307 306 305 305 305 304 305 305 305 304 306 305 308
306 310 310 309 309 309 306 306 305 302 298 298 297 300 302 304 303 304 306 311 310 307 306 302 307 303 300 298 297 302 301 304 308 308 309 311 309 308 310 308 309 309 308 307 307 307 306 305 305 306 307 305 305 304
308 309 310 310 309 307 304 304 306 298 300 301 301 303 301 302 305 307 310 313 312 312 310 307 303 303 303 307 305 306 307 308 310 312 313 313 314 314 314 314 314 313 312 311 309 309 310 309 309 308 308 307 306 306
308 309 310 310 310 305 302 303 308 301 298 301 301 300 300 301 305 304 307 309 307 305 303 305 305 307 308 309 310 310 312 313 312 309 308 307 310 312 314 316 317 318 317 315 313 308 309 307 307 311 310 307 306 306
307 309 309 309 307 305 303 304 303 303 304 301 303 302 301 302 301 301 302 308 305 303 301 306 307 311 315 312 315 313 314 312 308 310 310 310 310 310 310 312 312 315 315 313 310 308 307 305 307 308 307 307 307 307
308 310 307 307 304 305 304 304 302 304 302 301 301 303 303 302 301 301 304 303 304 305 307 308 310 309 307 308 310 315 318 315 314 310 307 306 304 305 308 311 311 312 312 311 311 312 310 309 309 307 306 307 307 309
308 308 306 305 301 297 295 303 298 300 297 300 304 302 302 302 304 309 303 305 305 306 310 309 309 311 311 309 312 316 314 315 314 311 307 307 310 313 314 315 315 312 312 310 309 305 305 303 304 306 306 307 307 306
307 304 301 299 298 294 303 298 302 300 301 300 300 300 303 304 307 304 301 303 306 308 307 309 312 310 310 314 315 318 318 316 315 313 312 311 310 312 310 310 313 312 311 307 303 302 303 304 303 306 307 307 306 305
295 294 297 289 300 298 296 300 301 301 299 301 301 300 302 305 300 300 300 304 306 306 309 311 311 310 310 311 312 311 313 313 310 306 308 311 313 310 310 313 312 310 307 304 301 302 303 305 306 307 306 306 305 303
289 297 293 297 299 296 298 300 301 302 302 301 302 302 303 302 299 298 303 306 306 305 306 309 307 306 306 310 309 310 313 312 310 309 310 310 312 312 309 305 304 304 307 306 304 304 304 305 306 305 304 302 298 301
291 295 300 302 302 304 303 304 303 302 302 301 303 303 302 299 299 303 311 310 308 310 312 313 314 311 310 311 313 313 314 316 313 311 311 310 311 312 311 308 306 307 308 308 306 306 305 305 305 304 302 301 302 301
298 301 297 303 302 303 301 299 299 300 302 306 306 302 301 301 301 306 308 312 312 314 315 315 314 313 312 313 312 312 311 312 310 310 309 309 309 309 308 308 308 301 308 309 307 306 308 307 305 303 302 302 300 301
300 304 304 299 302 302 302 300 302 304 306 306 304 302 305 308 309 308 310 313 313 312 311 311 313 313 311 310 311 311 311 310 308 305 305 303 303 304 305 305 305 306 306 306 300 305 309 307 304 305 304 302 303 302
297 300 297 301 300 299 300 302 302 309 309 310 311 310 309 307 309 313 312 312 309 308 308 307 311 311 309 310 310 309 309 310 310 308 305 303 305 307 306 305 306 306 306 306 305 303 298 303 301 303 303 302 302 301
299 298 298 300 298 301 305 305 305 306 310 307 311 309 306 308 311 313 313 311 310 310 308 305 304 305 309 312 310 307 305 308 310 309 306 307 309 308 308 306 307 307 308 307 305 304 302 301 302 302 302 302 303 301
300 299 298 297 298 305 306 305 304 303 307 308 306 308 309 304 304 309 311 311 309 306 304 304 303 303 307 307 307 307 303 308 306 307 309 309 310 310 310 309 307 307 307 307 306 304 303 302 302 302 302 303 304 304
299 299 299 298 298 299 301 301 303 306 305 306 305 307 307 306 303 309 314 313 306 304 303 304 304 305 306 306 307 305 304 309 307 302 301 302 302 306 310 310 309 309 308 307 307 306 305 304 304 304 304 304 304 305

GFSWCAN_sfc_thetae_117.txt.gz
Theta_e
314 315 315 315 315 315 316 317 317 315 314 314 314 314 316 316 317 308 303 308 305 306 308 312 314 305 303 301 297 299 299 299 296 293 291 293 292 294 291 293 292 290 289 288 290 287 287 307 307 300 304 309 315 313
314 314 314 315 315 315 316 316 316 314 314 314 314 314 315 316 316 312 300 308 309 303 307 314 317 317 311 307 300 298 298 298 299 295 293 295 294 292 291 288 295 290 293 292 293 293 302 306 307 308 310 313 314 312
314 314 314 314 314 315 315 316 315 314 314 314 315 315 315 316 315 312 300 302 306 307 308 306 307 309 307 306 307 300 299 303 299 300 296 293 292 294 290 291 294 297 300 295 296 299 303 307 312 315 316 315 313 312
313 313 314 314 314 315 315 314 314 313 313 315 315 316 316 316 315 315 301 302 301 302 302 306 317 311 312 309 308 306 304 303 300 299 295 292 291 296 291 293 295 298 300 297 296 300 304 307 310 315 314 313 311 311
313 313 314 314 313 313 313 313 313 314 314 314 315 315 315 315 314 311 303 303 304 303 302 304 310 313 313 309 311 309 306 302 299 298 294 294 294 297 295 295 294 301 297 296 296 302 302 304 311 316 312 311 310 309
311 311 311 311 312 312 313 313 314 314 314 314 314 315 315 314 313 301 298 304 304 307 305 300 311 312 307 308 309 308 306 303 300 298 297 297 302 299 294 292 300 304 304 304 302 305 306 308 316 317 313 312 311 309
310 310 311 312 313 313 314 314 313 313 313 314 314 314 314 313 302 298 297 304 305 304 307 302 302 308 309 306 306 306 305 303 302 296 295 296 298 297 292 291 300 303 304 305 308 308 305 313 312 317 315 314 313 312
310 309 309 311 312 312 312 313 313 313 313 314 314 314 313 312 307 300 302 308 304 301 306 298 299 303 308 303 302 303 302 302 301 298 298 298 299 296 290 295 297 302 305 307 308 308 307 311 315 315 315 313 311 309
310 310 309 309 310 310 310 311 312 312 312 313 314 313 303 300 297 302 316 312 305 305 299 298 295 297 306 302 302 303 301 298 301 297 295 300 292 290 298 299 301 304 304 306 309 308 308 313 313 314 313 312 309 309
311 310 309 309 309 309 309 309 309 311 312 312 304 300 296 303 314 316 306 303 304 304 304 302 301 294 304 301 299 300 299 297 294 298 300 295 294 299 300 301 305 305 306 306 304 302 303 309 311 313 313 313 312 311
311 310 309 309 309 309 309 309 309 310 308 300 298 299 306 313 308 305 300 298 299 297 301 305 303 301 306 301 300 302 298 299 292 296 297 292 294 299 303 302 302 305 308 306 307 307 307 310 310 311 310 314 313 312
310 309 308 308 309 309 309 309 308 307 304 303 302 303 304 306 302 299 297 298 298 295 298 295 300 304 303 306 301 301 298 297 292 297 295 290 297 300 303 304 303 304 307 307 308 306 307 308 306 306 307 308 312 313
309 309 308 308 308 309 309 309 309 308 306 303 303 304 302 300 290 295 293 296 296 299 298 295 293 301 304 303 302 301 297 294 298 295 294 296 298 303 304 303 303 305 308 308 310 309 307 306 305 305 306 308 309 310
309 309 309 308 308 309 309 309 309 308 304 300 302 293 295 295 297 299 298 299 302 300 299 296 294 297 300 300 299 296 299 297 292 289 292 296 300 303 304 304 304 306 307 307 308 307 306 306 305 305 306 307 305 305
309 309 309 308 309 310 309 309 309 307 304 302 302 290 296 302 303 303 304 303 304 304 303 302 302 302 298 298 298 297 295 293 293 293 295 299 300 303 304 303 303 305 306 306 305 305 305 305 305 304 303 305 305 304
309 308 306 309 309 309 309 308 306 305 305 304 302 298 301 301 301 304 306 304 306 306 304 305 302 302 298 297 295 295 294 293 295 297 300 301 302 303 303 303 303 304 305 304 303 303 303 302 303 304 304 303 305 306
309 303 309 309 309 309 308 307 307 303 301 301 297 301 301 302 302 303 305 304 309 305 302 302 299 299 303 297 295 297 294 297 299 300 302 305 304 305 304 303 303 304 304 303 302 301 302 303 302 301 301 302 303 306
305 309 310 309 309 308 306 305 304 302 297 300 294 299 301 304 303 304 304 309 308 304 304 302 305 299 299 297 296 299 301 300 300 300 302 306 304 304 305 303 304 304 304 304 303 303 301 300 301 303 304 304 303 303
308 308 310 309 309 307 303 303 305 298 299 301 299 299 299 299 301 305 307 311 310 311 306 303 300 298 300 305 304 306 306 306 306 306 307 307 306 306 306 306 305 305 305 304 303 305 306 304 305 306 305 303 305 306
307 308 310 310 310 305 302 302 307 299 295 299 299 297 298 299 301 302 303 309 308 304 301 301 301 303 304 308 310 309 309 309 308 306 305 307 310 313 313 312 311 311 311 311 309 305 305 305 305 304 305 305 307 306
306 308 310 309 306 304 302 302 301 301 302 298 300 300 299 299 299 300 300 305 301 300 299 303 306 309 308 308 313 313 313 310 308 308 309 309 313 314 310 309 310 308 308 309 310 310 307 310 310 308 307 308 308 307
307 310 307 307 303 305 303 305 301 302 302 299 299 300 298 299 299 299 302 301 300 303 303 303 305 306 308 310 311 314 315 315 314 312 307 307 309 307 304 306 306 308 309 309 308 308 308 306 306 308 305 305 305 306
308 308 306 304 300 297 294 302 297 298 297 297 303 300 298 299 302 304 299 302 303 307 307 306 307 308 308 310 311 312 315 313 310 311 314 313 311 308 307 310 311 310 309 309 309 307 306 301 303 304 304 305 305 304
307 304 300 299 298 293 302 297 300 298 297 296 296 296 298 301 306 301 299 302 303 305 307 308 310 309 308 310 311 311 312 312 311 311 313 310 310 310 310 310 310 310 310 307 304 302 302 303 301 304 305 305 305 305
294 292 295 289 300 297 296 295 299 297 296 297 297 297 299 304 300 300 300 304 305 305 307 308 308 310 309 309 310 310 310 311 309 308 309 310 309 309 308 306 306 307 305 304 301 301 300 302 304 305 306 306 306 306
289 295 292 296 297 294 295 297 300 300 301 301 302 302 301 299 298 297 299 305 304 305 305 306 306 306 306 308 308 309 310 309 308 307 308 307 310 309 306 305 303 305 307 306 302 302 302 303 304 305 306 305 300 305
289 294 298 300 301 302 301 302 303 302 301 300 302 300 300 297 297 301 308 308 306 307 308 308 308 305 305 307 308 308 312 310 312 309 309 310 311 312 311 308 306 307 307 305 304 304 303 304 305 306 306 306 306 306
297 300 296 300 298 302 299 300 299 300 303 304 303 301 301 301 299 303 305 309 310 311 311 311 313 313 311 312 311 310 309 308 307 306 306 305 305 305 305 308 308 301 306 306 304 304 304 305 306 305 304 303 303 302
298 302 301 299 301 301 300 298 300 304 305 305 303 300 303 308 307 304 307 310 309 310 308 308 309 311 309 308 308 309 308 307 305 303 302 302 302 304 303 303 304 304 305 304 299 302 305 305 306 305 305 304 302 301
298 303 299 298 298 296 299 300 301 307 310 309 310 307 305 305 307 309 308 308 307 306 306 306 307 309 307 307 308 307 307 308 308 306 303 303 304 305 303 303 303 303 303 304 303 300 296 301 299 302 301 300 300 300
296 296 295 296 296 299 303 305 304 308 308 305 310 305 303 306 307 309 310 309 308 308 302 300 300 304 307 306 305 304 304 306 307 309 309 307 305 305 305 304 304 304 304 304 303 301 302 303 301 301 301 300 300 299
296 295 295 294 295 300 302 301 300 301 304 307 306 306 306 302 302 306 309 307 304 302 301 300 303 302 304 305 306 307 302 306 306 306 305 305 306 307 306 305 305 305 305 305 304 303 302 303 303 303 301 301 301 301
296 296 296 296 296 296 298 301 302 301 302 302 303 305 306 303 302 305 310 309 303 302 301 300 301 303 303 302 303 302 302 306 304 298 297 298 300 303 305 305 306 307 306 305 304 304 302 302 302 301 301 301 302 303

GFSWCAN_sfc_thetae_120.txt.gz
Theta_e
314 314 315 315 315 315 315 315 316 317 317 315 315 314 315 315 316 312 305 307 303 304 304 312 312 304 302 300 297 298 299 299 295 292 290 291 290 293 290 291 291 289 287 287 289 287 287 306 307 300 302 310 317 314
314 314 314 314 315 315 315 315 316 316 315 315 314 315 315 315 316 312 301 307 308 300 302 311 315 316 313 310 299 297 298 298 298 294 292 293 292 291 289 287 293 289 292 290 292 292 299 304 304 309 310 312 315 311
313 314 314 314 314 314 315 315 316 316 314 314 315 316 316 315 316 314 303 303 305 304 306 306 309 308 310 309 306 300 300 302 298 298 294 293 291 293 288 290 292 295 297 295 296 297 302 306 310 312 316 315 313 312
313 313 314 314 314 314 315 315 314 314 314 314 315 315 316 316 315 315 306 302 301 300 301 304 313 310 313 307 306 305 303 300 299 298 294 291 290 295 291 293 294 296 299 296 296 299 303 306 308 314 314 313 311 311
312 313 313 313 313 313 313 313 314 314 314 314 314 315 315 315 314 314 310 308 304 301 299 301 307 310 312 306 308 306 304 301 298 296 293 292 292 295 293 294 293 299 298 296 295 300 301 303 311 315 312 312 310 309
311 311 311 312 312 313 313 313 314 314 314 314 314 314 315 315 313 303 299 303 306 302 301 298 306 309 306 308 307 306 304 301 298 297 295 295 299 298 292 291 298 301 302 303 301 304 305 309 315 316 312 312 311 309
311 310 310 310 312 313 313 313 314 313 313 313 314 314 314 313 308 299 297 301 304 303 302 300 299 306 308 306 305 304 303 301 300 295 295 295 297 297 292 291 299 303 306 305 306 308 307 313 312 315 314 313 312 310
311 310 309 309 310 311 311 311 313 313 313 313 313 313 313 312 309 303 305 309 305 299 304 297 297 301 306 303 301 301 301 301 299 297 296 297 297 294 289 296 297 301 305 304 307 309 307 313 315 314 313 312 310 308
311 310 310 310 310 310 310 310 310 311 312 312 313 312 304 301 296 300 314 312 303 302 297 296 294 295 304 301 301 302 300 297 299 297 295 298 291 289 297 299 300 301 303 303 307 308 312 314 314 313 312 311 308 308
311 311 310 309 309 309 309 310 309 310 310 311 304 297 294 300 312 312 306 302 300 301 300 298 300 295 301 299 299 300 298 296 294 297 298 294 293 298 301 301 303 303 304 307 305 303 307 309 312 311 311 312 311 310
310 311 311 309 309 309 309 309 309 309 308 300 295 297 305 310 307 304 299 297 297 295 297 300 302 300 304 300 299 300 297 297 292 295 296 292 292 298 301 301 302 304 305 307 309 309 309 313 312 312 312 313 312 311
310 310 310 309 308 309 309 309 309 306 305 302 300 304 303 306 302 299 297 296 295 293 298 298 301 303 302 304 301 300 297 295 291 296 294 289 296 300 300 303 303 303 306 308 308 308 308 311 314 314 314 313 313 313
309 309 309 309 309 308 308 308 309 309 307 304 303 302 302 300 291 294 292 294 295 300 298 294 294 299 301 303 300 299 296 294 298 294 293 295 298 300 302 304 302 303 307 308 308 308 308 308 310 311 311 312 313 313
309 309 309 309 309 309 309 309 309 308 304 299 301 292 295 293 295 296 297 297 300 299 298 296 293 296 298 299 299 296 298 296 291 288 291 296 299 301 303 303 302 303 306 306 308 308 306 306 306 307 308 309 310 310
309 309 309 309 309 309 310 309 309 308 302 300 302 291 295 299 301 303 302 301 303 302 301 300 300 300 297 297 296 296 294 292 292 292 295 298 298 301 303 303 302 304 305 305 307 307 306 305 304 305 306 307 309 309
310 309 306 308 309 309 309 308 307 306 303 303 302 297 299 298 299 300 305 305 306 305 304 304 301 298 297 296 294 295 293 292 295 296 299 298 300 301 303 304 303 304 305 305 305 305 305 304 304 304 303 305 306 306
309 303 309 309 309 309 308 306 306 302 300 300 299 299 300 302 300 303 304 305 306 304 301 303 299 298 301 296 295 296 294 296 298 299 299 300 303 304 303 304 303 303 305 304 304 303 304 304 303 303 302 303 305 305
306 309 310 309 308 308 306 305 304 301 297 300 296 298 300 302 304 305 304 307 306 303 304 302 303 298 297 297 295 298 301 303 303 303 302 300 304 305 305 304 304 304 304 304 304 304 302 301 302 303 304 304 303 304
308 308 310 309 309 307 302 302 303 297 298 299 299 299 297 298 300 305 305 306 311 310 305 301 299 298 299 302 302 303 304 305 305 305 305 306 306 305 304 304 304 304 304 304 303 303 304 303 304 304 304 302 304 305
308 308 309 310 309 304 302 302 306 297 294 297 298 296 296 297 299 299 302 302 307 304 301 300 299 301 303 306 308 307 308 308 307 306 306 307 309 309 308 307 307 306 305 305 305 301 304 304 304 304 304 304 304 304
306 306 309 309 306 305 302 301 301 301 298 297 301 299 296 297 297 297 298 304 301 300 298 302 304 305 307 307 310 312 311 310 310 310 309 308 310 309 309 310 312 312 311 309 310 310 306 309 310 309 307 305 307 310
305 310 307 307 303 304 302 303 301 303 300 301 299 301 298 297 297 297 299 299 299 301 302 303 303 305 305 307 309 311 311 312 312 311 304 307 310 311 309 309 308 308 309 310 310 310 311 311 309 309 308 308 307 308
307 307 305 304 299 296 294 301 298 297 295 297 301 300 297 297 299 302 297 299 301 304 306 305 306 304 305 307 310 310 312 313 312 313 312 312 311 309 307 309 310 310 310 310 310 310 310 301 304 305 306 306 306 306
307 303 300 299 297 293 300 297 300 298 297 295 295 295 297 299 303 301 298 298 302 302 303 304 306 307 307 306 308 310 311 314 312 311 311 310 308 309 311 312 311 312 312 310 308 308 306 306 302 306 306 305 305 305
294 293 294 289 299 296 295 296 298 297 295 296 295 295 296 300 297 297 297 300 304 304 305 308 309 309 309 309 309 309 310 311 310 309 309 311 310 309 309 309 309 309 308 306 305 305 305 305 305 305 305 305 305 306
289 295 290 295 296 294 294 294 296 298 300 300 301 303 301 297 296 295 298 303 305 307 307 308 308 308 308 309 309 309 311 312 311 310 310 309 309 309 308 308 307 308 307 308 307 306 305 304 305 305 306 305 300 306
288 292 296 297 300 300 299 300 301 298 299 299 300 300 299 296 296 300 307 310 307 308 310 309 309 306 305 307 308 310 310 310 311 311 309 310 310 312 312 310 309 309 310 308 307 306 305 305 305 306 306 307 307 308
291 294 292 298 297 299 296 297 299 299 301 304 302 299 300 301 300 304 306 309 310 311 310 312 313 312 311 310 310 311 311 309 307 307 307 307 307 307 308 309 309 300 308 308 307 306 306 306 306 307 307 307 307 308
296 301 300 296 299 300 299 297 299 303 306 305 302 299 302 307 307 304 307 310 310 310 307 306 309 310 308 309 309 309 308 307 306 305 304 303 304 306 306 307 307 307 307 306 298 302 306 306 306 307 307 307 307 306
297 302 298 300 298 296 300 303 302 308 309 310 309 304 303 303 306 310 309 308 309 307 306 306 307 309 308 308 308 308 308 308 307 306 304 304 305 308 306 306 306 306 306 306 305 304 297 302 300 305 304 303 303 302
297 298 297 296 296 300 302 303 303 307 308 307 307 304 302 305 305 309 311 311 311 308 302 301 302 307 308 307 306 306 306 308 309 309 310 309 309 307 307 307 307 306 306 306 305 303 304 303 304 303 303 303 303 302
295 295 295 294 296 300 302 300 300 302 304 305 305 307 304 302 303 306 308 308 305 303 300 302 304 304 306 308 309 309 301 309 309 309 310 310 309 308 307 307 307 306 307 306 306 304 304 304 303 303 303 304 304 304
294 295 295 295 296 297 298 300 302 299 302 302 304 306 305 302 302 305 308 307 304 301 301 302 303 304 304 304 305 304 301 306 305 297 296 297 298 302 307 307 307 308 307 307 307 305 304 304 304 304 304 304 304 305

GFSWCAN_sfc_thetae_123.txt.gz
Theta_e
314 314 314 315 315 315 315 315 316 316 317 318 316 315 315 315 316 314 311 311 306 305 309 314 316 310 309 307 305 306 306 306 305 302 300 301 301 304 301 301 300 300 299 299 299 297 293 312 311 306 311 316 320 319
313 314 314 314 314 315 315 315 315 316 317 316 315 315 316 316 315 314 308 309 311 305 307 310 311 314 315 317 310 305 308 308 308 304 304 305 302 302 302 297 303 298 302 302 302 302 308 313 313 315 316 317 320 319
310 312 314 314 314 314 315 315 315 316 315 315 315 315 316 316 315 315 309 309 308 306 308 310 309 317 318 319 319 308 308 310 308 309 306 307 303 304 300 301 302 305 305 304 304 307 308 313 315 317 319 322 322 320
309 312 313 314 314 314 314 315 315 314 314 314 315 315 315 316 316 315 310 309 306 303 302 310 318 316 320 315 315 315 311 308 308 309 307 305 302 306 303 303 303 306 306 306 306 309 309 313 315 319 320 321 319 319
310 312 312 312 312 313 313 313 313 314 314 314 314 314 314 315 314 315 314 312 311 305 302 305 312 315 317 314 312 312 311 310 308 306 305 304 304 304 305 304 303 308 308 305 303 312 313 311 317 322 319 319 319 316
311 312 312 311 312 313 313 314 314 314 314 314 314 314 314 315 313 309 303 309 313 310 302 303 314 315 313 312 312 311 312 309 310 310 309 307 306 307 304 302 310 311 313 315 311 313 314 315 320 323 320 320 317 316
311 312 311 310 310 311 312 312 312 313 313 313 313 314 314 313 311 305 303 306 308 310 304 304 307 313 312 313 313 312 312 310 312 309 307 307 308 308 306 304 311 313 314 314 314 316 315 319 319 321 320 318 316 316
311 311 311 309 310 310 310 310 311 311 312 313 313 313 313 313 311 307 312 310 308 306 308 305 305 307 312 310 309 310 311 312 310 310 306 307 306 306 304 309 312 311 313 313 314 317 315 321 322 319 319 317 315 314
311 311 311 310 310 310 310 310 310 310 310 312 313 312 309 308 305 305 313 313 310 306 302 303 301 302 312 310 311 310 311 307 309 308 307 308 306 298 309 313 312 310 312 315 313 314 316 320 319 318 317 316 315 314
311 311 311 311 310 309 309 310 310 310 309 310 309 303 300 304 311 312 311 303 303 304 306 303 308 304 309 309 308 310 309 308 305 308 307 304 305 313 317 318 318 316 314 315 312 311 316 319 318 317 316 317 316 316
310 310 311 311 310 309 309 309 310 309 309 305 302 302 310 311 313 310 304 300 301 301 305 305 307 304 311 308 308 310 307 307 302 306 305 304 303 310 311 313 315 315 315 317 318 319 321 322 320 319 318 318 318 317
310 310 310 310 309 309 309 308 309 308 307 305 305 307 308 310 307 303 302 302 301 299 303 303 305 307 309 314 311 309 306 305 300 306 304 301 307 313 312 312 313 314 314 316 318 318 321 323 323 322 321 320 319 319
309 309 310 310 310 309 309 308 308 309 308 306 304 303 304 305 294 297 295 299 298 304 304 303 303 307 309 311 309 309 304 302 306 302 302 305 313 313 313 314 313 313 315 316 317 318 319 321 323 323 322 323 322 321
309 309 309 310 309 309 309 309 309 309 305 299 300 292 300 298 300 301 301 303 307 306 305 302 302 305 306 307 308 303 306 305 300 297 299 308 316 315 313 315 313 311 314 315 316 316 317 318 319 322 323 324 323 321
308 309 309 309 310 310 310 309 309 309 302 298 301 295 300 304 305 306 307 307 309 309 307 304 304 306 306 304 305 303 300 299 300 299 305 312 314 313 314 314 314 313 315 316 317 316 316 317 317 318 320 322 322 323
309 309 308 308 309 309 308 309 308 307 303 301 302 300 304 303 304 305 308 308 312 311 309 309 305 304 302 303 301 300 299 298 302 307 311 311 314 314 315 316 315 314 316 316 317 318 318 316 316 318 318 318 319 320
309 306 309 309 309 309 308 307 306 301 300 299 299 305 304 303 303 305 307 307 312 311 307 309 301 300 306 302 299 303 301 305 310 312 313 314 315 316 316 315 316 314 316 317 317 318 318 318 316 314 314 316 317 319
307 310 310 309 309 309 308 305 303 301 297 300 297 301 304 305 306 309 309 310 308 308 308 305 308 304 301 299 302 307 308 313 314 315 317 317 316 317 316 316 316 315 317 318 318 318 317 314 314 314 317 318 315 316
309 309 310 309 310 307 302 302 303 297 299 301 303 303 302 303 305 307 312 310 312 314 310 309 305 304 305 310 311 312 313 314 315 317 316 318 318 318 317 315 316 315 316 317 316 315 315 316 316 316 315 315 313 314
308 308 309 310 309 304 302 302 307 300 297 301 303 301 302 303 305 305 306 307 310 307 304 305 306 308 310 314 316 316 318 318 317 316 317 318 319 315 314 314 314 315 315 315 314 307 314 314 314 314 314 313 313 313
306 307 309 309 306 305 302 302 301 301 301 300 303 301 302 304 302 303 303 306 304 305 302 307 309 312 315 316 318 320 319 318 319 318 318 317 318 319 319 319 318 317 317 317 319 318 310 316 317 317 315 313 314 314
306 310 307 307 303 303 301 304 301 304 301 302 302 304 301 301 302 303 306 303 303 305 308 308 310 312 313 313 315 317 319 320 320 318 307 310 317 317 317 317 318 319 321 322 322 322 322 322 322 321 320 320 314 316
306 307 305 303 299 296 296 305 299 301 298 300 303 301 301 302 304 306 302 304 305 310 311 311 314 316 314 316 315 317 318 318 317 318 319 318 317 316 316 317 318 319 318 319 321 319 321 308 314 317 318 317 317 316
306 302 300 298 297 293 301 299 301 300 300 299 298 297 300 304 305 303 301 305 309 311 310 313 312 310 311 313 313 313 317 317 317 320 321 320 316 313 317 319 319 319 320 321 318 319 319 318 307 313 314 313 313 313
295 294 296 288 299 296 295 296 298 298 297 299 298 299 302 307 303 303 302 309 312 311 312 313 313 313 311 316 317 318 317 319 317 315 318 319 318 318 318 319 318 319 319 317 314 313 314 314 314 314 313 312 312 311
289 296 291 295 297 295 296 294 296 296 299 298 301 305 305 303 300 300 306 311 312 313 314 315 315 315 315 316 316 315 317 317 318 316 317 317 317 317 316 315 317 319 318 317 317 315 314 313 313 312 312 307 301 311
289 293 298 301 300 300 299 300 301 298 294 297 301 301 300 297 298 306 313 315 313 316 316 316 315 313 313 314 315 317 318 318 319 317 316 317 316 318 318 315 313 317 318 316 316 315 314 312 311 310 312 313 312 312
295 296 294 298 298 300 296 296 296 298 300 304 303 299 300 301 301 309 313 315 316 317 317 316 317 317 317 317 318 316 316 314 314 315 315 315 315 316 317 317 316 297 316 319 318 317 316 315 313 313 313 312 313 313
296 301 300 297 298 299 299 297 298 304 308 305 302 304 305 312 314 312 315 317 318 317 314 313 316 317 316 317 318 318 317 315 313 310 309 309 312 314 316 317 317 317 317 317 298 306 313 312 312 313 313 313 314 312
297 302 297 298 298 298 303 305 305 308 309 311 313 312 311 313 315 317 317 316 316 315 315 315 318 318 317 316 315 316 317 317 316 313 311 311 314 317 317 316 316 316 316 315 314 312 298 306 303 311 311 311 312 310
301 301 299 299 299 302 306 309 308 307 310 310 313 311 309 312 315 318 317 318 317 316 311 312 315 317 317 316 316 316 315 319 318 318 318 317 318 318 318 317 316 315 314 314 313 312 311 310 310 309 307 306 306 307
299 298 297 297 299 305 306 304 305 306 308 308 309 312 310 309 309 313 314 315 313 310 304 310 312 312 315 318 319 318 302 316 316 316 316 317 318 319 318 316 316 315 314 313 313 312 312 311 310 309 306 305 306 307
299 300 300 300 300 301 304 304 305 304 307 307 309 310 308 307 305 308 313 311 312 309 309 311 311 312 313 314 314 313 307 314 306 296 295 295 296 302 312 314 313 313 314 313 312 312 311 311 311 310 309 307 309 309